<?xml version="1.0" encoding="UTF-8" standalone="no" ?>
<gpx xmlns="http://www.topografix.com/GPX/1/1" xmlns:xsi="http://www.w3.org/2001/XMLSchema-instance" xsi:schemaLocation="http://www.topografix.com/GPX/1/1 http://www.topografix.com/GPX/1/1/gpx.xsd" version="1.1" creator="VisuGPX - https://www.visugpx.com">
  <metadata>
    <name>Via-rhôna de Lyon à Sète</name>
    <desc><![CDATA[Via Rhona de Lyon à Sète en 7 jours soit un total de 594 km]]></desc>
  </metadata>
  <trk>
    <name><![CDATA[2019-05-28 10:47:34]]></name>
    <trkseg>
      <trkpt lat="44.38061" lon="4.64731">
        <ele>46.21</ele>
        <time>2019-05-28T08:47:34.000Z</time>
      </trkpt>
      <trkpt lat="44.38046" lon="4.64736">
        <ele>46.97</ele>
        <time>2019-05-28T08:47:39.000Z</time>
      </trkpt>
      <trkpt lat="44.38036" lon="4.64738">
        <ele>46.46</ele>
        <time>2019-05-28T08:47:44.000Z</time>
      </trkpt>
      <trkpt lat="44.38025" lon="4.64741">
        <ele>49.46</ele>
        <time>2019-05-28T08:48:52.000Z</time>
      </trkpt>
      <trkpt lat="44.38008" lon="4.64741">
        <ele>49.22</ele>
        <time>2019-05-28T08:48:57.000Z</time>
      </trkpt>
      <trkpt lat="44.37991" lon="4.64729">
        <ele>49.22</ele>
        <time>2019-05-28T08:49:02.000Z</time>
      </trkpt>
      <trkpt lat="44.37975" lon="4.64717">
        <ele>48.28</ele>
        <time>2019-05-28T08:49:07.000Z</time>
      </trkpt>
      <trkpt lat="44.37959" lon="4.647">
        <ele>50.21</ele>
        <time>2019-05-28T08:49:12.000Z</time>
      </trkpt>
      <trkpt lat="44.37941" lon="4.64693">
        <ele>51.4</ele>
        <time>2019-05-28T08:49:17.000Z</time>
      </trkpt>
      <trkpt lat="44.37926" lon="4.64697">
        <ele>51.47</ele>
        <time>2019-05-28T08:49:22.000Z</time>
      </trkpt>
      <trkpt lat="44.37913" lon="4.64703">
        <ele>53.15</ele>
        <time>2019-05-28T08:49:27.000Z</time>
      </trkpt>
      <trkpt lat="44.37903" lon="4.64717">
        <ele>51.47</ele>
        <time>2019-05-28T08:49:32.000Z</time>
      </trkpt>
      <trkpt lat="44.37887" lon="4.6472">
        <ele>52.22</ele>
        <time>2019-05-28T08:49:37.000Z</time>
      </trkpt>
      <trkpt lat="44.3786" lon="4.64725">
        <ele>52.23</ele>
        <time>2019-05-28T08:49:42.000Z</time>
      </trkpt>
      <trkpt lat="44.37827" lon="4.64735">
        <ele>51.22</ele>
        <time>2019-05-28T08:49:47.000Z</time>
      </trkpt>
      <trkpt lat="44.3779" lon="4.64741">
        <ele>51.28</ele>
        <time>2019-05-28T08:49:52.000Z</time>
      </trkpt>
      <trkpt lat="44.37754" lon="4.64747">
        <ele>51.27</ele>
        <time>2019-05-28T08:49:57.000Z</time>
      </trkpt>
      <trkpt lat="44.37719" lon="4.6475">
        <ele>50.22</ele>
        <time>2019-05-28T08:50:02.000Z</time>
      </trkpt>
      <trkpt lat="44.37692" lon="4.64766">
        <ele>51.97</ele>
        <time>2019-05-28T08:50:07.000Z</time>
      </trkpt>
      <trkpt lat="44.37665" lon="4.64771">
        <ele>52.17</ele>
        <time>2019-05-28T08:50:12.000Z</time>
      </trkpt>
      <trkpt lat="44.37636" lon="4.64772">
        <ele>52.22</ele>
        <time>2019-05-28T08:50:17.000Z</time>
      </trkpt>
      <trkpt lat="44.37604" lon="4.64772">
        <ele>52.22</ele>
        <time>2019-05-28T08:50:22.000Z</time>
      </trkpt>
      <trkpt lat="44.37572" lon="4.64769">
        <ele>52.22</ele>
        <time>2019-05-28T08:50:27.000Z</time>
      </trkpt>
      <trkpt lat="44.37541" lon="4.64766">
        <ele>53.02</ele>
        <time>2019-05-28T08:50:32.000Z</time>
      </trkpt>
      <trkpt lat="44.3751" lon="4.64763">
        <ele>50.49</ele>
        <time>2019-05-28T08:50:37.000Z</time>
      </trkpt>
      <trkpt lat="44.37477" lon="4.6476">
        <ele>51.22</ele>
        <time>2019-05-28T08:50:42.000Z</time>
      </trkpt>
      <trkpt lat="44.37445" lon="4.64759">
        <ele>50.29</ele>
        <time>2019-05-28T08:50:47.000Z</time>
      </trkpt>
      <trkpt lat="44.37415" lon="4.6476">
        <ele>50.02</ele>
        <time>2019-05-28T08:50:52.000Z</time>
      </trkpt>
      <trkpt lat="44.37381" lon="4.64761">
        <ele>50.27</ele>
        <time>2019-05-28T08:50:57.000Z</time>
      </trkpt>
      <trkpt lat="44.37344" lon="4.64768">
        <ele>50.18</ele>
        <time>2019-05-28T08:51:02.000Z</time>
      </trkpt>
      <trkpt lat="44.37313" lon="4.64772">
        <ele>52.23</ele>
        <time>2019-05-28T08:51:07.000Z</time>
      </trkpt>
      <trkpt lat="44.37277" lon="4.64774">
        <ele>49.48</ele>
        <time>2019-05-28T08:51:12.000Z</time>
      </trkpt>
      <trkpt lat="44.37244" lon="4.64779">
        <ele>51.91</ele>
        <time>2019-05-28T08:51:17.000Z</time>
      </trkpt>
      <trkpt lat="44.37213" lon="4.64773">
        <ele>51.48</ele>
        <time>2019-05-28T08:51:22.000Z</time>
      </trkpt>
      <trkpt lat="44.37184" lon="4.64781">
        <ele>51.21</ele>
        <time>2019-05-28T08:51:27.000Z</time>
      </trkpt>
      <trkpt lat="44.37155" lon="4.64784">
        <ele>50.48</ele>
        <time>2019-05-28T08:51:32.000Z</time>
      </trkpt>
      <trkpt lat="44.37125" lon="4.64784">
        <ele>50.23</ele>
        <time>2019-05-28T08:51:37.000Z</time>
      </trkpt>
      <trkpt lat="44.37094" lon="4.64778">
        <ele>51.29</ele>
        <time>2019-05-28T08:51:42.000Z</time>
      </trkpt>
      <trkpt lat="44.37063" lon="4.64771">
        <ele>49.54</ele>
        <time>2019-05-28T08:51:47.000Z</time>
      </trkpt>
      <trkpt lat="44.37034" lon="4.64765">
        <ele>49.23</ele>
        <time>2019-05-28T08:51:52.000Z</time>
      </trkpt>
      <trkpt lat="44.37005" lon="4.64762">
        <ele>48.29</ele>
        <time>2019-05-28T08:51:57.000Z</time>
      </trkpt>
      <trkpt lat="44.36976" lon="4.64755">
        <ele>49.24</ele>
        <time>2019-05-28T08:52:02.000Z</time>
      </trkpt>
      <trkpt lat="44.36948" lon="4.64749">
        <ele>50.23</ele>
        <time>2019-05-28T08:52:07.000Z</time>
      </trkpt>
      <trkpt lat="44.3692" lon="4.64742">
        <ele>49.29</ele>
        <time>2019-05-28T08:52:12.000Z</time>
      </trkpt>
      <trkpt lat="44.36895" lon="4.64733">
        <ele>47.24</ele>
        <time>2019-05-28T08:52:17.000Z</time>
      </trkpt>
      <trkpt lat="44.36888" lon="4.64725">
        <ele>48.92</ele>
        <time>2019-05-28T08:52:22.000Z</time>
      </trkpt>
      <trkpt lat="44.36895" lon="4.64732">
        <ele>50.23</ele>
        <time>2019-05-28T08:52:32.000Z</time>
      </trkpt>
      <trkpt lat="44.36889" lon="4.64722">
        <ele>49.48</ele>
        <time>2019-05-28T08:56:36.000Z</time>
      </trkpt>
      <trkpt lat="44.36896" lon="4.64731">
        <ele>50.8</ele>
        <time>2019-05-28T08:56:54.000Z</time>
      </trkpt>
      <trkpt lat="44.36888" lon="4.64726">
        <ele>52.29</ele>
        <time>2019-05-28T09:00:35.000Z</time>
      </trkpt>
      <trkpt lat="44.36876" lon="4.64733">
        <ele>52.28</ele>
        <time>2019-05-28T09:00:40.000Z</time>
      </trkpt>
      <trkpt lat="44.36859" lon="4.64738">
        <ele>52.23</ele>
        <time>2019-05-28T09:00:45.000Z</time>
      </trkpt>
      <trkpt lat="44.36844" lon="4.6473">
        <ele>53.36</ele>
        <time>2019-05-28T09:00:50.000Z</time>
      </trkpt>
      <trkpt lat="44.36834" lon="4.64715">
        <ele>50.02</ele>
        <time>2019-05-28T09:00:55.000Z</time>
      </trkpt>
      <trkpt lat="44.36829" lon="4.64702">
        <ele>50.57</ele>
        <time>2019-05-28T09:01:00.000Z</time>
      </trkpt>
      <trkpt lat="44.36842" lon="4.64703">
        <ele>49.03</ele>
        <time>2019-05-28T09:01:05.000Z</time>
      </trkpt>
      <trkpt lat="44.36852" lon="4.6471">
        <ele>56.16</ele>
        <time>2019-05-28T09:01:19.000Z</time>
      </trkpt>
      <trkpt lat="44.36855" lon="4.64726">
        <ele>57.17</ele>
        <time>2019-05-28T09:01:24.000Z</time>
      </trkpt>
      <trkpt lat="44.36857" lon="4.64741">
        <ele>57.22</ele>
        <time>2019-05-28T09:02:12.000Z</time>
      </trkpt>
      <trkpt lat="44.36853" lon="4.64769">
        <ele>57.42</ele>
        <time>2019-05-28T09:02:17.000Z</time>
      </trkpt>
      <trkpt lat="44.36852" lon="4.64798">
        <ele>57.98</ele>
        <time>2019-05-28T09:02:22.000Z</time>
      </trkpt>
      <trkpt lat="44.3685" lon="4.64826">
        <ele>58.22</ele>
        <time>2019-05-28T09:02:27.000Z</time>
      </trkpt>
      <trkpt lat="44.36847" lon="4.64853">
        <ele>59.22</ele>
        <time>2019-05-28T09:02:32.000Z</time>
      </trkpt>
      <trkpt lat="44.36843" lon="4.64881">
        <ele>61.03</ele>
        <time>2019-05-28T09:02:37.000Z</time>
      </trkpt>
      <trkpt lat="44.36841" lon="4.64911">
        <ele>61.23</ele>
        <time>2019-05-28T09:02:42.000Z</time>
      </trkpt>
      <trkpt lat="44.36839" lon="4.64934">
        <ele>60.3</ele>
        <time>2019-05-28T09:02:47.000Z</time>
      </trkpt>
      <trkpt lat="44.36838" lon="4.64948">
        <ele>60.47</ele>
        <time>2019-05-28T09:03:21.000Z</time>
      </trkpt>
      <trkpt lat="44.36836" lon="4.64978">
        <ele>60.23</ele>
        <time>2019-05-28T09:03:26.000Z</time>
      </trkpt>
      <trkpt lat="44.36833" lon="4.65013">
        <ele>59.48</ele>
        <time>2019-05-28T09:03:31.000Z</time>
      </trkpt>
      <trkpt lat="44.3683" lon="4.6505">
        <ele>59.23</ele>
        <time>2019-05-28T09:03:36.000Z</time>
      </trkpt>
      <trkpt lat="44.36826" lon="4.65094">
        <ele>57.48</ele>
        <time>2019-05-28T09:03:41.000Z</time>
      </trkpt>
      <trkpt lat="44.3682" lon="4.65139">
        <ele>56.5</ele>
        <time>2019-05-28T09:03:46.000Z</time>
      </trkpt>
      <trkpt lat="44.36817" lon="4.65178">
        <ele>56.05</ele>
        <time>2019-05-28T09:03:51.000Z</time>
      </trkpt>
      <trkpt lat="44.36811" lon="4.65195">
        <ele>55.29</ele>
        <time>2019-05-28T09:03:56.000Z</time>
      </trkpt>
      <trkpt lat="44.36812" lon="4.65213">
        <ele>54.48</ele>
        <time>2019-05-28T09:04:01.000Z</time>
      </trkpt>
      <trkpt lat="44.36808" lon="4.65248">
        <ele>54.25</ele>
        <time>2019-05-28T09:04:06.000Z</time>
      </trkpt>
      <trkpt lat="44.36805" lon="4.65288">
        <ele>54.04</ele>
        <time>2019-05-28T09:04:11.000Z</time>
      </trkpt>
      <trkpt lat="44.36801" lon="4.65329">
        <ele>54.98</ele>
        <time>2019-05-28T09:04:16.000Z</time>
      </trkpt>
      <trkpt lat="44.36797" lon="4.65373">
        <ele>55.99</ele>
        <time>2019-05-28T09:04:21.000Z</time>
      </trkpt>
      <trkpt lat="44.36793" lon="4.65417">
        <ele>55.25</ele>
        <time>2019-05-28T09:04:26.000Z</time>
      </trkpt>
      <trkpt lat="44.3679" lon="4.65457">
        <ele>56.98</ele>
        <time>2019-05-28T09:04:31.000Z</time>
      </trkpt>
      <trkpt lat="44.36786" lon="4.65503">
        <ele>57</ele>
        <time>2019-05-28T09:04:36.000Z</time>
      </trkpt>
      <trkpt lat="44.36783" lon="4.65546">
        <ele>57.24</ele>
        <time>2019-05-28T09:04:41.000Z</time>
      </trkpt>
      <trkpt lat="44.36778" lon="4.65589">
        <ele>55.26</ele>
        <time>2019-05-28T09:04:46.000Z</time>
      </trkpt>
      <trkpt lat="44.36774" lon="4.65627">
        <ele>55.24</ele>
        <time>2019-05-28T09:04:51.000Z</time>
      </trkpt>
      <trkpt lat="44.36759" lon="4.65642">
        <ele>53.49</ele>
        <time>2019-05-28T09:04:56.000Z</time>
      </trkpt>
      <trkpt lat="44.36745" lon="4.65639">
        <ele>53.24</ele>
        <time>2019-05-28T09:05:01.000Z</time>
      </trkpt>
      <trkpt lat="44.36736" lon="4.65635">
        <ele>51.24</ele>
        <time>2019-05-28T09:05:25.000Z</time>
      </trkpt>
      <trkpt lat="44.36718" lon="4.65631">
        <ele>51.24</ele>
        <time>2019-05-28T09:05:30.000Z</time>
      </trkpt>
      <trkpt lat="44.36693" lon="4.65624">
        <ele>50.24</ele>
        <time>2019-05-28T09:05:35.000Z</time>
      </trkpt>
      <trkpt lat="44.36665" lon="4.65617">
        <ele>50.24</ele>
        <time>2019-05-28T09:05:40.000Z</time>
      </trkpt>
      <trkpt lat="44.36634" lon="4.65614">
        <ele>50.24</ele>
        <time>2019-05-28T09:05:45.000Z</time>
      </trkpt>
      <trkpt lat="44.36598" lon="4.65612">
        <ele>49.24</ele>
        <time>2019-05-28T09:05:50.000Z</time>
      </trkpt>
      <trkpt lat="44.36561" lon="4.65608">
        <ele>48.49</ele>
        <time>2019-05-28T09:05:55.000Z</time>
      </trkpt>
      <trkpt lat="44.36526" lon="4.65603">
        <ele>47.49</ele>
        <time>2019-05-28T09:06:00.000Z</time>
      </trkpt>
      <trkpt lat="44.36492" lon="4.656">
        <ele>48.24</ele>
        <time>2019-05-28T09:06:05.000Z</time>
      </trkpt>
      <trkpt lat="44.36458" lon="4.65596">
        <ele>47.12</ele>
        <time>2019-05-28T09:06:10.000Z</time>
      </trkpt>
      <trkpt lat="44.36427" lon="4.65596">
        <ele>48.94</ele>
        <time>2019-05-28T09:06:15.000Z</time>
      </trkpt>
      <trkpt lat="44.36394" lon="4.65592">
        <ele>49.24</ele>
        <time>2019-05-28T09:06:20.000Z</time>
      </trkpt>
      <trkpt lat="44.36358" lon="4.65588">
        <ele>50.23</ele>
        <time>2019-05-28T09:06:25.000Z</time>
      </trkpt>
      <trkpt lat="44.36321" lon="4.65584">
        <ele>50.04</ele>
        <time>2019-05-28T09:06:30.000Z</time>
      </trkpt>
      <trkpt lat="44.36284" lon="4.65577">
        <ele>51.18</ele>
        <time>2019-05-28T09:06:35.000Z</time>
      </trkpt>
      <trkpt lat="44.36247" lon="4.65567">
        <ele>50.29</ele>
        <time>2019-05-28T09:06:40.000Z</time>
      </trkpt>
      <trkpt lat="44.36213" lon="4.65557">
        <ele>50.24</ele>
        <time>2019-05-28T09:06:45.000Z</time>
      </trkpt>
      <trkpt lat="44.36177" lon="4.65548">
        <ele>49.26</ele>
        <time>2019-05-28T09:06:50.000Z</time>
      </trkpt>
      <trkpt lat="44.36141" lon="4.65545">
        <ele>49.25</ele>
        <time>2019-05-28T09:06:55.000Z</time>
      </trkpt>
      <trkpt lat="44.36104" lon="4.6555">
        <ele>49.24</ele>
        <time>2019-05-28T09:07:00.000Z</time>
      </trkpt>
      <trkpt lat="44.36066" lon="4.65556">
        <ele>49.2</ele>
        <time>2019-05-28T09:07:05.000Z</time>
      </trkpt>
      <trkpt lat="44.36025" lon="4.65561">
        <ele>48.26</ele>
        <time>2019-05-28T09:07:10.000Z</time>
      </trkpt>
      <trkpt lat="44.35987" lon="4.65563">
        <ele>49.25</ele>
        <time>2019-05-28T09:07:15.000Z</time>
      </trkpt>
      <trkpt lat="44.35949" lon="4.6557">
        <ele>49.26</ele>
        <time>2019-05-28T09:07:20.000Z</time>
      </trkpt>
      <trkpt lat="44.35911" lon="4.65581">
        <ele>48.5</ele>
        <time>2019-05-28T09:07:25.000Z</time>
      </trkpt>
      <trkpt lat="44.35873" lon="4.65596">
        <ele>47.25</ele>
        <time>2019-05-28T09:07:30.000Z</time>
      </trkpt>
      <trkpt lat="44.35836" lon="4.65611">
        <ele>49</ele>
        <time>2019-05-28T09:07:35.000Z</time>
      </trkpt>
      <trkpt lat="44.35798" lon="4.65625">
        <ele>49.25</ele>
        <time>2019-05-28T09:07:40.000Z</time>
      </trkpt>
      <trkpt lat="44.35765" lon="4.65645">
        <ele>48.26</ele>
        <time>2019-05-28T09:07:45.000Z</time>
      </trkpt>
      <trkpt lat="44.35734" lon="4.65671">
        <ele>49.19</ele>
        <time>2019-05-28T09:07:50.000Z</time>
      </trkpt>
      <trkpt lat="44.357" lon="4.65671">
        <ele>51.17</ele>
        <time>2019-05-28T09:07:55.000Z</time>
      </trkpt>
      <trkpt lat="44.35666" lon="4.65668">
        <ele>51.25</ele>
        <time>2019-05-28T09:08:00.000Z</time>
      </trkpt>
      <trkpt lat="44.35631" lon="4.65664">
        <ele>49.52</ele>
        <time>2019-05-28T09:08:05.000Z</time>
      </trkpt>
      <trkpt lat="44.35597" lon="4.65663">
        <ele>51.24</ele>
        <time>2019-05-28T09:08:10.000Z</time>
      </trkpt>
      <trkpt lat="44.35564" lon="4.65664">
        <ele>52.06</ele>
        <time>2019-05-28T09:08:15.000Z</time>
      </trkpt>
      <trkpt lat="44.35529" lon="4.65664">
        <ele>51.31</ele>
        <time>2019-05-28T09:08:20.000Z</time>
      </trkpt>
      <trkpt lat="44.35496" lon="4.65655">
        <ele>50.5</ele>
        <time>2019-05-28T09:08:25.000Z</time>
      </trkpt>
      <trkpt lat="44.35464" lon="4.65637">
        <ele>49.5</ele>
        <time>2019-05-28T09:08:30.000Z</time>
      </trkpt>
      <trkpt lat="44.35432" lon="4.65618">
        <ele>48.51</ele>
        <time>2019-05-28T09:08:35.000Z</time>
      </trkpt>
      <trkpt lat="44.354" lon="4.65598">
        <ele>48.26</ele>
        <time>2019-05-28T09:08:40.000Z</time>
      </trkpt>
      <trkpt lat="44.35367" lon="4.65581">
        <ele>47.27</ele>
        <time>2019-05-28T09:08:45.000Z</time>
      </trkpt>
      <trkpt lat="44.35335" lon="4.65592">
        <ele>46.32</ele>
        <time>2019-05-28T09:08:50.000Z</time>
      </trkpt>
      <trkpt lat="44.35304" lon="4.65615">
        <ele>48.19</ele>
        <time>2019-05-28T09:08:55.000Z</time>
      </trkpt>
      <trkpt lat="44.35272" lon="4.65636">
        <ele>48.26</ele>
        <time>2019-05-28T09:09:00.000Z</time>
      </trkpt>
      <trkpt lat="44.35242" lon="4.65659">
        <ele>47.32</ele>
        <time>2019-05-28T09:09:05.000Z</time>
      </trkpt>
      <trkpt lat="44.35211" lon="4.65683">
        <ele>47.26</ele>
        <time>2019-05-28T09:09:10.000Z</time>
      </trkpt>
      <trkpt lat="44.3519" lon="4.65697">
        <ele>48.49</ele>
        <time>2019-05-28T09:09:15.000Z</time>
      </trkpt>
      <trkpt lat="44.3518" lon="4.65704">
        <ele>52.19</ele>
        <time>2019-05-28T09:09:28.000Z</time>
      </trkpt>
      <trkpt lat="44.35165" lon="4.65717">
        <ele>51.27</ele>
        <time>2019-05-28T09:09:33.000Z</time>
      </trkpt>
      <trkpt lat="44.35142" lon="4.65735">
        <ele>49.56</ele>
        <time>2019-05-28T09:09:38.000Z</time>
      </trkpt>
      <trkpt lat="44.35117" lon="4.65756">
        <ele>50.24</ele>
        <time>2019-05-28T09:09:43.000Z</time>
      </trkpt>
      <trkpt lat="44.35088" lon="4.65775">
        <ele>50.26</ele>
        <time>2019-05-28T09:09:48.000Z</time>
      </trkpt>
      <trkpt lat="44.35059" lon="4.65796">
        <ele>49.51</ele>
        <time>2019-05-28T09:09:53.000Z</time>
      </trkpt>
      <trkpt lat="44.35028" lon="4.6582">
        <ele>49.51</ele>
        <time>2019-05-28T09:09:58.000Z</time>
      </trkpt>
      <trkpt lat="44.34997" lon="4.65845">
        <ele>49.46</ele>
        <time>2019-05-28T09:10:03.000Z</time>
      </trkpt>
      <trkpt lat="44.34962" lon="4.65871">
        <ele>49.26</ele>
        <time>2019-05-28T09:10:08.000Z</time>
      </trkpt>
      <trkpt lat="44.3493" lon="4.65893">
        <ele>49.27</ele>
        <time>2019-05-28T09:10:13.000Z</time>
      </trkpt>
      <trkpt lat="44.34891" lon="4.65911">
        <ele>47.76</ele>
        <time>2019-05-28T09:10:18.000Z</time>
      </trkpt>
      <trkpt lat="44.34854" lon="4.65917">
        <ele>49</ele>
        <time>2019-05-28T09:10:23.000Z</time>
      </trkpt>
      <trkpt lat="44.3482" lon="4.65918">
        <ele>45.26</ele>
        <time>2019-05-28T09:10:28.000Z</time>
      </trkpt>
      <trkpt lat="44.34787" lon="4.65914">
        <ele>46.27</ele>
        <time>2019-05-28T09:10:33.000Z</time>
      </trkpt>
      <trkpt lat="44.34755" lon="4.65901">
        <ele>46.51</ele>
        <time>2019-05-28T09:10:38.000Z</time>
      </trkpt>
      <trkpt lat="44.34728" lon="4.65882">
        <ele>46.51</ele>
        <time>2019-05-28T09:10:43.000Z</time>
      </trkpt>
      <trkpt lat="44.34699" lon="4.65862">
        <ele>47.22</ele>
        <time>2019-05-28T09:10:48.000Z</time>
      </trkpt>
      <trkpt lat="44.34671" lon="4.65836">
        <ele>46.08</ele>
        <time>2019-05-28T09:10:53.000Z</time>
      </trkpt>
      <trkpt lat="44.34643" lon="4.65818">
        <ele>48.2</ele>
        <time>2019-05-28T09:10:58.000Z</time>
      </trkpt>
      <trkpt lat="44.34615" lon="4.65821">
        <ele>48.27</ele>
        <time>2019-05-28T09:11:03.000Z</time>
      </trkpt>
      <trkpt lat="44.34587" lon="4.65841">
        <ele>47.53</ele>
        <time>2019-05-28T09:11:08.000Z</time>
      </trkpt>
      <trkpt lat="44.34556" lon="4.6586">
        <ele>47.26</ele>
        <time>2019-05-28T09:11:13.000Z</time>
      </trkpt>
      <trkpt lat="44.34523" lon="4.6588">
        <ele>48.02</ele>
        <time>2019-05-28T09:11:18.000Z</time>
      </trkpt>
      <trkpt lat="44.34491" lon="4.659">
        <ele>47.52</ele>
        <time>2019-05-28T09:11:23.000Z</time>
      </trkpt>
      <trkpt lat="44.34461" lon="4.65918">
        <ele>47.27</ele>
        <time>2019-05-28T09:11:28.000Z</time>
      </trkpt>
      <trkpt lat="44.3443" lon="4.65936">
        <ele>48.02</ele>
        <time>2019-05-28T09:11:33.000Z</time>
      </trkpt>
      <trkpt lat="44.34397" lon="4.65956">
        <ele>49.02</ele>
        <time>2019-05-28T09:11:38.000Z</time>
      </trkpt>
      <trkpt lat="44.34364" lon="4.65975">
        <ele>48.27</ele>
        <time>2019-05-28T09:11:43.000Z</time>
      </trkpt>
      <trkpt lat="44.34332" lon="4.65996">
        <ele>48.51</ele>
        <time>2019-05-28T09:11:48.000Z</time>
      </trkpt>
      <trkpt lat="44.34299" lon="4.66014">
        <ele>49.07</ele>
        <time>2019-05-28T09:11:53.000Z</time>
      </trkpt>
      <trkpt lat="44.34265" lon="4.66036">
        <ele>48.27</ele>
        <time>2019-05-28T09:11:58.000Z</time>
      </trkpt>
      <trkpt lat="44.34231" lon="4.66054">
        <ele>48.28</ele>
        <time>2019-05-28T09:12:03.000Z</time>
      </trkpt>
      <trkpt lat="44.34196" lon="4.66067">
        <ele>47.33</ele>
        <time>2019-05-28T09:12:08.000Z</time>
      </trkpt>
      <trkpt lat="44.34162" lon="4.66082">
        <ele>46.29</ele>
        <time>2019-05-28T09:12:13.000Z</time>
      </trkpt>
      <trkpt lat="44.34126" lon="4.66093">
        <ele>46.46</ele>
        <time>2019-05-28T09:12:18.000Z</time>
      </trkpt>
      <trkpt lat="44.34091" lon="4.66105">
        <ele>47.27</ele>
        <time>2019-05-28T09:12:23.000Z</time>
      </trkpt>
      <trkpt lat="44.34057" lon="4.66118">
        <ele>47.27</ele>
        <time>2019-05-28T09:12:28.000Z</time>
      </trkpt>
      <trkpt lat="44.34024" lon="4.66128">
        <ele>47.28</ele>
        <time>2019-05-28T09:12:33.000Z</time>
      </trkpt>
      <trkpt lat="44.33989" lon="4.66141">
        <ele>47.28</ele>
        <time>2019-05-28T09:12:38.000Z</time>
      </trkpt>
      <trkpt lat="44.33954" lon="4.66149">
        <ele>48.03</ele>
        <time>2019-05-28T09:12:43.000Z</time>
      </trkpt>
      <trkpt lat="44.33918" lon="4.66131">
        <ele>49.26</ele>
        <time>2019-05-28T09:12:48.000Z</time>
      </trkpt>
      <trkpt lat="44.33885" lon="4.66112">
        <ele>48.28</ele>
        <time>2019-05-28T09:12:53.000Z</time>
      </trkpt>
      <trkpt lat="44.3385" lon="4.66092">
        <ele>47.09</ele>
        <time>2019-05-28T09:12:58.000Z</time>
      </trkpt>
      <trkpt lat="44.33815" lon="4.6607">
        <ele>47.23</ele>
        <time>2019-05-28T09:13:03.000Z</time>
      </trkpt>
      <trkpt lat="44.3378" lon="4.66059">
        <ele>46.28</ele>
        <time>2019-05-28T09:13:08.000Z</time>
      </trkpt>
      <trkpt lat="44.33745" lon="4.66048">
        <ele>49.21</ele>
        <time>2019-05-28T09:13:13.000Z</time>
      </trkpt>
      <trkpt lat="44.33711" lon="4.66037">
        <ele>48.5</ele>
        <time>2019-05-28T09:13:18.000Z</time>
      </trkpt>
      <trkpt lat="44.33676" lon="4.66026">
        <ele>49.28</ele>
        <time>2019-05-28T09:13:23.000Z</time>
      </trkpt>
      <trkpt lat="44.33643" lon="4.66007">
        <ele>48.34</ele>
        <time>2019-05-28T09:13:28.000Z</time>
      </trkpt>
      <trkpt lat="44.33609" lon="4.65989">
        <ele>47.34</ele>
        <time>2019-05-28T09:13:33.000Z</time>
      </trkpt>
      <trkpt lat="44.33575" lon="4.65971">
        <ele>47.28</ele>
        <time>2019-05-28T09:13:38.000Z</time>
      </trkpt>
      <trkpt lat="44.33542" lon="4.65956">
        <ele>47.28</ele>
        <time>2019-05-28T09:13:43.000Z</time>
      </trkpt>
      <trkpt lat="44.33513" lon="4.65945">
        <ele>50.2</ele>
        <time>2019-05-28T09:13:48.000Z</time>
      </trkpt>
      <trkpt lat="44.33491" lon="4.65943">
        <ele>51.27</ele>
        <time>2019-05-28T09:13:53.000Z</time>
      </trkpt>
      <trkpt lat="44.33463" lon="4.65937">
        <ele>48.61</ele>
        <time>2019-05-28T09:13:58.000Z</time>
      </trkpt>
      <trkpt lat="44.33426" lon="4.65921">
        <ele>45.55</ele>
        <time>2019-05-28T09:14:03.000Z</time>
      </trkpt>
      <trkpt lat="44.33386" lon="4.65911">
        <ele>47.08</ele>
        <time>2019-05-28T09:14:08.000Z</time>
      </trkpt>
      <trkpt lat="44.33349" lon="4.65916">
        <ele>45.35</ele>
        <time>2019-05-28T09:14:13.000Z</time>
      </trkpt>
      <trkpt lat="44.33315" lon="4.65925">
        <ele>45.28</ele>
        <time>2019-05-28T09:14:18.000Z</time>
      </trkpt>
      <trkpt lat="44.33284" lon="4.65936">
        <ele>46.22</ele>
        <time>2019-05-28T09:14:23.000Z</time>
      </trkpt>
      <trkpt lat="44.33248" lon="4.65943">
        <ele>45.39</ele>
        <time>2019-05-28T09:14:28.000Z</time>
      </trkpt>
      <trkpt lat="44.33212" lon="4.65957">
        <ele>45.32</ele>
        <time>2019-05-28T09:14:33.000Z</time>
      </trkpt>
      <trkpt lat="44.33176" lon="4.65967">
        <ele>47.34</ele>
        <time>2019-05-28T09:14:38.000Z</time>
      </trkpt>
      <trkpt lat="44.33139" lon="4.65977">
        <ele>46.32</ele>
        <time>2019-05-28T09:14:43.000Z</time>
      </trkpt>
      <trkpt lat="44.33104" lon="4.65977">
        <ele>43.31</ele>
        <time>2019-05-28T09:14:48.000Z</time>
      </trkpt>
      <trkpt lat="44.33072" lon="4.65974">
        <ele>45.22</ele>
        <time>2019-05-28T09:14:53.000Z</time>
      </trkpt>
      <trkpt lat="44.33042" lon="4.65966">
        <ele>45.27</ele>
        <time>2019-05-28T09:14:58.000Z</time>
      </trkpt>
      <trkpt lat="44.33011" lon="4.65965">
        <ele>46.04</ele>
        <time>2019-05-28T09:15:03.000Z</time>
      </trkpt>
      <trkpt lat="44.32981" lon="4.65966">
        <ele>46.29</ele>
        <time>2019-05-28T09:15:08.000Z</time>
      </trkpt>
      <trkpt lat="44.3295" lon="4.65969">
        <ele>46.23</ele>
        <time>2019-05-28T09:15:13.000Z</time>
      </trkpt>
      <trkpt lat="44.32918" lon="4.65966">
        <ele>50.47</ele>
        <time>2019-05-28T09:15:18.000Z</time>
      </trkpt>
      <trkpt lat="44.32884" lon="4.65956">
        <ele>49.35</ele>
        <time>2019-05-28T09:15:23.000Z</time>
      </trkpt>
      <trkpt lat="44.32849" lon="4.6595">
        <ele>49.22</ele>
        <time>2019-05-28T09:15:28.000Z</time>
      </trkpt>
      <trkpt lat="44.3281" lon="4.65943">
        <ele>48.54</ele>
        <time>2019-05-28T09:15:33.000Z</time>
      </trkpt>
      <trkpt lat="44.32778" lon="4.65935">
        <ele>48.29</ele>
        <time>2019-05-28T09:15:38.000Z</time>
      </trkpt>
      <trkpt lat="44.32745" lon="4.65924">
        <ele>48.1</ele>
        <time>2019-05-28T09:15:43.000Z</time>
      </trkpt>
      <trkpt lat="44.32713" lon="4.65917">
        <ele>48.29</ele>
        <time>2019-05-28T09:15:48.000Z</time>
      </trkpt>
      <trkpt lat="44.32682" lon="4.65908">
        <ele>46.36</ele>
        <time>2019-05-28T09:15:53.000Z</time>
      </trkpt>
      <trkpt lat="44.3265" lon="4.65909">
        <ele>46.34</ele>
        <time>2019-05-28T09:15:58.000Z</time>
      </trkpt>
      <trkpt lat="44.32616" lon="4.65916">
        <ele>45.34</ele>
        <time>2019-05-28T09:16:03.000Z</time>
      </trkpt>
      <trkpt lat="44.32582" lon="4.65923">
        <ele>44.8</ele>
        <time>2019-05-28T09:16:08.000Z</time>
      </trkpt>
      <trkpt lat="44.3255" lon="4.65941">
        <ele>46.25</ele>
        <time>2019-05-28T09:16:13.000Z</time>
      </trkpt>
      <trkpt lat="44.32524" lon="4.65972">
        <ele>48.26</ele>
        <time>2019-05-28T09:16:18.000Z</time>
      </trkpt>
      <trkpt lat="44.32501" lon="4.66008">
        <ele>46.07</ele>
        <time>2019-05-28T09:16:23.000Z</time>
      </trkpt>
      <trkpt lat="44.32476" lon="4.66041">
        <ele>46.54</ele>
        <time>2019-05-28T09:16:28.000Z</time>
      </trkpt>
      <trkpt lat="44.32452" lon="4.66075">
        <ele>47.28</ele>
        <time>2019-05-28T09:16:33.000Z</time>
      </trkpt>
      <trkpt lat="44.32426" lon="4.66109">
        <ele>46.31</ele>
        <time>2019-05-28T09:16:38.000Z</time>
      </trkpt>
      <trkpt lat="44.32402" lon="4.66145">
        <ele>47.3</ele>
        <time>2019-05-28T09:16:43.000Z</time>
      </trkpt>
      <trkpt lat="44.32378" lon="4.66179">
        <ele>48.05</ele>
        <time>2019-05-28T09:16:48.000Z</time>
      </trkpt>
      <trkpt lat="44.32354" lon="4.66216">
        <ele>48.35</ele>
        <time>2019-05-28T09:16:53.000Z</time>
      </trkpt>
      <trkpt lat="44.32331" lon="4.66253">
        <ele>49.05</ele>
        <time>2019-05-28T09:16:58.000Z</time>
      </trkpt>
      <trkpt lat="44.3231" lon="4.66287">
        <ele>50.06</ele>
        <time>2019-05-28T09:17:03.000Z</time>
      </trkpt>
      <trkpt lat="44.32286" lon="4.6632">
        <ele>50.3</ele>
        <time>2019-05-28T09:17:08.000Z</time>
      </trkpt>
      <trkpt lat="44.32261" lon="4.66357">
        <ele>50.3</ele>
        <time>2019-05-28T09:17:13.000Z</time>
      </trkpt>
      <trkpt lat="44.32234" lon="4.66391">
        <ele>48.8</ele>
        <time>2019-05-28T09:17:18.000Z</time>
      </trkpt>
      <trkpt lat="44.32207" lon="4.66425">
        <ele>48.29</ele>
        <time>2019-05-28T09:17:23.000Z</time>
      </trkpt>
      <trkpt lat="44.32184" lon="4.66456">
        <ele>46.61</ele>
        <time>2019-05-28T09:17:28.000Z</time>
      </trkpt>
      <trkpt lat="44.32161" lon="4.66489">
        <ele>45.32</ele>
        <time>2019-05-28T09:17:33.000Z</time>
      </trkpt>
      <trkpt lat="44.32142" lon="4.66526">
        <ele>45.05</ele>
        <time>2019-05-28T09:17:38.000Z</time>
      </trkpt>
      <trkpt lat="44.32126" lon="4.66571">
        <ele>46.29</ele>
        <time>2019-05-28T09:17:43.000Z</time>
      </trkpt>
      <trkpt lat="44.32116" lon="4.66613">
        <ele>51.05</ele>
        <time>2019-05-28T09:17:48.000Z</time>
      </trkpt>
      <trkpt lat="44.32106" lon="4.66655">
        <ele>51.29</ele>
        <time>2019-05-28T09:17:53.000Z</time>
      </trkpt>
      <trkpt lat="44.32095" lon="4.66696">
        <ele>51.12</ele>
        <time>2019-05-28T09:17:58.000Z</time>
      </trkpt>
      <trkpt lat="44.32078" lon="4.66736">
        <ele>50.31</ele>
        <time>2019-05-28T09:18:03.000Z</time>
      </trkpt>
      <trkpt lat="44.32057" lon="4.66769">
        <ele>49.55</ele>
        <time>2019-05-28T09:18:08.000Z</time>
      </trkpt>
      <trkpt lat="44.32032" lon="4.66798">
        <ele>48.56</ele>
        <time>2019-05-28T09:18:13.000Z</time>
      </trkpt>
      <trkpt lat="44.32006" lon="4.66823">
        <ele>48.49</ele>
        <time>2019-05-28T09:18:18.000Z</time>
      </trkpt>
      <trkpt lat="44.31979" lon="4.66847">
        <ele>49.06</ele>
        <time>2019-05-28T09:18:23.000Z</time>
      </trkpt>
      <trkpt lat="44.3195" lon="4.66868">
        <ele>48.31</ele>
        <time>2019-05-28T09:18:28.000Z</time>
      </trkpt>
      <trkpt lat="44.31922" lon="4.66888">
        <ele>47.51</ele>
        <time>2019-05-28T09:18:33.000Z</time>
      </trkpt>
      <trkpt lat="44.31892" lon="4.66911">
        <ele>48.25</ele>
        <time>2019-05-28T09:18:38.000Z</time>
      </trkpt>
      <trkpt lat="44.31859" lon="4.66913">
        <ele>46.31</ele>
        <time>2019-05-28T09:18:43.000Z</time>
      </trkpt>
      <trkpt lat="44.31834" lon="4.66924">
        <ele>48.29</ele>
        <time>2019-05-28T09:18:48.000Z</time>
      </trkpt>
      <trkpt lat="44.3182" lon="4.66961">
        <ele>48.31</ele>
        <time>2019-05-28T09:18:53.000Z</time>
      </trkpt>
      <trkpt lat="44.31809" lon="4.67004">
        <ele>49.07</ele>
        <time>2019-05-28T09:18:58.000Z</time>
      </trkpt>
      <trkpt lat="44.31798" lon="4.67043">
        <ele>49.31</ele>
        <time>2019-05-28T09:19:03.000Z</time>
      </trkpt>
      <trkpt lat="44.31788" lon="4.67081">
        <ele>48.31</ele>
        <time>2019-05-28T09:19:08.000Z</time>
      </trkpt>
      <trkpt lat="44.31776" lon="4.6712">
        <ele>48.06</ele>
        <time>2019-05-28T09:19:13.000Z</time>
      </trkpt>
      <trkpt lat="44.31764" lon="4.67161">
        <ele>47.31</ele>
        <time>2019-05-28T09:19:18.000Z</time>
      </trkpt>
      <trkpt lat="44.31752" lon="4.67202">
        <ele>46.37</ele>
        <time>2019-05-28T09:19:23.000Z</time>
      </trkpt>
      <trkpt lat="44.31742" lon="4.67242">
        <ele>45.37</ele>
        <time>2019-05-28T09:19:28.000Z</time>
      </trkpt>
      <trkpt lat="44.31733" lon="4.67284">
        <ele>46.31</ele>
        <time>2019-05-28T09:19:33.000Z</time>
      </trkpt>
      <trkpt lat="44.31722" lon="4.67323">
        <ele>47.25</ele>
        <time>2019-05-28T09:19:38.000Z</time>
      </trkpt>
      <trkpt lat="44.31711" lon="4.67366">
        <ele>47.25</ele>
        <time>2019-05-28T09:19:43.000Z</time>
      </trkpt>
      <trkpt lat="44.31699" lon="4.67411">
        <ele>47.31</ele>
        <time>2019-05-28T09:19:48.000Z</time>
      </trkpt>
      <trkpt lat="44.31686" lon="4.67453">
        <ele>46.31</ele>
        <time>2019-05-28T09:19:53.000Z</time>
      </trkpt>
      <trkpt lat="44.3166" lon="4.67482">
        <ele>46.31</ele>
        <time>2019-05-28T09:19:58.000Z</time>
      </trkpt>
      <trkpt lat="44.3163" lon="4.67508">
        <ele>46.37</ele>
        <time>2019-05-28T09:20:03.000Z</time>
      </trkpt>
      <trkpt lat="44.31601" lon="4.67531">
        <ele>47.31</ele>
        <time>2019-05-28T09:20:08.000Z</time>
      </trkpt>
      <trkpt lat="44.3157" lon="4.67557">
        <ele>48.25</ele>
        <time>2019-05-28T09:20:13.000Z</time>
      </trkpt>
      <trkpt lat="44.31541" lon="4.67581">
        <ele>49.02</ele>
        <time>2019-05-28T09:20:18.000Z</time>
      </trkpt>
      <trkpt lat="44.31509" lon="4.67603">
        <ele>48.33</ele>
        <time>2019-05-28T09:20:23.000Z</time>
      </trkpt>
      <trkpt lat="44.31482" lon="4.67626">
        <ele>48.32</ele>
        <time>2019-05-28T09:20:28.000Z</time>
      </trkpt>
      <trkpt lat="44.31454" lon="4.67649">
        <ele>46.63</ele>
        <time>2019-05-28T09:20:33.000Z</time>
      </trkpt>
      <trkpt lat="44.31424" lon="4.67672">
        <ele>46.26</ele>
        <time>2019-05-28T09:20:38.000Z</time>
      </trkpt>
      <trkpt lat="44.31396" lon="4.67698">
        <ele>48.08</ele>
        <time>2019-05-28T09:20:43.000Z</time>
      </trkpt>
      <trkpt lat="44.31365" lon="4.6772">
        <ele>47.81</ele>
        <time>2019-05-28T09:20:48.000Z</time>
      </trkpt>
      <trkpt lat="44.31338" lon="4.67746">
        <ele>46.57</ele>
        <time>2019-05-28T09:20:53.000Z</time>
      </trkpt>
      <trkpt lat="44.3131" lon="4.67767">
        <ele>47.3</ele>
        <time>2019-05-28T09:20:58.000Z</time>
      </trkpt>
      <trkpt lat="44.31282" lon="4.67788">
        <ele>45.4</ele>
        <time>2019-05-28T09:21:03.000Z</time>
      </trkpt>
      <trkpt lat="44.31253" lon="4.67809">
        <ele>44.51</ele>
        <time>2019-05-28T09:21:08.000Z</time>
      </trkpt>
      <trkpt lat="44.31225" lon="4.67833">
        <ele>45.3</ele>
        <time>2019-05-28T09:21:13.000Z</time>
      </trkpt>
      <trkpt lat="44.31196" lon="4.67858">
        <ele>46.32</ele>
        <time>2019-05-28T09:21:18.000Z</time>
      </trkpt>
      <trkpt lat="44.31168" lon="4.67882">
        <ele>46.32</ele>
        <time>2019-05-28T09:21:23.000Z</time>
      </trkpt>
      <trkpt lat="44.31139" lon="4.67904">
        <ele>46.32</ele>
        <time>2019-05-28T09:21:28.000Z</time>
      </trkpt>
      <trkpt lat="44.3111" lon="4.67928">
        <ele>46.32</ele>
        <time>2019-05-28T09:21:33.000Z</time>
      </trkpt>
      <trkpt lat="44.31081" lon="4.67954">
        <ele>47.27</ele>
        <time>2019-05-28T09:21:38.000Z</time>
      </trkpt>
      <trkpt lat="44.31053" lon="4.67976">
        <ele>46.34</ele>
        <time>2019-05-28T09:21:43.000Z</time>
      </trkpt>
      <trkpt lat="44.31022" lon="4.68">
        <ele>46.32</ele>
        <time>2019-05-28T09:21:48.000Z</time>
      </trkpt>
      <trkpt lat="44.3099" lon="4.68025">
        <ele>46.32</ele>
        <time>2019-05-28T09:21:53.000Z</time>
      </trkpt>
      <trkpt lat="44.30959" lon="4.68052">
        <ele>46.33</ele>
        <time>2019-05-28T09:21:58.000Z</time>
      </trkpt>
      <trkpt lat="44.30931" lon="4.68082">
        <ele>47.26</ele>
        <time>2019-05-28T09:22:03.000Z</time>
      </trkpt>
      <trkpt lat="44.30906" lon="4.68114">
        <ele>47.33</ele>
        <time>2019-05-28T09:22:08.000Z</time>
      </trkpt>
      <trkpt lat="44.30882" lon="4.68149">
        <ele>48.32</ele>
        <time>2019-05-28T09:22:13.000Z</time>
      </trkpt>
      <trkpt lat="44.30857" lon="4.68177">
        <ele>47.58</ele>
        <time>2019-05-28T09:22:18.000Z</time>
      </trkpt>
      <trkpt lat="44.30829" lon="4.68205">
        <ele>46.58</ele>
        <time>2019-05-28T09:22:23.000Z</time>
      </trkpt>
      <trkpt lat="44.30798" lon="4.68229">
        <ele>46.33</ele>
        <time>2019-05-28T09:22:28.000Z</time>
      </trkpt>
      <trkpt lat="44.30765" lon="4.68244">
        <ele>44.58</ele>
        <time>2019-05-28T09:22:33.000Z</time>
      </trkpt>
      <trkpt lat="44.30733" lon="4.68264">
        <ele>43.58</ele>
        <time>2019-05-28T09:22:38.000Z</time>
      </trkpt>
      <trkpt lat="44.30709" lon="4.68298">
        <ele>45.31</ele>
        <time>2019-05-28T09:22:43.000Z</time>
      </trkpt>
      <trkpt lat="44.30696" lon="4.68323">
        <ele>44.34</ele>
        <time>2019-05-28T09:22:48.000Z</time>
      </trkpt>
      <trkpt lat="44.30686" lon="4.68314">
        <ele>44.56</ele>
        <time>2019-05-28T09:22:53.000Z</time>
      </trkpt>
      <trkpt lat="44.30679" lon="4.68295">
        <ele>46.32</ele>
        <time>2019-05-28T09:22:58.000Z</time>
      </trkpt>
      <trkpt lat="44.30668" lon="4.68275">
        <ele>47.14</ele>
        <time>2019-05-28T09:23:03.000Z</time>
      </trkpt>
      <trkpt lat="44.30652" lon="4.68258">
        <ele>45.33</ele>
        <time>2019-05-28T09:23:08.000Z</time>
      </trkpt>
      <trkpt lat="44.30631" lon="4.68249">
        <ele>45.33</ele>
        <time>2019-05-28T09:23:13.000Z</time>
      </trkpt>
      <trkpt lat="44.30612" lon="4.68244">
        <ele>46.33</ele>
        <time>2019-05-28T09:23:18.000Z</time>
      </trkpt>
      <trkpt lat="44.30589" lon="4.68234">
        <ele>44.53</ele>
        <time>2019-05-28T09:23:23.000Z</time>
      </trkpt>
      <trkpt lat="44.30567" lon="4.68224">
        <ele>45.33</ele>
        <time>2019-05-28T09:23:28.000Z</time>
      </trkpt>
      <trkpt lat="44.30543" lon="4.68216">
        <ele>46.27</ele>
        <time>2019-05-28T09:23:33.000Z</time>
      </trkpt>
      <trkpt lat="44.3052" lon="4.68205">
        <ele>46.33</ele>
        <time>2019-05-28T09:23:38.000Z</time>
      </trkpt>
      <trkpt lat="44.30494" lon="4.68197">
        <ele>46.33</ele>
        <time>2019-05-28T09:23:43.000Z</time>
      </trkpt>
      <trkpt lat="44.30466" lon="4.68194">
        <ele>48.08</ele>
        <time>2019-05-28T09:23:48.000Z</time>
      </trkpt>
      <trkpt lat="44.30438" lon="4.68193">
        <ele>47.34</ele>
        <time>2019-05-28T09:23:53.000Z</time>
      </trkpt>
      <trkpt lat="44.30409" lon="4.68196">
        <ele>48.33</ele>
        <time>2019-05-28T09:23:58.000Z</time>
      </trkpt>
      <trkpt lat="44.3038" lon="4.68201">
        <ele>48.13</ele>
        <time>2019-05-28T09:24:03.000Z</time>
      </trkpt>
      <trkpt lat="44.3035" lon="4.68207">
        <ele>48.33</ele>
        <time>2019-05-28T09:24:08.000Z</time>
      </trkpt>
      <trkpt lat="44.30319" lon="4.68216">
        <ele>48.32</ele>
        <time>2019-05-28T09:24:13.000Z</time>
      </trkpt>
      <trkpt lat="44.30289" lon="4.68227">
        <ele>49.07</ele>
        <time>2019-05-28T09:24:18.000Z</time>
      </trkpt>
      <trkpt lat="44.30256" lon="4.68232">
        <ele>47.35</ele>
        <time>2019-05-28T09:24:23.000Z</time>
      </trkpt>
      <trkpt lat="44.30223" lon="4.6823">
        <ele>45.35</ele>
        <time>2019-05-28T09:24:28.000Z</time>
      </trkpt>
      <trkpt lat="44.30191" lon="4.68224">
        <ele>44.35</ele>
        <time>2019-05-28T09:24:33.000Z</time>
      </trkpt>
      <trkpt lat="44.30158" lon="4.68223">
        <ele>44.52</ele>
        <time>2019-05-28T09:24:38.000Z</time>
      </trkpt>
      <trkpt lat="44.30124" lon="4.68228">
        <ele>44.58</ele>
        <time>2019-05-28T09:24:43.000Z</time>
      </trkpt>
      <trkpt lat="44.3009" lon="4.68238">
        <ele>46.08</ele>
        <time>2019-05-28T09:24:48.000Z</time>
      </trkpt>
      <trkpt lat="44.30059" lon="4.68253">
        <ele>47.07</ele>
        <time>2019-05-28T09:24:53.000Z</time>
      </trkpt>
      <trkpt lat="44.3003" lon="4.68269">
        <ele>48.32</ele>
        <time>2019-05-28T09:24:58.000Z</time>
      </trkpt>
      <trkpt lat="44.29997" lon="4.68284">
        <ele>47.35</ele>
        <time>2019-05-28T09:25:03.000Z</time>
      </trkpt>
      <trkpt lat="44.29965" lon="4.68287">
        <ele>44.61</ele>
        <time>2019-05-28T09:25:08.000Z</time>
      </trkpt>
      <trkpt lat="44.29934" lon="4.68273">
        <ele>43.58</ele>
        <time>2019-05-28T09:25:13.000Z</time>
      </trkpt>
      <trkpt lat="44.29906" lon="4.68257">
        <ele>43.35</ele>
        <time>2019-05-28T09:25:18.000Z</time>
      </trkpt>
      <trkpt lat="44.29879" lon="4.68235">
        <ele>44.14</ele>
        <time>2019-05-28T09:25:23.000Z</time>
      </trkpt>
      <trkpt lat="44.29852" lon="4.68211">
        <ele>44.4</ele>
        <time>2019-05-28T09:25:28.000Z</time>
      </trkpt>
      <trkpt lat="44.29824" lon="4.68191">
        <ele>44.34</ele>
        <time>2019-05-28T09:25:33.000Z</time>
      </trkpt>
      <trkpt lat="44.29798" lon="4.68172">
        <ele>43.59</ele>
        <time>2019-05-28T09:25:38.000Z</time>
      </trkpt>
      <trkpt lat="44.2977" lon="4.68153">
        <ele>42.34</ele>
        <time>2019-05-28T09:25:43.000Z</time>
      </trkpt>
      <trkpt lat="44.29741" lon="4.68134">
        <ele>43.28</ele>
        <time>2019-05-28T09:25:48.000Z</time>
      </trkpt>
      <trkpt lat="44.29715" lon="4.68112">
        <ele>43.59</ele>
        <time>2019-05-28T09:25:53.000Z</time>
      </trkpt>
      <trkpt lat="44.29691" lon="4.68085">
        <ele>42.59</ele>
        <time>2019-05-28T09:25:58.000Z</time>
      </trkpt>
      <trkpt lat="44.29669" lon="4.68058">
        <ele>44.08</ele>
        <time>2019-05-28T09:26:03.000Z</time>
      </trkpt>
      <trkpt lat="44.29647" lon="4.68025">
        <ele>45.35</ele>
        <time>2019-05-28T09:26:08.000Z</time>
      </trkpt>
      <trkpt lat="44.29628" lon="4.67994">
        <ele>45.34</ele>
        <time>2019-05-28T09:26:13.000Z</time>
      </trkpt>
      <trkpt lat="44.29608" lon="4.67961">
        <ele>47.09</ele>
        <time>2019-05-28T09:26:18.000Z</time>
      </trkpt>
      <trkpt lat="44.29592" lon="4.67926">
        <ele>46.1</ele>
        <time>2019-05-28T09:26:23.000Z</time>
      </trkpt>
      <trkpt lat="44.29591" lon="4.67885">
        <ele>46.4</ele>
        <time>2019-05-28T09:26:28.000Z</time>
      </trkpt>
      <trkpt lat="44.29591" lon="4.67845">
        <ele>45.35</ele>
        <time>2019-05-28T09:26:33.000Z</time>
      </trkpt>
      <trkpt lat="44.29586" lon="4.67806">
        <ele>46.28</ele>
        <time>2019-05-28T09:26:38.000Z</time>
      </trkpt>
      <trkpt lat="44.29587" lon="4.67767">
        <ele>46.34</ele>
        <time>2019-05-28T09:26:43.000Z</time>
      </trkpt>
      <trkpt lat="44.2959" lon="4.67728">
        <ele>45.34</ele>
        <time>2019-05-28T09:26:48.000Z</time>
      </trkpt>
      <trkpt lat="44.29595" lon="4.67691">
        <ele>44.4</ele>
        <time>2019-05-28T09:26:53.000Z</time>
      </trkpt>
      <trkpt lat="44.29597" lon="4.67654">
        <ele>44.35</ele>
        <time>2019-05-28T09:26:58.000Z</time>
      </trkpt>
      <trkpt lat="44.29599" lon="4.67619">
        <ele>44.34</ele>
        <time>2019-05-28T09:27:03.000Z</time>
      </trkpt>
      <trkpt lat="44.29597" lon="4.67585">
        <ele>44.34</ele>
        <time>2019-05-28T09:27:08.000Z</time>
      </trkpt>
      <trkpt lat="44.29591" lon="4.6755">
        <ele>45.34</ele>
        <time>2019-05-28T09:27:13.000Z</time>
      </trkpt>
      <trkpt lat="44.29585" lon="4.67517">
        <ele>45.34</ele>
        <time>2019-05-28T09:27:18.000Z</time>
      </trkpt>
      <trkpt lat="44.2957" lon="4.6749">
        <ele>44.36</ele>
        <time>2019-05-28T09:27:23.000Z</time>
      </trkpt>
      <trkpt lat="44.29544" lon="4.67486">
        <ele>43.59</ele>
        <time>2019-05-28T09:27:28.000Z</time>
      </trkpt>
      <trkpt lat="44.29516" lon="4.67487">
        <ele>45.09</ele>
        <time>2019-05-28T09:27:33.000Z</time>
      </trkpt>
      <trkpt lat="44.29484" lon="4.67489">
        <ele>44.34</ele>
        <time>2019-05-28T09:27:38.000Z</time>
      </trkpt>
      <trkpt lat="44.29449" lon="4.67488">
        <ele>42.65</ele>
        <time>2019-05-28T09:27:43.000Z</time>
      </trkpt>
      <trkpt lat="44.29415" lon="4.67481">
        <ele>43.09</ele>
        <time>2019-05-28T09:27:48.000Z</time>
      </trkpt>
      <trkpt lat="44.29384" lon="4.67465">
        <ele>43.34</ele>
        <time>2019-05-28T09:27:53.000Z</time>
      </trkpt>
      <trkpt lat="44.29353" lon="4.67451">
        <ele>44.34</ele>
        <time>2019-05-28T09:27:58.000Z</time>
      </trkpt>
      <trkpt lat="44.29321" lon="4.67439">
        <ele>43.59</ele>
        <time>2019-05-28T09:28:03.000Z</time>
      </trkpt>
      <trkpt lat="44.29288" lon="4.67428">
        <ele>43.53</ele>
        <time>2019-05-28T09:28:08.000Z</time>
      </trkpt>
      <trkpt lat="44.29255" lon="4.6742">
        <ele>43.35</ele>
        <time>2019-05-28T09:28:13.000Z</time>
      </trkpt>
      <trkpt lat="44.2922" lon="4.67413">
        <ele>42.37</ele>
        <time>2019-05-28T09:28:18.000Z</time>
      </trkpt>
      <trkpt lat="44.29186" lon="4.67402">
        <ele>40.42</ele>
        <time>2019-05-28T09:28:23.000Z</time>
      </trkpt>
      <trkpt lat="44.29152" lon="4.67394">
        <ele>42.33</ele>
        <time>2019-05-28T09:28:28.000Z</time>
      </trkpt>
      <trkpt lat="44.29118" lon="4.67382">
        <ele>43.28</ele>
        <time>2019-05-28T09:28:33.000Z</time>
      </trkpt>
      <trkpt lat="44.29082" lon="4.6737">
        <ele>41.6</ele>
        <time>2019-05-28T09:28:38.000Z</time>
      </trkpt>
      <trkpt lat="44.29047" lon="4.67359">
        <ele>42.3</ele>
        <time>2019-05-28T09:28:43.000Z</time>
      </trkpt>
      <trkpt lat="44.2901" lon="4.67348">
        <ele>43.09</ele>
        <time>2019-05-28T09:28:48.000Z</time>
      </trkpt>
      <trkpt lat="44.28974" lon="4.6734">
        <ele>43.29</ele>
        <time>2019-05-28T09:28:53.000Z</time>
      </trkpt>
      <trkpt lat="44.28935" lon="4.67335">
        <ele>42.41</ele>
        <time>2019-05-28T09:28:58.000Z</time>
      </trkpt>
      <trkpt lat="44.28896" lon="4.6733">
        <ele>42.1</ele>
        <time>2019-05-28T09:29:03.000Z</time>
      </trkpt>
      <trkpt lat="44.28857" lon="4.67322">
        <ele>42.35</ele>
        <time>2019-05-28T09:29:08.000Z</time>
      </trkpt>
      <trkpt lat="44.28819" lon="4.67314">
        <ele>43.33</ele>
        <time>2019-05-28T09:29:13.000Z</time>
      </trkpt>
      <trkpt lat="44.28781" lon="4.67305">
        <ele>42.16</ele>
        <time>2019-05-28T09:29:18.000Z</time>
      </trkpt>
      <trkpt lat="44.28746" lon="4.67302">
        <ele>43.1</ele>
        <time>2019-05-28T09:29:23.000Z</time>
      </trkpt>
      <trkpt lat="44.28709" lon="4.67297">
        <ele>45.04</ele>
        <time>2019-05-28T09:29:28.000Z</time>
      </trkpt>
      <trkpt lat="44.28675" lon="4.67292">
        <ele>45.29</ele>
        <time>2019-05-28T09:29:33.000Z</time>
      </trkpt>
      <trkpt lat="44.28642" lon="4.67287">
        <ele>45.35</ele>
        <time>2019-05-28T09:29:38.000Z</time>
      </trkpt>
      <trkpt lat="44.28608" lon="4.67284">
        <ele>43.61</ele>
        <time>2019-05-28T09:29:43.000Z</time>
      </trkpt>
      <trkpt lat="44.28592" lon="4.67255">
        <ele>43.35</ele>
        <time>2019-05-28T09:29:48.000Z</time>
      </trkpt>
      <trkpt lat="44.28582" lon="4.67216">
        <ele>42.41</ele>
        <time>2019-05-28T09:29:53.000Z</time>
      </trkpt>
      <trkpt lat="44.28569" lon="4.67175">
        <ele>42.35</ele>
        <time>2019-05-28T09:29:58.000Z</time>
      </trkpt>
      <trkpt lat="44.28545" lon="4.67158">
        <ele>41.36</ele>
        <time>2019-05-28T09:30:03.000Z</time>
      </trkpt>
      <trkpt lat="44.28512" lon="4.67168">
        <ele>43.09</ele>
        <time>2019-05-28T09:30:08.000Z</time>
      </trkpt>
      <trkpt lat="44.28481" lon="4.67174">
        <ele>41.42</ele>
        <time>2019-05-28T09:30:13.000Z</time>
      </trkpt>
      <trkpt lat="44.28449" lon="4.67174">
        <ele>42.1</ele>
        <time>2019-05-28T09:30:18.000Z</time>
      </trkpt>
      <trkpt lat="44.28415" lon="4.67171">
        <ele>42.1</ele>
        <time>2019-05-28T09:30:23.000Z</time>
      </trkpt>
      <trkpt lat="44.28383" lon="4.67173">
        <ele>41.6</ele>
        <time>2019-05-28T09:30:28.000Z</time>
      </trkpt>
      <trkpt lat="44.28349" lon="4.67168">
        <ele>41.59</ele>
        <time>2019-05-28T09:30:33.000Z</time>
      </trkpt>
      <trkpt lat="44.28323" lon="4.67138">
        <ele>43.3</ele>
        <time>2019-05-28T09:30:38.000Z</time>
      </trkpt>
      <trkpt lat="44.28294" lon="4.6715">
        <ele>44.3</ele>
        <time>2019-05-28T09:30:43.000Z</time>
      </trkpt>
      <trkpt lat="44.28267" lon="4.67175">
        <ele>43.17</ele>
        <time>2019-05-28T09:30:48.000Z</time>
      </trkpt>
      <trkpt lat="44.28239" lon="4.67201">
        <ele>43.36</ele>
        <time>2019-05-28T09:30:53.000Z</time>
      </trkpt>
      <trkpt lat="44.28213" lon="4.67223">
        <ele>43.36</ele>
        <time>2019-05-28T09:30:58.000Z</time>
      </trkpt>
      <trkpt lat="44.28184" lon="4.67235">
        <ele>43.36</ele>
        <time>2019-05-28T09:31:03.000Z</time>
      </trkpt>
      <trkpt lat="44.28158" lon="4.67212">
        <ele>43.54</ele>
        <time>2019-05-28T09:31:08.000Z</time>
      </trkpt>
      <trkpt lat="44.28132" lon="4.67186">
        <ele>43.55</ele>
        <time>2019-05-28T09:31:13.000Z</time>
      </trkpt>
      <trkpt lat="44.2812" lon="4.67172">
        <ele>43.36</ele>
        <time>2019-05-28T09:31:18.000Z</time>
      </trkpt>
      <trkpt lat="44.2811" lon="4.67172">
        <ele>42.36</ele>
        <time>2019-05-28T09:31:39.000Z</time>
      </trkpt>
      <trkpt lat="44.28095" lon="4.67165">
        <ele>42.36</ele>
        <time>2019-05-28T09:31:44.000Z</time>
      </trkpt>
      <trkpt lat="44.28074" lon="4.67159">
        <ele>43.11</ele>
        <time>2019-05-28T09:31:49.000Z</time>
      </trkpt>
      <trkpt lat="44.28048" lon="4.67153">
        <ele>43.36</ele>
        <time>2019-05-28T09:31:54.000Z</time>
      </trkpt>
      <trkpt lat="44.2802" lon="4.67147">
        <ele>44.36</ele>
        <time>2019-05-28T09:31:59.000Z</time>
      </trkpt>
      <trkpt lat="44.27989" lon="4.67138">
        <ele>43.36</ele>
        <time>2019-05-28T09:32:04.000Z</time>
      </trkpt>
      <trkpt lat="44.27959" lon="4.67129">
        <ele>43.36</ele>
        <time>2019-05-28T09:32:09.000Z</time>
      </trkpt>
      <trkpt lat="44.2793" lon="4.67119">
        <ele>44.36</ele>
        <time>2019-05-28T09:32:14.000Z</time>
      </trkpt>
      <trkpt lat="44.27904" lon="4.67105">
        <ele>45.3</ele>
        <time>2019-05-28T09:32:19.000Z</time>
      </trkpt>
      <trkpt lat="44.27881" lon="4.67089">
        <ele>44.37</ele>
        <time>2019-05-28T09:32:24.000Z</time>
      </trkpt>
      <trkpt lat="44.27856" lon="4.67072">
        <ele>44.35</ele>
        <time>2019-05-28T09:32:29.000Z</time>
      </trkpt>
      <trkpt lat="44.2783" lon="4.67057">
        <ele>44.35</ele>
        <time>2019-05-28T09:32:34.000Z</time>
      </trkpt>
      <trkpt lat="44.27802" lon="4.67042">
        <ele>43.36</ele>
        <time>2019-05-28T09:32:39.000Z</time>
      </trkpt>
      <trkpt lat="44.27775" lon="4.67032">
        <ele>45.35</ele>
        <time>2019-05-28T09:32:44.000Z</time>
      </trkpt>
      <trkpt lat="44.27746" lon="4.67019">
        <ele>45.36</ele>
        <time>2019-05-28T09:32:49.000Z</time>
      </trkpt>
      <trkpt lat="44.27718" lon="4.67006">
        <ele>44.38</ele>
        <time>2019-05-28T09:32:54.000Z</time>
      </trkpt>
      <trkpt lat="44.27695" lon="4.66983">
        <ele>45.36</ele>
        <time>2019-05-28T09:32:59.000Z</time>
      </trkpt>
      <trkpt lat="44.27675" lon="4.66952">
        <ele>45.36</ele>
        <time>2019-05-28T09:33:04.000Z</time>
      </trkpt>
      <trkpt lat="44.27654" lon="4.66922">
        <ele>44.36</ele>
        <time>2019-05-28T09:33:09.000Z</time>
      </trkpt>
      <trkpt lat="44.27633" lon="4.66891">
        <ele>43.37</ele>
        <time>2019-05-28T09:33:14.000Z</time>
      </trkpt>
      <trkpt lat="44.27613" lon="4.66863">
        <ele>43.35</ele>
        <time>2019-05-28T09:33:19.000Z</time>
      </trkpt>
      <trkpt lat="44.27593" lon="4.66835">
        <ele>44.12</ele>
        <time>2019-05-28T09:33:24.000Z</time>
      </trkpt>
      <trkpt lat="44.27572" lon="4.66809">
        <ele>43.36</ele>
        <time>2019-05-28T09:33:29.000Z</time>
      </trkpt>
      <trkpt lat="44.2755" lon="4.66785">
        <ele>43.41</ele>
        <time>2019-05-28T09:33:34.000Z</time>
      </trkpt>
      <trkpt lat="44.27527" lon="4.66763">
        <ele>43.13</ele>
        <time>2019-05-28T09:33:39.000Z</time>
      </trkpt>
      <trkpt lat="44.27505" lon="4.6674">
        <ele>42.61</ele>
        <time>2019-05-28T09:33:44.000Z</time>
      </trkpt>
      <trkpt lat="44.27482" lon="4.66716">
        <ele>42.41</ele>
        <time>2019-05-28T09:33:49.000Z</time>
      </trkpt>
      <trkpt lat="44.27459" lon="4.66694">
        <ele>42.36</ele>
        <time>2019-05-28T09:33:54.000Z</time>
      </trkpt>
      <trkpt lat="44.27437" lon="4.66673">
        <ele>42.35</ele>
        <time>2019-05-28T09:33:59.000Z</time>
      </trkpt>
      <trkpt lat="44.27414" lon="4.66654">
        <ele>44.11</ele>
        <time>2019-05-28T09:34:04.000Z</time>
      </trkpt>
      <trkpt lat="44.27388" lon="4.6664">
        <ele>43.62</ele>
        <time>2019-05-28T09:34:09.000Z</time>
      </trkpt>
      <trkpt lat="44.27358" lon="4.66639">
        <ele>43.37</ele>
        <time>2019-05-28T09:34:14.000Z</time>
      </trkpt>
      <trkpt lat="44.27328" lon="4.66638">
        <ele>42.37</ele>
        <time>2019-05-28T09:34:19.000Z</time>
      </trkpt>
      <trkpt lat="44.27296" lon="4.66642">
        <ele>43.35</ele>
        <time>2019-05-28T09:34:24.000Z</time>
      </trkpt>
      <trkpt lat="44.27264" lon="4.66654">
        <ele>43.37</ele>
        <time>2019-05-28T09:34:29.000Z</time>
      </trkpt>
      <trkpt lat="44.27232" lon="4.66668">
        <ele>42.43</ele>
        <time>2019-05-28T09:34:34.000Z</time>
      </trkpt>
      <trkpt lat="44.27199" lon="4.66669">
        <ele>42.31</ele>
        <time>2019-05-28T09:34:39.000Z</time>
      </trkpt>
      <trkpt lat="44.27165" lon="4.6666">
        <ele>42.13</ele>
        <time>2019-05-28T09:34:44.000Z</time>
      </trkpt>
      <trkpt lat="44.27132" lon="4.66651">
        <ele>42.31</ele>
        <time>2019-05-28T09:34:49.000Z</time>
      </trkpt>
      <trkpt lat="44.271" lon="4.66641">
        <ele>42.37</ele>
        <time>2019-05-28T09:34:54.000Z</time>
      </trkpt>
      <trkpt lat="44.27067" lon="4.66633">
        <ele>42.12</ele>
        <time>2019-05-28T09:34:59.000Z</time>
      </trkpt>
      <trkpt lat="44.27034" lon="4.66641">
        <ele>43.31</ele>
        <time>2019-05-28T09:35:04.000Z</time>
      </trkpt>
      <trkpt lat="44.27005" lon="4.66665">
        <ele>43.37</ele>
        <time>2019-05-28T09:35:09.000Z</time>
      </trkpt>
      <trkpt lat="44.26982" lon="4.66651">
        <ele>43.12</ele>
        <time>2019-05-28T09:35:14.000Z</time>
      </trkpt>
      <trkpt lat="44.26964" lon="4.66634">
        <ele>44.37</ele>
        <time>2019-05-28T09:35:19.000Z</time>
      </trkpt>
      <trkpt lat="44.26949" lon="4.66609">
        <ele>44.19</ele>
        <time>2019-05-28T09:35:24.000Z</time>
      </trkpt>
      <trkpt lat="44.26928" lon="4.66579">
        <ele>41.7</ele>
        <time>2019-05-28T09:35:29.000Z</time>
      </trkpt>
      <trkpt lat="44.26905" lon="4.66545">
        <ele>42.37</ele>
        <time>2019-05-28T09:35:34.000Z</time>
      </trkpt>
      <trkpt lat="44.26881" lon="4.66517">
        <ele>42.37</ele>
        <time>2019-05-28T09:35:39.000Z</time>
      </trkpt>
      <trkpt lat="44.26853" lon="4.66495">
        <ele>41.37</ele>
        <time>2019-05-28T09:35:44.000Z</time>
      </trkpt>
      <trkpt lat="44.26824" lon="4.66478">
        <ele>42.37</ele>
        <time>2019-05-28T09:35:49.000Z</time>
      </trkpt>
      <trkpt lat="44.26795" lon="4.66458">
        <ele>41.62</ele>
        <time>2019-05-28T09:35:54.000Z</time>
      </trkpt>
      <trkpt lat="44.26768" lon="4.66437">
        <ele>41.37</ele>
        <time>2019-05-28T09:35:59.000Z</time>
      </trkpt>
      <trkpt lat="44.26743" lon="4.66415">
        <ele>41.37</ele>
        <time>2019-05-28T09:36:04.000Z</time>
      </trkpt>
      <trkpt lat="44.26714" lon="4.66404">
        <ele>40.44</ele>
        <time>2019-05-28T09:36:09.000Z</time>
      </trkpt>
      <trkpt lat="44.26682" lon="4.66401">
        <ele>41.37</ele>
        <time>2019-05-28T09:36:14.000Z</time>
      </trkpt>
      <trkpt lat="44.26651" lon="4.66402">
        <ele>42.37</ele>
        <time>2019-05-28T09:36:19.000Z</time>
      </trkpt>
      <trkpt lat="44.26621" lon="4.66406">
        <ele>41.44</ele>
        <time>2019-05-28T09:36:24.000Z</time>
      </trkpt>
      <trkpt lat="44.2659" lon="4.66409">
        <ele>41.38</ele>
        <time>2019-05-28T09:36:29.000Z</time>
      </trkpt>
      <trkpt lat="44.26559" lon="4.66413">
        <ele>40.38</ele>
        <time>2019-05-28T09:36:34.000Z</time>
      </trkpt>
      <trkpt lat="44.26527" lon="4.66414">
        <ele>40.61</ele>
        <time>2019-05-28T09:36:39.000Z</time>
      </trkpt>
      <trkpt lat="44.26495" lon="4.66417">
        <ele>42.13</ele>
        <time>2019-05-28T09:36:44.000Z</time>
      </trkpt>
      <trkpt lat="44.26462" lon="4.66417">
        <ele>41.39</ele>
        <time>2019-05-28T09:36:49.000Z</time>
      </trkpt>
      <trkpt lat="44.2643" lon="4.66417">
        <ele>41.38</ele>
        <time>2019-05-28T09:36:54.000Z</time>
      </trkpt>
      <trkpt lat="44.26398" lon="4.6642">
        <ele>41.39</ele>
        <time>2019-05-28T09:36:59.000Z</time>
      </trkpt>
      <trkpt lat="44.26367" lon="4.66427">
        <ele>41.44</ele>
        <time>2019-05-28T09:37:04.000Z</time>
      </trkpt>
      <trkpt lat="44.26339" lon="4.66436">
        <ele>39.46</ele>
        <time>2019-05-28T09:37:09.000Z</time>
      </trkpt>
      <trkpt lat="44.26311" lon="4.6642">
        <ele>41.36</ele>
        <time>2019-05-28T09:37:14.000Z</time>
      </trkpt>
      <trkpt lat="44.26283" lon="4.66403">
        <ele>41.38</ele>
        <time>2019-05-28T09:37:19.000Z</time>
      </trkpt>
      <trkpt lat="44.26255" lon="4.66384">
        <ele>40.44</ele>
        <time>2019-05-28T09:37:24.000Z</time>
      </trkpt>
      <trkpt lat="44.26229" lon="4.66361">
        <ele>41.38</ele>
        <time>2019-05-28T09:37:29.000Z</time>
      </trkpt>
      <trkpt lat="44.26207" lon="4.66333">
        <ele>41.44</ele>
        <time>2019-05-28T09:37:34.000Z</time>
      </trkpt>
      <trkpt lat="44.26188" lon="4.66303">
        <ele>42.32</ele>
        <time>2019-05-28T09:37:39.000Z</time>
      </trkpt>
      <trkpt lat="44.26167" lon="4.66282">
        <ele>44.11</ele>
        <time>2019-05-28T09:37:44.000Z</time>
      </trkpt>
      <trkpt lat="44.26144" lon="4.66277">
        <ele>44.38</ele>
        <time>2019-05-28T09:37:49.000Z</time>
      </trkpt>
      <trkpt lat="44.26128" lon="4.66269">
        <ele>44.19</ele>
        <time>2019-05-28T09:37:54.000Z</time>
      </trkpt>
      <trkpt lat="44.26123" lon="4.66243">
        <ele>43.63</ele>
        <time>2019-05-28T09:37:59.000Z</time>
      </trkpt>
      <trkpt lat="44.26117" lon="4.66214">
        <ele>41.44</ele>
        <time>2019-05-28T09:38:04.000Z</time>
      </trkpt>
      <trkpt lat="44.26112" lon="4.66183">
        <ele>41.15</ele>
        <time>2019-05-28T09:38:09.000Z</time>
      </trkpt>
      <trkpt lat="44.26107" lon="4.66153">
        <ele>41.38</ele>
        <time>2019-05-28T09:38:14.000Z</time>
      </trkpt>
      <trkpt lat="44.26101" lon="4.66125">
        <ele>41.69</ele>
        <time>2019-05-28T09:38:19.000Z</time>
      </trkpt>
      <trkpt lat="44.26096" lon="4.66097">
        <ele>42.37</ele>
        <time>2019-05-28T09:38:24.000Z</time>
      </trkpt>
      <trkpt lat="44.26091" lon="4.66073">
        <ele>40.63</ele>
        <time>2019-05-28T09:38:29.000Z</time>
      </trkpt>
      <trkpt lat="44.26098" lon="4.66041">
        <ele>42.35</ele>
        <time>2019-05-28T09:38:34.000Z</time>
      </trkpt>
      <trkpt lat="44.261" lon="4.66004">
        <ele>41.38</ele>
        <time>2019-05-28T09:38:39.000Z</time>
      </trkpt>
      <trkpt lat="44.26098" lon="4.65976">
        <ele>44.06</ele>
        <time>2019-05-28T09:38:44.000Z</time>
      </trkpt>
      <trkpt lat="44.26101" lon="4.65957">
        <ele>45.39</ele>
        <time>2019-05-28T09:38:49.000Z</time>
      </trkpt>
      <trkpt lat="44.26104" lon="4.65931">
        <ele>45.38</ele>
        <time>2019-05-28T09:38:54.000Z</time>
      </trkpt>
      <trkpt lat="44.26076" lon="4.65943">
        <ele>43.44</ele>
        <time>2019-05-28T09:38:59.000Z</time>
      </trkpt>
      <trkpt lat="44.26052" lon="4.65957">
        <ele>42.87</ele>
        <time>2019-05-28T09:39:04.000Z</time>
      </trkpt>
      <trkpt lat="44.26028" lon="4.65972">
        <ele>42.4</ele>
        <time>2019-05-28T09:39:09.000Z</time>
      </trkpt>
      <trkpt lat="44.26001" lon="4.65974">
        <ele>42.38</ele>
        <time>2019-05-28T09:39:14.000Z</time>
      </trkpt>
      <trkpt lat="44.25972" lon="4.6598">
        <ele>43.37</ele>
        <time>2019-05-28T09:39:19.000Z</time>
      </trkpt>
      <trkpt lat="44.25949" lon="4.65983">
        <ele>44.13</ele>
        <time>2019-05-28T09:39:24.000Z</time>
      </trkpt>
      <trkpt lat="44.25925" lon="4.65966">
        <ele>45.43</ele>
        <time>2019-05-28T09:39:29.000Z</time>
      </trkpt>
      <trkpt lat="44.25903" lon="4.65949">
        <ele>45.38</ele>
        <time>2019-05-28T09:39:34.000Z</time>
      </trkpt>
      <trkpt lat="44.25875" lon="4.65957">
        <ele>48.05</ele>
        <time>2019-05-28T09:39:39.000Z</time>
      </trkpt>
      <trkpt lat="44.25845" lon="4.65963">
        <ele>46.45</ele>
        <time>2019-05-28T09:39:44.000Z</time>
      </trkpt>
      <trkpt lat="44.25814" lon="4.65967">
        <ele>45.39</ele>
        <time>2019-05-28T09:39:49.000Z</time>
      </trkpt>
      <trkpt lat="44.25788" lon="4.65987">
        <ele>44.58</ele>
        <time>2019-05-28T09:39:54.000Z</time>
      </trkpt>
      <trkpt lat="44.25766" lon="4.66017">
        <ele>43.45</ele>
        <time>2019-05-28T09:39:59.000Z</time>
      </trkpt>
      <trkpt lat="44.25742" lon="4.66046">
        <ele>42.37</ele>
        <time>2019-05-28T09:40:04.000Z</time>
      </trkpt>
      <trkpt lat="44.25717" lon="4.66067">
        <ele>40.59</ele>
        <time>2019-05-28T09:40:09.000Z</time>
      </trkpt>
      <trkpt lat="44.25689" lon="4.6608">
        <ele>40.39</ele>
        <time>2019-05-28T09:40:14.000Z</time>
      </trkpt>
      <trkpt lat="44.25658" lon="4.66088">
        <ele>40.62</ele>
        <time>2019-05-28T09:40:19.000Z</time>
      </trkpt>
      <trkpt lat="44.25626" lon="4.66097">
        <ele>40.39</ele>
        <time>2019-05-28T09:40:24.000Z</time>
      </trkpt>
      <trkpt lat="44.25593" lon="4.66095">
        <ele>39.45</ele>
        <time>2019-05-28T09:40:29.000Z</time>
      </trkpt>
      <trkpt lat="44.25564" lon="4.66078">
        <ele>41.32</ele>
        <time>2019-05-28T09:40:34.000Z</time>
      </trkpt>
      <trkpt lat="44.25547" lon="4.66086">
        <ele>43.13</ele>
        <time>2019-05-28T09:40:39.000Z</time>
      </trkpt>
      <trkpt lat="44.25551" lon="4.66117">
        <ele>42.39</ele>
        <time>2019-05-28T09:40:44.000Z</time>
      </trkpt>
      <trkpt lat="44.25558" lon="4.66151">
        <ele>41.39</ele>
        <time>2019-05-28T09:40:49.000Z</time>
      </trkpt>
      <trkpt lat="44.25564" lon="4.66189">
        <ele>41.39</ele>
        <time>2019-05-28T09:40:54.000Z</time>
      </trkpt>
      <trkpt lat="44.25569" lon="4.66214">
        <ele>43.31</ele>
        <time>2019-05-28T09:40:59.000Z</time>
      </trkpt>
      <trkpt lat="44.25572" lon="4.6623">
        <ele>43.22</ele>
        <time>2019-05-28T09:41:05.000Z</time>
      </trkpt>
      <trkpt lat="44.25577" lon="4.66264">
        <ele>42.45</ele>
        <time>2019-05-28T09:41:10.000Z</time>
      </trkpt>
      <trkpt lat="44.2558" lon="4.66305">
        <ele>40.65</ele>
        <time>2019-05-28T09:41:15.000Z</time>
      </trkpt>
      <trkpt lat="44.25583" lon="4.66345">
        <ele>40.39</ele>
        <time>2019-05-28T09:41:20.000Z</time>
      </trkpt>
      <trkpt lat="44.25587" lon="4.66381">
        <ele>42.37</ele>
        <time>2019-05-28T09:41:25.000Z</time>
      </trkpt>
      <trkpt lat="44.2559" lon="4.66415">
        <ele>41.39</ele>
        <time>2019-05-28T09:41:30.000Z</time>
      </trkpt>
      <trkpt lat="44.25592" lon="4.66447">
        <ele>40.44</ele>
        <time>2019-05-28T09:41:35.000Z</time>
      </trkpt>
      <trkpt lat="44.25589" lon="4.66464">
        <ele>39.4</ele>
        <time>2019-05-28T09:41:40.000Z</time>
      </trkpt>
      <trkpt lat="44.25573" lon="4.66471">
        <ele>39.37</ele>
        <time>2019-05-28T09:41:45.000Z</time>
      </trkpt>
      <trkpt lat="44.25554" lon="4.66479">
        <ele>39.39</ele>
        <time>2019-05-28T09:41:50.000Z</time>
      </trkpt>
      <trkpt lat="44.25532" lon="4.66489">
        <ele>38.58</ele>
        <time>2019-05-28T09:41:55.000Z</time>
      </trkpt>
      <trkpt lat="44.25509" lon="4.665">
        <ele>39.2</ele>
        <time>2019-05-28T09:42:00.000Z</time>
      </trkpt>
      <trkpt lat="44.25484" lon="4.66512">
        <ele>38.59</ele>
        <time>2019-05-28T09:42:05.000Z</time>
      </trkpt>
      <trkpt lat="44.25457" lon="4.66525">
        <ele>38.14</ele>
        <time>2019-05-28T09:42:10.000Z</time>
      </trkpt>
      <trkpt lat="44.25429" lon="4.6654">
        <ele>39.19</ele>
        <time>2019-05-28T09:42:15.000Z</time>
      </trkpt>
      <trkpt lat="44.25399" lon="4.66553">
        <ele>40.14</ele>
        <time>2019-05-28T09:42:20.000Z</time>
      </trkpt>
      <trkpt lat="44.25369" lon="4.66568">
        <ele>39.4</ele>
        <time>2019-05-28T09:42:25.000Z</time>
      </trkpt>
      <trkpt lat="44.25338" lon="4.66584">
        <ele>39.39</ele>
        <time>2019-05-28T09:42:30.000Z</time>
      </trkpt>
      <trkpt lat="44.25307" lon="4.666">
        <ele>39.38</ele>
        <time>2019-05-28T09:42:35.000Z</time>
      </trkpt>
      <trkpt lat="44.25274" lon="4.66617">
        <ele>39.36</ele>
        <time>2019-05-28T09:42:40.000Z</time>
      </trkpt>
      <trkpt lat="44.25242" lon="4.66633">
        <ele>39.57</ele>
        <time>2019-05-28T09:42:45.000Z</time>
      </trkpt>
      <trkpt lat="44.25212" lon="4.66657">
        <ele>40.63</ele>
        <time>2019-05-28T09:42:50.000Z</time>
      </trkpt>
      <trkpt lat="44.25196" lon="4.66697">
        <ele>42.33</ele>
        <time>2019-05-28T09:42:55.000Z</time>
      </trkpt>
      <trkpt lat="44.25182" lon="4.6674">
        <ele>42.39</ele>
        <time>2019-05-28T09:43:00.000Z</time>
      </trkpt>
      <trkpt lat="44.25168" lon="4.66783">
        <ele>42.39</ele>
        <time>2019-05-28T09:43:05.000Z</time>
      </trkpt>
      <trkpt lat="44.25154" lon="4.66826">
        <ele>43.33</ele>
        <time>2019-05-28T09:43:10.000Z</time>
      </trkpt>
      <trkpt lat="44.2514" lon="4.6687">
        <ele>43.4</ele>
        <time>2019-05-28T09:43:15.000Z</time>
      </trkpt>
      <trkpt lat="44.25128" lon="4.66914">
        <ele>43.4</ele>
        <time>2019-05-28T09:43:20.000Z</time>
      </trkpt>
      <trkpt lat="44.25115" lon="4.66957">
        <ele>43.4</ele>
        <time>2019-05-28T09:43:25.000Z</time>
      </trkpt>
      <trkpt lat="44.25101" lon="4.67">
        <ele>43.44</ele>
        <time>2019-05-28T09:43:30.000Z</time>
      </trkpt>
      <trkpt lat="44.25086" lon="4.67043">
        <ele>43.4</ele>
        <time>2019-05-28T09:43:35.000Z</time>
      </trkpt>
      <trkpt lat="44.25068" lon="4.67082">
        <ele>43.4</ele>
        <time>2019-05-28T09:43:40.000Z</time>
      </trkpt>
      <trkpt lat="44.25039" lon="4.67111">
        <ele>43.2</ele>
        <time>2019-05-28T09:43:45.000Z</time>
      </trkpt>
      <trkpt lat="44.25025" lon="4.67152">
        <ele>41.46</ele>
        <time>2019-05-28T09:43:50.000Z</time>
      </trkpt>
      <trkpt lat="44.25012" lon="4.67196">
        <ele>40.21</ele>
        <time>2019-05-28T09:43:55.000Z</time>
      </trkpt>
      <trkpt lat="44.24998" lon="4.67238">
        <ele>42.13</ele>
        <time>2019-05-28T09:44:00.000Z</time>
      </trkpt>
      <trkpt lat="44.24988" lon="4.6728">
        <ele>41.29</ele>
        <time>2019-05-28T09:44:05.000Z</time>
      </trkpt>
      <trkpt lat="44.24975" lon="4.67318">
        <ele>41.4</ele>
        <time>2019-05-28T09:44:10.000Z</time>
      </trkpt>
      <trkpt lat="44.24956" lon="4.6735">
        <ele>41.21</ele>
        <time>2019-05-28T09:44:15.000Z</time>
      </trkpt>
      <trkpt lat="44.24935" lon="4.67381">
        <ele>41.63</ele>
        <time>2019-05-28T09:44:20.000Z</time>
      </trkpt>
      <trkpt lat="44.24909" lon="4.67405">
        <ele>39.71</ele>
        <time>2019-05-28T09:44:25.000Z</time>
      </trkpt>
      <trkpt lat="44.24881" lon="4.67425">
        <ele>39.4</ele>
        <time>2019-05-28T09:44:30.000Z</time>
      </trkpt>
      <trkpt lat="44.2485" lon="4.6744">
        <ele>39.46</ele>
        <time>2019-05-28T09:44:35.000Z</time>
      </trkpt>
      <trkpt lat="44.2482" lon="4.67456">
        <ele>39.21</ele>
        <time>2019-05-28T09:44:40.000Z</time>
      </trkpt>
      <trkpt lat="44.24791" lon="4.67475">
        <ele>39.4</ele>
        <time>2019-05-28T09:44:45.000Z</time>
      </trkpt>
      <trkpt lat="44.24766" lon="4.67498">
        <ele>39.45</ele>
        <time>2019-05-28T09:44:50.000Z</time>
      </trkpt>
      <trkpt lat="44.24739" lon="4.67521">
        <ele>38.66</ele>
        <time>2019-05-28T09:44:55.000Z</time>
      </trkpt>
      <trkpt lat="44.24712" lon="4.67544">
        <ele>38.4</ele>
        <time>2019-05-28T09:45:00.000Z</time>
      </trkpt>
      <trkpt lat="44.2468" lon="4.6755">
        <ele>38.4</ele>
        <time>2019-05-28T09:45:05.000Z</time>
      </trkpt>
      <trkpt lat="44.24652" lon="4.67571">
        <ele>37.84</ele>
        <time>2019-05-28T09:45:10.000Z</time>
      </trkpt>
      <trkpt lat="44.2465" lon="4.67616">
        <ele>39.15</ele>
        <time>2019-05-28T09:45:15.000Z</time>
      </trkpt>
      <trkpt lat="44.24651" lon="4.67654">
        <ele>39.6</ele>
        <time>2019-05-28T09:45:20.000Z</time>
      </trkpt>
      <trkpt lat="44.24653" lon="4.67691">
        <ele>39.46</ele>
        <time>2019-05-28T09:45:25.000Z</time>
      </trkpt>
      <trkpt lat="44.24647" lon="4.67729">
        <ele>40.35</ele>
        <time>2019-05-28T09:45:30.000Z</time>
      </trkpt>
      <trkpt lat="44.24639" lon="4.67767">
        <ele>41.15</ele>
        <time>2019-05-28T09:45:35.000Z</time>
      </trkpt>
      <trkpt lat="44.24629" lon="4.67808">
        <ele>41.39</ele>
        <time>2019-05-28T09:45:40.000Z</time>
      </trkpt>
      <trkpt lat="44.24617" lon="4.67848">
        <ele>42.15</ele>
        <time>2019-05-28T09:45:45.000Z</time>
      </trkpt>
      <trkpt lat="44.24605" lon="4.67886">
        <ele>42.4</ele>
        <time>2019-05-28T09:45:50.000Z</time>
      </trkpt>
      <trkpt lat="44.24594" lon="4.6793">
        <ele>41.61</ele>
        <time>2019-05-28T09:45:55.000Z</time>
      </trkpt>
      <trkpt lat="44.24589" lon="4.6797">
        <ele>40.61</ele>
        <time>2019-05-28T09:46:00.000Z</time>
      </trkpt>
      <trkpt lat="44.24591" lon="4.68012">
        <ele>40.46</ele>
        <time>2019-05-28T09:46:05.000Z</time>
      </trkpt>
      <trkpt lat="44.24597" lon="4.68049">
        <ele>41.2</ele>
        <time>2019-05-28T09:46:10.000Z</time>
      </trkpt>
      <trkpt lat="44.24605" lon="4.68083">
        <ele>40.42</ele>
        <time>2019-05-28T09:46:15.000Z</time>
      </trkpt>
      <trkpt lat="44.24615" lon="4.68116">
        <ele>40.41</ele>
        <time>2019-05-28T09:46:20.000Z</time>
      </trkpt>
      <trkpt lat="44.2462" lon="4.68148">
        <ele>39.47</ele>
        <time>2019-05-28T09:46:25.000Z</time>
      </trkpt>
      <trkpt lat="44.24616" lon="4.6818">
        <ele>41.15</ele>
        <time>2019-05-28T09:46:30.000Z</time>
      </trkpt>
      <trkpt lat="44.24605" lon="4.68214">
        <ele>40.41</ele>
        <time>2019-05-28T09:46:35.000Z</time>
      </trkpt>
      <trkpt lat="44.24602" lon="4.6825">
        <ele>41.21</ele>
        <time>2019-05-28T09:46:40.000Z</time>
      </trkpt>
      <trkpt lat="44.24607" lon="4.68286">
        <ele>40.41</ele>
        <time>2019-05-28T09:46:45.000Z</time>
      </trkpt>
      <trkpt lat="44.24614" lon="4.6832">
        <ele>40.65</ele>
        <time>2019-05-28T09:46:50.000Z</time>
      </trkpt>
      <trkpt lat="44.24622" lon="4.68353">
        <ele>41.41</ele>
        <time>2019-05-28T09:46:55.000Z</time>
      </trkpt>
      <trkpt lat="44.24632" lon="4.68382">
        <ele>41.16</ele>
        <time>2019-05-28T09:47:00.000Z</time>
      </trkpt>
      <trkpt lat="44.24641" lon="4.68411">
        <ele>39.47</ele>
        <time>2019-05-28T09:47:05.000Z</time>
      </trkpt>
      <trkpt lat="44.24649" lon="4.68439">
        <ele>39.42</ele>
        <time>2019-05-28T09:47:10.000Z</time>
      </trkpt>
      <trkpt lat="44.24657" lon="4.68465">
        <ele>40.21</ele>
        <time>2019-05-28T09:47:15.000Z</time>
      </trkpt>
      <trkpt lat="44.24665" lon="4.68493">
        <ele>40.4</ele>
        <time>2019-05-28T09:47:20.000Z</time>
      </trkpt>
      <trkpt lat="44.24672" lon="4.68521">
        <ele>40.59</ele>
        <time>2019-05-28T09:47:25.000Z</time>
      </trkpt>
      <trkpt lat="44.24679" lon="4.68549">
        <ele>41.14</ele>
        <time>2019-05-28T09:47:30.000Z</time>
      </trkpt>
      <trkpt lat="44.24686" lon="4.68578">
        <ele>41.16</ele>
        <time>2019-05-28T09:47:35.000Z</time>
      </trkpt>
      <trkpt lat="44.24693" lon="4.68607">
        <ele>40.47</ele>
        <time>2019-05-28T09:47:40.000Z</time>
      </trkpt>
      <trkpt lat="44.24701" lon="4.68635">
        <ele>42.15</ele>
        <time>2019-05-28T09:47:45.000Z</time>
      </trkpt>
      <trkpt lat="44.24704" lon="4.68667">
        <ele>42.7</ele>
        <time>2019-05-28T09:47:50.000Z</time>
      </trkpt>
      <trkpt lat="44.24704" lon="4.68698">
        <ele>42.41</ele>
        <time>2019-05-28T09:47:55.000Z</time>
      </trkpt>
      <trkpt lat="44.24699" lon="4.68728">
        <ele>43.34</ele>
        <time>2019-05-28T09:48:00.000Z</time>
      </trkpt>
      <trkpt lat="44.24693" lon="4.68763">
        <ele>41.41</ele>
        <time>2019-05-28T09:48:05.000Z</time>
      </trkpt>
      <trkpt lat="44.24687" lon="4.68798">
        <ele>41.39</ele>
        <time>2019-05-28T09:48:10.000Z</time>
      </trkpt>
      <trkpt lat="44.24682" lon="4.68835">
        <ele>40.36</ele>
        <time>2019-05-28T09:48:15.000Z</time>
      </trkpt>
      <trkpt lat="44.24676" lon="4.68873">
        <ele>41.39</ele>
        <time>2019-05-28T09:48:20.000Z</time>
      </trkpt>
      <trkpt lat="44.24673" lon="4.68911">
        <ele>40.66</ele>
        <time>2019-05-28T09:48:25.000Z</time>
      </trkpt>
      <trkpt lat="44.24673" lon="4.68948">
        <ele>41.41</ele>
        <time>2019-05-28T09:48:30.000Z</time>
      </trkpt>
      <trkpt lat="44.24675" lon="4.68986">
        <ele>41.22</ele>
        <time>2019-05-28T09:48:35.000Z</time>
      </trkpt>
      <trkpt lat="44.24675" lon="4.69023">
        <ele>41.41</ele>
        <time>2019-05-28T09:48:40.000Z</time>
      </trkpt>
      <trkpt lat="44.24674" lon="4.6906">
        <ele>41.41</ele>
        <time>2019-05-28T09:48:45.000Z</time>
      </trkpt>
      <trkpt lat="44.24672" lon="4.69099">
        <ele>40.42</ele>
        <time>2019-05-28T09:48:50.000Z</time>
      </trkpt>
      <trkpt lat="44.24669" lon="4.69129">
        <ele>41.39</ele>
        <time>2019-05-28T09:48:55.000Z</time>
      </trkpt>
      <trkpt lat="44.24666" lon="4.6916">
        <ele>39.49</ele>
        <time>2019-05-28T09:49:00.000Z</time>
      </trkpt>
      <trkpt lat="44.24662" lon="4.69197">
        <ele>39.41</ele>
        <time>2019-05-28T09:49:05.000Z</time>
      </trkpt>
      <trkpt lat="44.24659" lon="4.69234">
        <ele>41.15</ele>
        <time>2019-05-28T09:49:10.000Z</time>
      </trkpt>
      <trkpt lat="44.24655" lon="4.69273">
        <ele>41.41</ele>
        <time>2019-05-28T09:49:15.000Z</time>
      </trkpt>
      <trkpt lat="44.24651" lon="4.6931">
        <ele>41.41</ele>
        <time>2019-05-28T09:49:20.000Z</time>
      </trkpt>
      <trkpt lat="44.24646" lon="4.69345">
        <ele>42.35</ele>
        <time>2019-05-28T09:49:25.000Z</time>
      </trkpt>
      <trkpt lat="44.24642" lon="4.69379">
        <ele>43.39</ele>
        <time>2019-05-28T09:49:30.000Z</time>
      </trkpt>
      <trkpt lat="44.24639" lon="4.69419">
        <ele>43.22</ele>
        <time>2019-05-28T09:49:35.000Z</time>
      </trkpt>
      <trkpt lat="44.24638" lon="4.69457">
        <ele>43.35</ele>
        <time>2019-05-28T09:49:40.000Z</time>
      </trkpt>
      <trkpt lat="44.24636" lon="4.69493">
        <ele>43.64</ele>
        <time>2019-05-28T09:49:45.000Z</time>
      </trkpt>
      <trkpt lat="44.24634" lon="4.69528">
        <ele>42.64</ele>
        <time>2019-05-28T09:49:50.000Z</time>
      </trkpt>
      <trkpt lat="44.24632" lon="4.69563">
        <ele>42.41</ele>
        <time>2019-05-28T09:49:55.000Z</time>
      </trkpt>
      <trkpt lat="44.24629" lon="4.69597">
        <ele>42.41</ele>
        <time>2019-05-28T09:50:00.000Z</time>
      </trkpt>
      <trkpt lat="44.24626" lon="4.69631">
        <ele>41.47</ele>
        <time>2019-05-28T09:50:05.000Z</time>
      </trkpt>
      <trkpt lat="44.24623" lon="4.69665">
        <ele>42.36</ele>
        <time>2019-05-28T09:50:10.000Z</time>
      </trkpt>
      <trkpt lat="44.2462" lon="4.697">
        <ele>42.41</ele>
        <time>2019-05-28T09:50:15.000Z</time>
      </trkpt>
      <trkpt lat="44.24618" lon="4.69734">
        <ele>41.66</ele>
        <time>2019-05-28T09:50:20.000Z</time>
      </trkpt>
      <trkpt lat="44.24615" lon="4.69768">
        <ele>41.18</ele>
        <time>2019-05-28T09:50:25.000Z</time>
      </trkpt>
      <trkpt lat="44.24612" lon="4.69801">
        <ele>42.41</ele>
        <time>2019-05-28T09:50:30.000Z</time>
      </trkpt>
      <trkpt lat="44.24609" lon="4.69831">
        <ele>42.47</ele>
        <time>2019-05-28T09:50:35.000Z</time>
      </trkpt>
      <trkpt lat="44.24606" lon="4.69855">
        <ele>42.41</ele>
        <time>2019-05-28T09:50:40.000Z</time>
      </trkpt>
      <trkpt lat="44.24602" lon="4.69868">
        <ele>42.47</ele>
        <time>2019-05-28T09:50:45.000Z</time>
      </trkpt>
      <trkpt lat="44.24597" lon="4.69887">
        <ele>43.41</ele>
        <time>2019-05-28T09:50:50.000Z</time>
      </trkpt>
      <trkpt lat="44.24606" lon="4.6991">
        <ele>42.43</ele>
        <time>2019-05-28T09:50:55.000Z</time>
      </trkpt>
      <trkpt lat="44.24604" lon="4.69934">
        <ele>39.68</ele>
        <time>2019-05-28T09:51:00.000Z</time>
      </trkpt>
      <trkpt lat="44.24585" lon="4.69952">
        <ele>39.41</ele>
        <time>2019-05-28T09:51:05.000Z</time>
      </trkpt>
      <trkpt lat="44.24571" lon="4.69981">
        <ele>39.42</ele>
        <time>2019-05-28T09:51:10.000Z</time>
      </trkpt>
      <trkpt lat="44.24561" lon="4.70009">
        <ele>39.16</ele>
        <time>2019-05-28T09:51:15.000Z</time>
      </trkpt>
      <trkpt lat="44.24552" lon="4.7003">
        <ele>41.34</ele>
        <time>2019-05-28T09:51:20.000Z</time>
      </trkpt>
      <trkpt lat="44.24545" lon="4.70046">
        <ele>41.4</ele>
        <time>2019-05-28T09:51:25.000Z</time>
      </trkpt>
      <trkpt lat="44.24535" lon="4.70057">
        <ele>44.11</ele>
        <time>2019-05-28T09:51:30.000Z</time>
      </trkpt>
      <trkpt lat="44.24535" lon="4.70072">
        <ele>45.64</ele>
        <time>2019-05-28T09:51:35.000Z</time>
      </trkpt>
      <trkpt lat="44.24547" lon="4.70078">
        <ele>46.41</ele>
        <time>2019-05-28T09:51:40.000Z</time>
      </trkpt>
      <trkpt lat="44.24543" lon="4.70096">
        <ele>46.41</ele>
        <time>2019-05-28T09:51:45.000Z</time>
      </trkpt>
      <trkpt lat="44.24534" lon="4.70118">
        <ele>44.43</ele>
        <time>2019-05-28T09:51:50.000Z</time>
      </trkpt>
      <trkpt lat="44.24524" lon="4.70141">
        <ele>46.4</ele>
        <time>2019-05-28T09:51:55.000Z</time>
      </trkpt>
      <trkpt lat="44.24512" lon="4.70164">
        <ele>46.65</ele>
        <time>2019-05-28T09:52:00.000Z</time>
      </trkpt>
      <trkpt lat="44.24502" lon="4.70194">
        <ele>47.47</ele>
        <time>2019-05-28T09:52:05.000Z</time>
      </trkpt>
      <trkpt lat="44.24492" lon="4.70226">
        <ele>44.43</ele>
        <time>2019-05-28T09:52:10.000Z</time>
      </trkpt>
      <trkpt lat="44.24481" lon="4.70256">
        <ele>44.6</ele>
        <time>2019-05-28T09:52:15.000Z</time>
      </trkpt>
      <trkpt lat="44.2447" lon="4.70285">
        <ele>45.22</ele>
        <time>2019-05-28T09:52:20.000Z</time>
      </trkpt>
      <trkpt lat="44.24457" lon="4.7032">
        <ele>45.16</ele>
        <time>2019-05-28T09:52:25.000Z</time>
      </trkpt>
      <trkpt lat="44.24444" lon="4.70334">
        <ele>43.42</ele>
        <time>2019-05-28T09:52:30.000Z</time>
      </trkpt>
      <trkpt lat="44.24441" lon="4.70315">
        <ele>43.61</ele>
        <time>2019-05-28T09:52:35.000Z</time>
      </trkpt>
      <trkpt lat="44.24443" lon="4.70299">
        <ele>44.41</ele>
        <time>2019-05-28T09:52:40.000Z</time>
      </trkpt>
      <trkpt lat="44.24443" lon="4.70313">
        <ele>49.48</ele>
        <time>2019-05-28T09:58:43.000Z</time>
      </trkpt>
      <trkpt lat="44.24443" lon="4.70332">
        <ele>48.4</ele>
        <time>2019-05-28T09:58:48.000Z</time>
      </trkpt>
      <trkpt lat="44.24448" lon="4.7035">
        <ele>47.48</ele>
        <time>2019-05-28T09:58:53.000Z</time>
      </trkpt>
      <trkpt lat="44.24441" lon="4.70374">
        <ele>46.41</ele>
        <time>2019-05-28T09:58:58.000Z</time>
      </trkpt>
      <trkpt lat="44.24429" lon="4.70401">
        <ele>46.48</ele>
        <time>2019-05-28T09:59:03.000Z</time>
      </trkpt>
      <trkpt lat="44.24417" lon="4.70436">
        <ele>45.48</ele>
        <time>2019-05-28T09:59:08.000Z</time>
      </trkpt>
      <trkpt lat="44.24403" lon="4.70473">
        <ele>44.48</ele>
        <time>2019-05-28T09:59:13.000Z</time>
      </trkpt>
      <trkpt lat="44.24383" lon="4.70505">
        <ele>42.67</ele>
        <time>2019-05-28T09:59:18.000Z</time>
      </trkpt>
      <trkpt lat="44.24356" lon="4.70527">
        <ele>41.43</ele>
        <time>2019-05-28T09:59:23.000Z</time>
      </trkpt>
      <trkpt lat="44.24326" lon="4.70535">
        <ele>40.43</ele>
        <time>2019-05-28T09:59:28.000Z</time>
      </trkpt>
      <trkpt lat="44.24294" lon="4.70532">
        <ele>41.41</ele>
        <time>2019-05-28T09:59:33.000Z</time>
      </trkpt>
      <trkpt lat="44.24262" lon="4.70529">
        <ele>41.42</ele>
        <time>2019-05-28T09:59:38.000Z</time>
      </trkpt>
      <trkpt lat="44.24229" lon="4.70526">
        <ele>40.65</ele>
        <time>2019-05-28T09:59:43.000Z</time>
      </trkpt>
      <trkpt lat="44.24201" lon="4.70521">
        <ele>43.1</ele>
        <time>2019-05-28T09:59:48.000Z</time>
      </trkpt>
      <trkpt lat="44.24181" lon="4.70522">
        <ele>43.42</ele>
        <time>2019-05-28T09:59:53.000Z</time>
      </trkpt>
      <trkpt lat="44.24171" lon="4.70518">
        <ele>41.18</ele>
        <time>2019-05-28T10:00:09.000Z</time>
      </trkpt>
      <trkpt lat="44.24157" lon="4.70523">
        <ele>43.4</ele>
        <time>2019-05-28T10:00:14.000Z</time>
      </trkpt>
      <trkpt lat="44.24142" lon="4.70526">
        <ele>44.41</ele>
        <time>2019-05-28T10:00:19.000Z</time>
      </trkpt>
      <trkpt lat="44.24127" lon="4.70529">
        <ele>45.41</ele>
        <time>2019-05-28T10:00:24.000Z</time>
      </trkpt>
      <trkpt lat="44.24112" lon="4.70532">
        <ele>47.35</ele>
        <time>2019-05-28T10:00:29.000Z</time>
      </trkpt>
      <trkpt lat="44.24095" lon="4.70533">
        <ele>47.17</ele>
        <time>2019-05-28T10:00:34.000Z</time>
      </trkpt>
      <trkpt lat="44.24073" lon="4.70537">
        <ele>46.42</ele>
        <time>2019-05-28T10:00:39.000Z</time>
      </trkpt>
      <trkpt lat="44.24048" lon="4.7054">
        <ele>46.42</ele>
        <time>2019-05-28T10:00:44.000Z</time>
      </trkpt>
      <trkpt lat="44.24021" lon="4.70542">
        <ele>46.42</ele>
        <time>2019-05-28T10:00:49.000Z</time>
      </trkpt>
      <trkpt lat="44.23994" lon="4.70543">
        <ele>44.48</ele>
        <time>2019-05-28T10:00:54.000Z</time>
      </trkpt>
      <trkpt lat="44.23967" lon="4.70546">
        <ele>44.37</ele>
        <time>2019-05-28T10:00:59.000Z</time>
      </trkpt>
      <trkpt lat="44.23939" lon="4.7055">
        <ele>45.17</ele>
        <time>2019-05-28T10:01:04.000Z</time>
      </trkpt>
      <trkpt lat="44.2391" lon="4.70553">
        <ele>44.48</ele>
        <time>2019-05-28T10:01:09.000Z</time>
      </trkpt>
      <trkpt lat="44.23881" lon="4.70556">
        <ele>44.43</ele>
        <time>2019-05-28T10:01:14.000Z</time>
      </trkpt>
      <trkpt lat="44.23851" lon="4.70558">
        <ele>44.18</ele>
        <time>2019-05-28T10:01:19.000Z</time>
      </trkpt>
      <trkpt lat="44.23824" lon="4.7056">
        <ele>43.61</ele>
        <time>2019-05-28T10:01:24.000Z</time>
      </trkpt>
      <trkpt lat="44.23797" lon="4.70564">
        <ele>42.47</ele>
        <time>2019-05-28T10:01:29.000Z</time>
      </trkpt>
      <trkpt lat="44.2378" lon="4.7057">
        <ele>42.47</ele>
        <time>2019-05-28T10:01:34.000Z</time>
      </trkpt>
      <trkpt lat="44.23784" lon="4.70586">
        <ele>44.69</ele>
        <time>2019-05-28T10:02:23.000Z</time>
      </trkpt>
      <trkpt lat="44.23794" lon="4.70611">
        <ele>43.68</ele>
        <time>2019-05-28T10:02:28.000Z</time>
      </trkpt>
      <trkpt lat="44.23799" lon="4.70643">
        <ele>42.48</ele>
        <time>2019-05-28T10:02:33.000Z</time>
      </trkpt>
      <trkpt lat="44.23781" lon="4.70654">
        <ele>41.42</ele>
        <time>2019-05-28T10:02:38.000Z</time>
      </trkpt>
      <trkpt lat="44.23757" lon="4.70651">
        <ele>41.66</ele>
        <time>2019-05-28T10:02:43.000Z</time>
      </trkpt>
      <trkpt lat="44.2373" lon="4.70652">
        <ele>42.37</ele>
        <time>2019-05-28T10:02:48.000Z</time>
      </trkpt>
      <trkpt lat="44.23701" lon="4.70653">
        <ele>41.67</ele>
        <time>2019-05-28T10:02:53.000Z</time>
      </trkpt>
      <trkpt lat="44.23672" lon="4.70652">
        <ele>43.17</ele>
        <time>2019-05-28T10:02:58.000Z</time>
      </trkpt>
      <trkpt lat="44.23642" lon="4.70655">
        <ele>44.36</ele>
        <time>2019-05-28T10:03:03.000Z</time>
      </trkpt>
      <trkpt lat="44.2361" lon="4.70658">
        <ele>44.42</ele>
        <time>2019-05-28T10:03:08.000Z</time>
      </trkpt>
      <trkpt lat="44.2358" lon="4.70662">
        <ele>44.44</ele>
        <time>2019-05-28T10:03:13.000Z</time>
      </trkpt>
      <trkpt lat="44.2355" lon="4.70667">
        <ele>46.18</ele>
        <time>2019-05-28T10:03:18.000Z</time>
      </trkpt>
      <trkpt lat="44.23519" lon="4.70672">
        <ele>43.45</ele>
        <time>2019-05-28T10:03:23.000Z</time>
      </trkpt>
      <trkpt lat="44.23487" lon="4.70682">
        <ele>44.66</ele>
        <time>2019-05-28T10:03:28.000Z</time>
      </trkpt>
      <trkpt lat="44.23456" lon="4.70689">
        <ele>43.43</ele>
        <time>2019-05-28T10:03:33.000Z</time>
      </trkpt>
      <trkpt lat="44.23426" lon="4.70697">
        <ele>44.61</ele>
        <time>2019-05-28T10:03:38.000Z</time>
      </trkpt>
      <trkpt lat="44.23393" lon="4.70705">
        <ele>45.12</ele>
        <time>2019-05-28T10:03:43.000Z</time>
      </trkpt>
      <trkpt lat="44.23364" lon="4.70717">
        <ele>44.69</ele>
        <time>2019-05-28T10:03:48.000Z</time>
      </trkpt>
      <trkpt lat="44.23333" lon="4.70729">
        <ele>44.67</ele>
        <time>2019-05-28T10:03:53.000Z</time>
      </trkpt>
      <trkpt lat="44.23302" lon="4.70745">
        <ele>43.44</ele>
        <time>2019-05-28T10:03:58.000Z</time>
      </trkpt>
      <trkpt lat="44.23273" lon="4.70759">
        <ele>43.38</ele>
        <time>2019-05-28T10:04:03.000Z</time>
      </trkpt>
      <trkpt lat="44.23245" lon="4.70773">
        <ele>44.37</ele>
        <time>2019-05-28T10:04:08.000Z</time>
      </trkpt>
      <trkpt lat="44.23217" lon="4.70787">
        <ele>43.43</ele>
        <time>2019-05-28T10:04:13.000Z</time>
      </trkpt>
      <trkpt lat="44.23189" lon="4.70801">
        <ele>41.45</ele>
        <time>2019-05-28T10:04:18.000Z</time>
      </trkpt>
      <trkpt lat="44.23159" lon="4.70811">
        <ele>40.68</ele>
        <time>2019-05-28T10:04:23.000Z</time>
      </trkpt>
      <trkpt lat="44.23133" lon="4.7079">
        <ele>41.18</ele>
        <time>2019-05-28T10:04:28.000Z</time>
      </trkpt>
      <trkpt lat="44.23112" lon="4.70798">
        <ele>42.41</ele>
        <time>2019-05-28T10:04:33.000Z</time>
      </trkpt>
      <trkpt lat="44.23098" lon="4.70818">
        <ele>42.66</ele>
        <time>2019-05-28T10:04:38.000Z</time>
      </trkpt>
      <trkpt lat="44.23076" lon="4.70826">
        <ele>40.45</ele>
        <time>2019-05-28T10:04:43.000Z</time>
      </trkpt>
      <trkpt lat="44.23054" lon="4.70841">
        <ele>40.49</ele>
        <time>2019-05-28T10:04:48.000Z</time>
      </trkpt>
      <trkpt lat="44.23053" lon="4.70866">
        <ele>40.43</ele>
        <time>2019-05-28T10:04:53.000Z</time>
      </trkpt>
      <trkpt lat="44.23066" lon="4.70879">
        <ele>39.49</ele>
        <time>2019-05-28T10:04:58.000Z</time>
      </trkpt>
      <trkpt lat="44.23078" lon="4.70897">
        <ele>39.43</ele>
        <time>2019-05-28T10:05:03.000Z</time>
      </trkpt>
      <trkpt lat="44.23091" lon="4.70928">
        <ele>37.74</ele>
        <time>2019-05-28T10:05:08.000Z</time>
      </trkpt>
      <trkpt lat="44.23084" lon="4.70947">
        <ele>39.43</ele>
        <time>2019-05-28T10:05:13.000Z</time>
      </trkpt>
      <trkpt lat="44.23071" lon="4.7096">
        <ele>39.49</ele>
        <time>2019-05-28T10:05:18.000Z</time>
      </trkpt>
      <trkpt lat="44.23061" lon="4.70982">
        <ele>39.43</ele>
        <time>2019-05-28T10:05:23.000Z</time>
      </trkpt>
      <trkpt lat="44.23063" lon="4.71013">
        <ele>39.37</ele>
        <time>2019-05-28T10:05:28.000Z</time>
      </trkpt>
      <trkpt lat="44.23063" lon="4.71045">
        <ele>41.18</ele>
        <time>2019-05-28T10:05:33.000Z</time>
      </trkpt>
      <trkpt lat="44.23064" lon="4.71079">
        <ele>41.43</ele>
        <time>2019-05-28T10:05:38.000Z</time>
      </trkpt>
      <trkpt lat="44.23064" lon="4.71116">
        <ele>40.39</ele>
        <time>2019-05-28T10:05:43.000Z</time>
      </trkpt>
      <trkpt lat="44.2307" lon="4.71148">
        <ele>41.43</ele>
        <time>2019-05-28T10:05:48.000Z</time>
      </trkpt>
      <trkpt lat="44.23085" lon="4.71174">
        <ele>39.49</ele>
        <time>2019-05-28T10:05:53.000Z</time>
      </trkpt>
      <trkpt lat="44.23099" lon="4.712">
        <ele>40.18</ele>
        <time>2019-05-28T10:05:58.000Z</time>
      </trkpt>
      <trkpt lat="44.23112" lon="4.71221">
        <ele>41.42</ele>
        <time>2019-05-28T10:06:03.000Z</time>
      </trkpt>
      <trkpt lat="44.23106" lon="4.71205">
        <ele>41.24</ele>
        <time>2019-05-28T10:06:20.000Z</time>
      </trkpt>
      <trkpt lat="44.2309" lon="4.7118">
        <ele>42.43</ele>
        <time>2019-05-28T10:06:25.000Z</time>
      </trkpt>
      <trkpt lat="44.23078" lon="4.71155">
        <ele>42.24</ele>
        <time>2019-05-28T10:06:30.000Z</time>
      </trkpt>
      <trkpt lat="44.23068" lon="4.71127">
        <ele>42.37</ele>
        <time>2019-05-28T10:06:35.000Z</time>
      </trkpt>
      <trkpt lat="44.23067" lon="4.71092">
        <ele>42.68</ele>
        <time>2019-05-28T10:06:40.000Z</time>
      </trkpt>
      <trkpt lat="44.23067" lon="4.71058">
        <ele>42.2</ele>
        <time>2019-05-28T10:06:45.000Z</time>
      </trkpt>
      <trkpt lat="44.23067" lon="4.71023">
        <ele>41.68</ele>
        <time>2019-05-28T10:06:50.000Z</time>
      </trkpt>
      <trkpt lat="44.23066" lon="4.70987">
        <ele>41.24</ele>
        <time>2019-05-28T10:06:55.000Z</time>
      </trkpt>
      <trkpt lat="44.23074" lon="4.70949">
        <ele>41.37</ele>
        <time>2019-05-28T10:07:00.000Z</time>
      </trkpt>
      <trkpt lat="44.23101" lon="4.70939">
        <ele>42.38</ele>
        <time>2019-05-28T10:07:05.000Z</time>
      </trkpt>
      <trkpt lat="44.23127" lon="4.70934">
        <ele>40.45</ele>
        <time>2019-05-28T10:07:10.000Z</time>
      </trkpt>
      <trkpt lat="44.2315" lon="4.70953">
        <ele>41.48</ele>
        <time>2019-05-28T10:07:15.000Z</time>
      </trkpt>
      <trkpt lat="44.23174" lon="4.70971">
        <ele>39.68</ele>
        <time>2019-05-28T10:07:20.000Z</time>
      </trkpt>
      <trkpt lat="44.23199" lon="4.70991">
        <ele>40.38</ele>
        <time>2019-05-28T10:07:25.000Z</time>
      </trkpt>
      <trkpt lat="44.23221" lon="4.71011">
        <ele>41.37</ele>
        <time>2019-05-28T10:07:30.000Z</time>
      </trkpt>
      <trkpt lat="44.23244" lon="4.71022">
        <ele>41.24</ele>
        <time>2019-05-28T10:07:35.000Z</time>
      </trkpt>
      <trkpt lat="44.23258" lon="4.71037">
        <ele>41.67</ele>
        <time>2019-05-28T10:07:40.000Z</time>
      </trkpt>
      <trkpt lat="44.23274" lon="4.71052">
        <ele>40.68</ele>
        <time>2019-05-28T10:07:45.000Z</time>
      </trkpt>
      <trkpt lat="44.23293" lon="4.71073">
        <ele>40.44</ele>
        <time>2019-05-28T10:07:50.000Z</time>
      </trkpt>
      <trkpt lat="44.23313" lon="4.71094">
        <ele>40.62</ele>
        <time>2019-05-28T10:07:55.000Z</time>
      </trkpt>
      <trkpt lat="44.23331" lon="4.71116">
        <ele>42.36</ele>
        <time>2019-05-28T10:08:00.000Z</time>
      </trkpt>
      <trkpt lat="44.23348" lon="4.71135">
        <ele>42.43</ele>
        <time>2019-05-28T10:08:05.000Z</time>
      </trkpt>
      <trkpt lat="44.2336" lon="4.71158">
        <ele>41.49</ele>
        <time>2019-05-28T10:08:10.000Z</time>
      </trkpt>
      <trkpt lat="44.23364" lon="4.7117">
        <ele>43.18</ele>
        <time>2019-05-28T10:08:15.000Z</time>
      </trkpt>
      <trkpt lat="44.23371" lon="4.71184">
        <ele>42.48</ele>
        <time>2019-05-28T10:08:36.000Z</time>
      </trkpt>
      <trkpt lat="44.23385" lon="4.7119">
        <ele>42.43</ele>
        <time>2019-05-28T10:08:41.000Z</time>
      </trkpt>
      <trkpt lat="44.23376" lon="4.71187">
        <ele>41.43</ele>
        <time>2019-05-28T10:09:27.000Z</time>
      </trkpt>
      <trkpt lat="44.23364" lon="4.71196">
        <ele>39.69</ele>
        <time>2019-05-28T10:09:32.000Z</time>
      </trkpt>
      <trkpt lat="44.23369" lon="4.71227">
        <ele>41.18</ele>
        <time>2019-05-28T10:09:37.000Z</time>
      </trkpt>
      <trkpt lat="44.23383" lon="4.71245">
        <ele>41.62</ele>
        <time>2019-05-28T10:09:42.000Z</time>
      </trkpt>
      <trkpt lat="44.23395" lon="4.71256">
        <ele>42.37</ele>
        <time>2019-05-28T10:09:47.000Z</time>
      </trkpt>
      <trkpt lat="44.23404" lon="4.71263">
        <ele>43.43</ele>
        <time>2019-05-28T10:09:52.000Z</time>
      </trkpt>
      <trkpt lat="44.23412" lon="4.71272">
        <ele>45.36</ele>
        <time>2019-05-28T10:09:58.000Z</time>
      </trkpt>
      <trkpt lat="44.23419" lon="4.71284">
        <ele>46.42</ele>
        <time>2019-05-28T10:10:04.000Z</time>
      </trkpt>
      <trkpt lat="44.2342" lon="4.71296">
        <ele>46.24</ele>
        <time>2019-05-28T10:10:09.000Z</time>
      </trkpt>
      <trkpt lat="44.2343" lon="4.71302">
        <ele>48.41</ele>
        <time>2019-05-28T10:10:24.000Z</time>
      </trkpt>
      <trkpt lat="44.23443" lon="4.7129">
        <ele>49.18</ele>
        <time>2019-05-28T10:10:29.000Z</time>
      </trkpt>
      <trkpt lat="44.23462" lon="4.71281">
        <ele>47.48</ele>
        <time>2019-05-28T10:10:34.000Z</time>
      </trkpt>
      <trkpt lat="44.23483" lon="4.71281">
        <ele>49.36</ele>
        <time>2019-05-28T10:10:39.000Z</time>
      </trkpt>
      <trkpt lat="44.23504" lon="4.71284">
        <ele>48.43</ele>
        <time>2019-05-28T10:10:44.000Z</time>
      </trkpt>
      <trkpt lat="44.23522" lon="4.71291">
        <ele>48.43</ele>
        <time>2019-05-28T10:10:49.000Z</time>
      </trkpt>
      <trkpt lat="44.23545" lon="4.71304">
        <ele>46.49</ele>
        <time>2019-05-28T10:10:54.000Z</time>
      </trkpt>
      <trkpt lat="44.23567" lon="4.71318">
        <ele>45.44</ele>
        <time>2019-05-28T10:10:59.000Z</time>
      </trkpt>
      <trkpt lat="44.23588" lon="4.71331">
        <ele>45.43</ele>
        <time>2019-05-28T10:11:04.000Z</time>
      </trkpt>
      <trkpt lat="44.23608" lon="4.71344">
        <ele>46.18</ele>
        <time>2019-05-28T10:11:09.000Z</time>
      </trkpt>
      <trkpt lat="44.2363" lon="4.71355">
        <ele>46.42</ele>
        <time>2019-05-28T10:11:14.000Z</time>
      </trkpt>
      <trkpt lat="44.23647" lon="4.71358">
        <ele>45.72</ele>
        <time>2019-05-28T10:11:19.000Z</time>
      </trkpt>
      <trkpt lat="44.23655" lon="4.71374">
        <ele>44.49</ele>
        <time>2019-05-28T10:11:24.000Z</time>
      </trkpt>
      <trkpt lat="44.23672" lon="4.7138">
        <ele>45.41</ele>
        <time>2019-05-28T10:11:29.000Z</time>
      </trkpt>
      <trkpt lat="44.23692" lon="4.7139">
        <ele>44.43</ele>
        <time>2019-05-28T10:11:34.000Z</time>
      </trkpt>
      <trkpt lat="44.23713" lon="4.71405">
        <ele>43.43</ele>
        <time>2019-05-28T10:11:39.000Z</time>
      </trkpt>
      <trkpt lat="44.23726" lon="4.71419">
        <ele>45.24</ele>
        <time>2019-05-28T10:11:44.000Z</time>
      </trkpt>
      <trkpt lat="44.23742" lon="4.71425">
        <ele>45.61</ele>
        <time>2019-05-28T10:11:49.000Z</time>
      </trkpt>
      <trkpt lat="44.2376" lon="4.71434">
        <ele>44.44</ele>
        <time>2019-05-28T10:11:54.000Z</time>
      </trkpt>
      <trkpt lat="44.23782" lon="4.71441">
        <ele>45.48</ele>
        <time>2019-05-28T10:11:59.000Z</time>
      </trkpt>
      <trkpt lat="44.23803" lon="4.71443">
        <ele>45.42</ele>
        <time>2019-05-28T10:12:04.000Z</time>
      </trkpt>
      <trkpt lat="44.23822" lon="4.71441">
        <ele>46.42</ele>
        <time>2019-05-28T10:12:09.000Z</time>
      </trkpt>
      <trkpt lat="44.23842" lon="4.71439">
        <ele>50.09</ele>
        <time>2019-05-28T10:12:14.000Z</time>
      </trkpt>
      <trkpt lat="44.23856" lon="4.71436">
        <ele>51.41</ele>
        <time>2019-05-28T10:12:19.000Z</time>
      </trkpt>
      <trkpt lat="44.2387" lon="4.71432">
        <ele>49.74</ele>
        <time>2019-05-28T10:12:24.000Z</time>
      </trkpt>
      <trkpt lat="44.23888" lon="4.71421">
        <ele>48.91</ele>
        <time>2019-05-28T10:12:29.000Z</time>
      </trkpt>
      <trkpt lat="44.23908" lon="4.71419">
        <ele>45.64</ele>
        <time>2019-05-28T10:12:34.000Z</time>
      </trkpt>
      <trkpt lat="44.23928" lon="4.71423">
        <ele>48.09</ele>
        <time>2019-05-28T10:12:39.000Z</time>
      </trkpt>
      <trkpt lat="44.23948" lon="4.71429">
        <ele>48.35</ele>
        <time>2019-05-28T10:12:44.000Z</time>
      </trkpt>
      <trkpt lat="44.23962" lon="4.7143">
        <ele>53.21</ele>
        <time>2019-05-28T10:12:49.000Z</time>
      </trkpt>
      <trkpt lat="44.2396" lon="4.71443">
        <ele>50.42</ele>
        <time>2019-05-28T10:12:58.000Z</time>
      </trkpt>
      <trkpt lat="44.23957" lon="4.71456">
        <ele>48.68</ele>
        <time>2019-05-28T10:13:03.000Z</time>
      </trkpt>
      <trkpt lat="44.23951" lon="4.71468">
        <ele>50.17</ele>
        <time>2019-05-28T10:13:08.000Z</time>
      </trkpt>
      <trkpt lat="44.23944" lon="4.71483">
        <ele>50.42</ele>
        <time>2019-05-28T10:13:13.000Z</time>
      </trkpt>
      <trkpt lat="44.23936" lon="4.71498">
        <ele>51.42</ele>
        <time>2019-05-28T10:13:18.000Z</time>
      </trkpt>
      <trkpt lat="44.23928" lon="4.71507">
        <ele>52.42</ele>
        <time>2019-05-28T10:13:23.000Z</time>
      </trkpt>
      <trkpt lat="44.23935" lon="4.71498">
        <ele>52.43</ele>
        <time>2019-05-28T10:13:30.000Z</time>
      </trkpt>
      <trkpt lat="44.23946" lon="4.71472">
        <ele>49.49</ele>
        <time>2019-05-28T10:13:35.000Z</time>
      </trkpt>
      <trkpt lat="44.23958" lon="4.71453">
        <ele>51.17</ele>
        <time>2019-05-28T10:13:40.000Z</time>
      </trkpt>
      <trkpt lat="44.23965" lon="4.71442">
        <ele>48.49</ele>
        <time>2019-05-28T10:13:46.000Z</time>
      </trkpt>
      <trkpt lat="44.23963" lon="4.71426">
        <ele>49.36</ele>
        <time>2019-05-28T10:13:51.000Z</time>
      </trkpt>
      <trkpt lat="44.23945" lon="4.71424">
        <ele>50.34</ele>
        <time>2019-05-28T10:13:56.000Z</time>
      </trkpt>
      <trkpt lat="44.23921" lon="4.71421">
        <ele>48.73</ele>
        <time>2019-05-28T10:14:01.000Z</time>
      </trkpt>
      <trkpt lat="44.23905" lon="4.71442">
        <ele>47.13</ele>
        <time>2019-05-28T10:14:06.000Z</time>
      </trkpt>
      <trkpt lat="44.23894" lon="4.71457">
        <ele>47.17</ele>
        <time>2019-05-28T10:14:11.000Z</time>
      </trkpt>
      <trkpt lat="44.23885" lon="4.71475">
        <ele>49.22</ele>
        <time>2019-05-28T10:14:16.000Z</time>
      </trkpt>
      <trkpt lat="44.23875" lon="4.71484">
        <ele>53.1</ele>
        <time>2019-05-28T10:14:21.000Z</time>
      </trkpt>
      <trkpt lat="44.23865" lon="4.71479">
        <ele>53.47</ele>
        <time>2019-05-28T10:14:26.000Z</time>
      </trkpt>
      <trkpt lat="44.23858" lon="4.71467">
        <ele>53.47</ele>
        <time>2019-05-28T10:14:31.000Z</time>
      </trkpt>
      <trkpt lat="44.23855" lon="4.71454">
        <ele>54.36</ele>
        <time>2019-05-28T10:14:36.000Z</time>
      </trkpt>
      <trkpt lat="44.23845" lon="4.71449">
        <ele>53.21</ele>
        <time>2019-05-28T10:14:44.000Z</time>
      </trkpt>
      <trkpt lat="44.23833" lon="4.71444">
        <ele>51.69</ele>
        <time>2019-05-28T10:14:49.000Z</time>
      </trkpt>
      <trkpt lat="44.23834" lon="4.71429">
        <ele>52.67</ele>
        <time>2019-05-28T10:15:00.000Z</time>
      </trkpt>
      <trkpt lat="44.23833" lon="4.71406">
        <ele>53.17</ele>
        <time>2019-05-28T10:15:05.000Z</time>
      </trkpt>
      <trkpt lat="44.23831" lon="4.7139">
        <ele>49.83</ele>
        <time>2019-05-28T10:15:11.000Z</time>
      </trkpt>
      <trkpt lat="44.23828" lon="4.71369">
        <ele>47.5</ele>
        <time>2019-05-28T10:15:16.000Z</time>
      </trkpt>
      <trkpt lat="44.23816" lon="4.7136">
        <ele>46.67</ele>
        <time>2019-05-28T10:15:21.000Z</time>
      </trkpt>
      <trkpt lat="44.23807" lon="4.7136">
        <ele>44.38</ele>
        <time>2019-05-28T10:15:26.000Z</time>
      </trkpt>
      <trkpt lat="44.23807" lon="4.71341">
        <ele>45.17</ele>
        <time>2019-05-28T10:15:31.000Z</time>
      </trkpt>
      <trkpt lat="44.23802" lon="4.71329">
        <ele>45.42</ele>
        <time>2019-05-28T10:15:36.000Z</time>
      </trkpt>
      <trkpt lat="44.23792" lon="4.71337">
        <ele>44.38</ele>
        <time>2019-05-28T10:15:41.000Z</time>
      </trkpt>
      <trkpt lat="44.2378" lon="4.71338">
        <ele>45.42</ele>
        <time>2019-05-28T10:15:46.000Z</time>
      </trkpt>
      <trkpt lat="44.23779" lon="4.7132">
        <ele>44.23</ele>
        <time>2019-05-28T10:15:51.000Z</time>
      </trkpt>
      <trkpt lat="44.23774" lon="4.71305">
        <ele>45.41</ele>
        <time>2019-05-28T10:15:56.000Z</time>
      </trkpt>
      <trkpt lat="44.23756" lon="4.71302">
        <ele>46.36</ele>
        <time>2019-05-28T10:16:01.000Z</time>
      </trkpt>
      <trkpt lat="44.23735" lon="4.713">
        <ele>45.43</ele>
        <time>2019-05-28T10:16:06.000Z</time>
      </trkpt>
      <trkpt lat="44.23713" lon="4.71303">
        <ele>45.42</ele>
        <time>2019-05-28T10:16:11.000Z</time>
      </trkpt>
      <trkpt lat="44.2371" lon="4.71288">
        <ele>44.17</ele>
        <time>2019-05-28T10:16:27.000Z</time>
      </trkpt>
      <trkpt lat="44.23709" lon="4.71275">
        <ele>46.42</ele>
        <time>2019-05-28T10:16:32.000Z</time>
      </trkpt>
      <trkpt lat="44.23701" lon="4.7127">
        <ele>45.43</ele>
        <time>2019-05-28T10:16:39.000Z</time>
      </trkpt>
      <trkpt lat="44.23683" lon="4.71279">
        <ele>45.47</ele>
        <time>2019-05-28T10:16:44.000Z</time>
      </trkpt>
      <trkpt lat="44.23666" lon="4.71299">
        <ele>43.69</ele>
        <time>2019-05-28T10:16:49.000Z</time>
      </trkpt>
      <trkpt lat="44.23654" lon="4.71323">
        <ele>44.41</ele>
        <time>2019-05-28T10:16:54.000Z</time>
      </trkpt>
      <trkpt lat="44.2364" lon="4.71344">
        <ele>45.35</ele>
        <time>2019-05-28T10:16:59.000Z</time>
      </trkpt>
      <trkpt lat="44.23618" lon="4.7134">
        <ele>45.43</ele>
        <time>2019-05-28T10:17:04.000Z</time>
      </trkpt>
      <trkpt lat="44.23599" lon="4.71327">
        <ele>44.66</ele>
        <time>2019-05-28T10:17:09.000Z</time>
      </trkpt>
      <trkpt lat="44.23577" lon="4.71314">
        <ele>45.93</ele>
        <time>2019-05-28T10:17:14.000Z</time>
      </trkpt>
      <trkpt lat="44.23553" lon="4.71299">
        <ele>44.46</ele>
        <time>2019-05-28T10:17:19.000Z</time>
      </trkpt>
      <trkpt lat="44.2353" lon="4.71286">
        <ele>44.43</ele>
        <time>2019-05-28T10:17:24.000Z</time>
      </trkpt>
      <trkpt lat="44.23505" lon="4.71276">
        <ele>45.6</ele>
        <time>2019-05-28T10:17:29.000Z</time>
      </trkpt>
      <trkpt lat="44.23476" lon="4.71272">
        <ele>45.67</ele>
        <time>2019-05-28T10:17:34.000Z</time>
      </trkpt>
      <trkpt lat="44.23449" lon="4.71274">
        <ele>43.68</ele>
        <time>2019-05-28T10:17:39.000Z</time>
      </trkpt>
      <trkpt lat="44.23422" lon="4.7127">
        <ele>42.43</ele>
        <time>2019-05-28T10:17:44.000Z</time>
      </trkpt>
      <trkpt lat="44.23397" lon="4.71252">
        <ele>43.63</ele>
        <time>2019-05-28T10:17:49.000Z</time>
      </trkpt>
      <trkpt lat="44.23372" lon="4.7122">
        <ele>45.77</ele>
        <time>2019-05-28T10:17:54.000Z</time>
      </trkpt>
      <trkpt lat="44.23369" lon="4.71187">
        <ele>43.63</ele>
        <time>2019-05-28T10:17:59.000Z</time>
      </trkpt>
      <trkpt lat="44.2337" lon="4.71173">
        <ele>45.44</ele>
        <time>2019-05-28T10:18:23.000Z</time>
      </trkpt>
      <trkpt lat="44.23364" lon="4.71149">
        <ele>44.62</ele>
        <time>2019-05-28T10:18:28.000Z</time>
      </trkpt>
      <trkpt lat="44.23347" lon="4.71126">
        <ele>45.42</ele>
        <time>2019-05-28T10:18:33.000Z</time>
      </trkpt>
      <trkpt lat="44.23329" lon="4.71105">
        <ele>45.43</ele>
        <time>2019-05-28T10:18:38.000Z</time>
      </trkpt>
      <trkpt lat="44.23309" lon="4.71084">
        <ele>46.66</ele>
        <time>2019-05-28T10:18:43.000Z</time>
      </trkpt>
      <trkpt lat="44.23288" lon="4.71061">
        <ele>46.43</ele>
        <time>2019-05-28T10:18:48.000Z</time>
      </trkpt>
      <trkpt lat="44.23267" lon="4.71041">
        <ele>44.68</ele>
        <time>2019-05-28T10:18:53.000Z</time>
      </trkpt>
      <trkpt lat="44.23244" lon="4.7102">
        <ele>41.24</ele>
        <time>2019-05-28T10:18:58.000Z</time>
      </trkpt>
      <trkpt lat="44.23216" lon="4.70998">
        <ele>41.18</ele>
        <time>2019-05-28T10:19:03.000Z</time>
      </trkpt>
      <trkpt lat="44.23187" lon="4.70977">
        <ele>42.18</ele>
        <time>2019-05-28T10:19:08.000Z</time>
      </trkpt>
      <trkpt lat="44.23161" lon="4.70957">
        <ele>43.41</ele>
        <time>2019-05-28T10:19:13.000Z</time>
      </trkpt>
      <trkpt lat="44.23136" lon="4.70935">
        <ele>42.43</ele>
        <time>2019-05-28T10:19:18.000Z</time>
      </trkpt>
      <trkpt lat="44.23105" lon="4.70933">
        <ele>39.5</ele>
        <time>2019-05-28T10:19:23.000Z</time>
      </trkpt>
      <trkpt lat="44.23084" lon="4.70923">
        <ele>40.43</ele>
        <time>2019-05-28T10:19:28.000Z</time>
      </trkpt>
      <trkpt lat="44.23074" lon="4.70897">
        <ele>40.43</ele>
        <time>2019-05-28T10:19:33.000Z</time>
      </trkpt>
      <trkpt lat="44.23065" lon="4.70866">
        <ele>41.12</ele>
        <time>2019-05-28T10:19:38.000Z</time>
      </trkpt>
      <trkpt lat="44.23051" lon="4.70874">
        <ele>41.49</ele>
        <time>2019-05-28T10:19:43.000Z</time>
      </trkpt>
      <trkpt lat="44.23033" lon="4.70885">
        <ele>37.77</ele>
        <time>2019-05-28T10:19:48.000Z</time>
      </trkpt>
      <trkpt lat="44.23007" lon="4.70897">
        <ele>38.18</ele>
        <time>2019-05-28T10:19:53.000Z</time>
      </trkpt>
      <trkpt lat="44.22979" lon="4.70917">
        <ele>41.43</ele>
        <time>2019-05-28T10:19:58.000Z</time>
      </trkpt>
      <trkpt lat="44.22948" lon="4.70931">
        <ele>40.37</ele>
        <time>2019-05-28T10:20:03.000Z</time>
      </trkpt>
      <trkpt lat="44.22918" lon="4.70947">
        <ele>41.6</ele>
        <time>2019-05-28T10:20:08.000Z</time>
      </trkpt>
      <trkpt lat="44.22887" lon="4.70964">
        <ele>40.5</ele>
        <time>2019-05-28T10:20:13.000Z</time>
      </trkpt>
      <trkpt lat="44.22856" lon="4.70981">
        <ele>41.43</ele>
        <time>2019-05-28T10:20:18.000Z</time>
      </trkpt>
      <trkpt lat="44.22826" lon="4.70997">
        <ele>41.43</ele>
        <time>2019-05-28T10:20:23.000Z</time>
      </trkpt>
      <trkpt lat="44.22796" lon="4.71011">
        <ele>39.44</ele>
        <time>2019-05-28T10:20:28.000Z</time>
      </trkpt>
      <trkpt lat="44.22762" lon="4.71005">
        <ele>40.42</ele>
        <time>2019-05-28T10:20:33.000Z</time>
      </trkpt>
      <trkpt lat="44.22728" lon="4.70999">
        <ele>40.42</ele>
        <time>2019-05-28T10:20:38.000Z</time>
      </trkpt>
      <trkpt lat="44.22694" lon="4.70996">
        <ele>39.63</ele>
        <time>2019-05-28T10:20:43.000Z</time>
      </trkpt>
      <trkpt lat="44.22659" lon="4.70991">
        <ele>39.44</ele>
        <time>2019-05-28T10:20:48.000Z</time>
      </trkpt>
      <trkpt lat="44.22626" lon="4.70987">
        <ele>40.19</ele>
        <time>2019-05-28T10:20:53.000Z</time>
      </trkpt>
      <trkpt lat="44.22591" lon="4.70982">
        <ele>38.5</ele>
        <time>2019-05-28T10:20:58.000Z</time>
      </trkpt>
      <trkpt lat="44.22556" lon="4.70978">
        <ele>39.43</ele>
        <time>2019-05-28T10:21:03.000Z</time>
      </trkpt>
      <trkpt lat="44.22528" lon="4.70986">
        <ele>39.44</ele>
        <time>2019-05-28T10:21:08.000Z</time>
      </trkpt>
      <trkpt lat="44.22517" lon="4.71024">
        <ele>39.45</ele>
        <time>2019-05-28T10:21:13.000Z</time>
      </trkpt>
      <trkpt lat="44.22506" lon="4.71065">
        <ele>38.44</ele>
        <time>2019-05-28T10:21:18.000Z</time>
      </trkpt>
      <trkpt lat="44.22494" lon="4.71106">
        <ele>39.42</ele>
        <time>2019-05-28T10:21:23.000Z</time>
      </trkpt>
      <trkpt lat="44.22482" lon="4.71148">
        <ele>41.37</ele>
        <time>2019-05-28T10:21:28.000Z</time>
      </trkpt>
      <trkpt lat="44.22471" lon="4.7119">
        <ele>40.21</ele>
        <time>2019-05-28T10:21:33.000Z</time>
      </trkpt>
      <trkpt lat="44.22459" lon="4.71232">
        <ele>39.45</ele>
        <time>2019-05-28T10:21:38.000Z</time>
      </trkpt>
      <trkpt lat="44.22435" lon="4.71263">
        <ele>39.43</ele>
        <time>2019-05-28T10:21:43.000Z</time>
      </trkpt>
      <trkpt lat="44.22406" lon="4.71287">
        <ele>38.44</ele>
        <time>2019-05-28T10:21:48.000Z</time>
      </trkpt>
      <trkpt lat="44.22379" lon="4.71312">
        <ele>39.44</ele>
        <time>2019-05-28T10:21:53.000Z</time>
      </trkpt>
      <trkpt lat="44.2235" lon="4.71338">
        <ele>38.46</ele>
        <time>2019-05-28T10:21:58.000Z</time>
      </trkpt>
      <trkpt lat="44.22321" lon="4.71365">
        <ele>39.42</ele>
        <time>2019-05-28T10:22:03.000Z</time>
      </trkpt>
      <trkpt lat="44.22292" lon="4.71394">
        <ele>40.19</ele>
        <time>2019-05-28T10:22:08.000Z</time>
      </trkpt>
      <trkpt lat="44.22264" lon="4.71421">
        <ele>40.44</ele>
        <time>2019-05-28T10:22:13.000Z</time>
      </trkpt>
      <trkpt lat="44.22237" lon="4.71452">
        <ele>40.44</ele>
        <time>2019-05-28T10:22:18.000Z</time>
      </trkpt>
      <trkpt lat="44.22208" lon="4.71481">
        <ele>41.38</ele>
        <time>2019-05-28T10:22:23.000Z</time>
      </trkpt>
      <trkpt lat="44.2218" lon="4.71511">
        <ele>41.4</ele>
        <time>2019-05-28T10:22:28.000Z</time>
      </trkpt>
      <trkpt lat="44.22151" lon="4.71544">
        <ele>41.44</ele>
        <time>2019-05-28T10:22:33.000Z</time>
      </trkpt>
      <trkpt lat="44.22122" lon="4.71575">
        <ele>40.44</ele>
        <time>2019-05-28T10:22:38.000Z</time>
      </trkpt>
      <trkpt lat="44.22093" lon="4.71607">
        <ele>40.26</ele>
        <time>2019-05-28T10:22:43.000Z</time>
      </trkpt>
      <trkpt lat="44.22067" lon="4.71639">
        <ele>39.49</ele>
        <time>2019-05-28T10:22:48.000Z</time>
      </trkpt>
      <trkpt lat="44.22043" lon="4.71668">
        <ele>40.44</ele>
        <time>2019-05-28T10:22:53.000Z</time>
      </trkpt>
      <trkpt lat="44.2202" lon="4.71692">
        <ele>40.4</ele>
        <time>2019-05-28T10:22:58.000Z</time>
      </trkpt>
      <trkpt lat="44.21998" lon="4.71716">
        <ele>42.38</ele>
        <time>2019-05-28T10:23:03.000Z</time>
      </trkpt>
      <trkpt lat="44.21977" lon="4.71735">
        <ele>44.19</ele>
        <time>2019-05-28T10:23:08.000Z</time>
      </trkpt>
      <trkpt lat="44.21958" lon="4.71747">
        <ele>45.38</ele>
        <time>2019-05-28T10:23:13.000Z</time>
      </trkpt>
      <trkpt lat="44.21937" lon="4.71758">
        <ele>46.2</ele>
        <time>2019-05-28T10:23:18.000Z</time>
      </trkpt>
      <trkpt lat="44.21917" lon="4.71769">
        <ele>46.45</ele>
        <time>2019-05-28T10:23:23.000Z</time>
      </trkpt>
      <trkpt lat="44.21901" lon="4.71785">
        <ele>47.4</ele>
        <time>2019-05-28T10:23:28.000Z</time>
      </trkpt>
      <trkpt lat="44.21886" lon="4.71812">
        <ele>45.52</ele>
        <time>2019-05-28T10:23:33.000Z</time>
      </trkpt>
      <trkpt lat="44.21867" lon="4.7185">
        <ele>44.46</ele>
        <time>2019-05-28T10:23:38.000Z</time>
      </trkpt>
      <trkpt lat="44.21843" lon="4.71889">
        <ele>42.51</ele>
        <time>2019-05-28T10:23:43.000Z</time>
      </trkpt>
      <trkpt lat="44.21812" lon="4.71925">
        <ele>41.7</ele>
        <time>2019-05-28T10:23:48.000Z</time>
      </trkpt>
      <trkpt lat="44.21776" lon="4.71961">
        <ele>40.51</ele>
        <time>2019-05-28T10:23:53.000Z</time>
      </trkpt>
      <trkpt lat="44.21739" lon="4.71997">
        <ele>39.51</ele>
        <time>2019-05-28T10:23:58.000Z</time>
      </trkpt>
      <trkpt lat="44.21702" lon="4.7203">
        <ele>39.45</ele>
        <time>2019-05-28T10:24:03.000Z</time>
      </trkpt>
      <trkpt lat="44.21666" lon="4.72062">
        <ele>40.39</ele>
        <time>2019-05-28T10:24:08.000Z</time>
      </trkpt>
      <trkpt lat="44.21632" lon="4.72091">
        <ele>39.45</ele>
        <time>2019-05-28T10:24:13.000Z</time>
      </trkpt>
      <trkpt lat="44.216" lon="4.72121">
        <ele>39.45</ele>
        <time>2019-05-28T10:24:18.000Z</time>
      </trkpt>
      <trkpt lat="44.21565" lon="4.72144">
        <ele>40.45</ele>
        <time>2019-05-28T10:24:23.000Z</time>
      </trkpt>
      <trkpt lat="44.21534" lon="4.72169">
        <ele>39.7</ele>
        <time>2019-05-28T10:24:28.000Z</time>
      </trkpt>
      <trkpt lat="44.215" lon="4.72192">
        <ele>41.39</ele>
        <time>2019-05-28T10:24:33.000Z</time>
      </trkpt>
      <trkpt lat="44.21467" lon="4.72216">
        <ele>41.46</ele>
        <time>2019-05-28T10:24:38.000Z</time>
      </trkpt>
      <trkpt lat="44.21436" lon="4.72234">
        <ele>41.45</ele>
        <time>2019-05-28T10:24:43.000Z</time>
      </trkpt>
      <trkpt lat="44.21405" lon="4.72252">
        <ele>41.45</ele>
        <time>2019-05-28T10:24:48.000Z</time>
      </trkpt>
      <trkpt lat="44.21371" lon="4.72271">
        <ele>40.46</ele>
        <time>2019-05-28T10:24:53.000Z</time>
      </trkpt>
      <trkpt lat="44.21339" lon="4.72288">
        <ele>39.52</ele>
        <time>2019-05-28T10:24:58.000Z</time>
      </trkpt>
      <trkpt lat="44.21307" lon="4.72301">
        <ele>38.72</ele>
        <time>2019-05-28T10:25:03.000Z</time>
      </trkpt>
      <trkpt lat="44.21275" lon="4.72314">
        <ele>39.21</ele>
        <time>2019-05-28T10:25:08.000Z</time>
      </trkpt>
      <trkpt lat="44.21244" lon="4.72328">
        <ele>39.69</ele>
        <time>2019-05-28T10:25:13.000Z</time>
      </trkpt>
      <trkpt lat="44.21216" lon="4.72338">
        <ele>41.39</ele>
        <time>2019-05-28T10:25:18.000Z</time>
      </trkpt>
      <trkpt lat="44.21189" lon="4.72346">
        <ele>43.39</ele>
        <time>2019-05-28T10:25:23.000Z</time>
      </trkpt>
      <trkpt lat="44.21168" lon="4.72347">
        <ele>45.39</ele>
        <time>2019-05-28T10:25:28.000Z</time>
      </trkpt>
      <trkpt lat="44.21148" lon="4.72345">
        <ele>45.46</ele>
        <time>2019-05-28T10:25:33.000Z</time>
      </trkpt>
      <trkpt lat="44.21132" lon="4.7234">
        <ele>48.08</ele>
        <time>2019-05-28T10:25:38.000Z</time>
      </trkpt>
      <trkpt lat="44.21113" lon="4.72338">
        <ele>48.4</ele>
        <time>2019-05-28T10:25:43.000Z</time>
      </trkpt>
      <trkpt lat="44.21097" lon="4.72336">
        <ele>46.72</ele>
        <time>2019-05-28T10:25:48.000Z</time>
      </trkpt>
      <trkpt lat="44.21082" lon="4.72339">
        <ele>46.14</ele>
        <time>2019-05-28T10:25:53.000Z</time>
      </trkpt>
      <trkpt lat="44.2108" lon="4.72361">
        <ele>47.45</ele>
        <time>2019-05-28T10:25:58.000Z</time>
      </trkpt>
      <trkpt lat="44.21083" lon="4.7238">
        <ele>48.39</ele>
        <time>2019-05-28T10:26:03.000Z</time>
      </trkpt>
      <trkpt lat="44.2109" lon="4.7237">
        <ele>47.39</ele>
        <time>2019-05-28T10:26:48.000Z</time>
      </trkpt>
      <trkpt lat="44.21084" lon="4.72347">
        <ele>47.46</ele>
        <time>2019-05-28T10:26:53.000Z</time>
      </trkpt>
      <trkpt lat="44.21063" lon="4.72345">
        <ele>47.46</ele>
        <time>2019-05-28T10:26:58.000Z</time>
      </trkpt>
      <trkpt lat="44.21035" lon="4.72359">
        <ele>46.46</ele>
        <time>2019-05-28T10:27:03.000Z</time>
      </trkpt>
      <trkpt lat="44.21002" lon="4.72376">
        <ele>45.46</ele>
        <time>2019-05-28T10:27:08.000Z</time>
      </trkpt>
      <trkpt lat="44.20963" lon="4.7238">
        <ele>42.71</ele>
        <time>2019-05-28T10:27:13.000Z</time>
      </trkpt>
      <trkpt lat="44.20918" lon="4.72379">
        <ele>39.79</ele>
        <time>2019-05-28T10:27:18.000Z</time>
      </trkpt>
      <trkpt lat="44.20875" lon="4.72378">
        <ele>39.4</ele>
        <time>2019-05-28T10:27:23.000Z</time>
      </trkpt>
      <trkpt lat="44.20833" lon="4.72377">
        <ele>38.48</ele>
        <time>2019-05-28T10:27:28.000Z</time>
      </trkpt>
      <trkpt lat="44.20795" lon="4.72375">
        <ele>38.46</ele>
        <time>2019-05-28T10:27:33.000Z</time>
      </trkpt>
      <trkpt lat="44.20755" lon="4.72373">
        <ele>38.46</ele>
        <time>2019-05-28T10:27:38.000Z</time>
      </trkpt>
      <trkpt lat="44.20714" lon="4.72373">
        <ele>37.46</ele>
        <time>2019-05-28T10:27:43.000Z</time>
      </trkpt>
      <trkpt lat="44.20674" lon="4.72371">
        <ele>38.4</ele>
        <time>2019-05-28T10:27:48.000Z</time>
      </trkpt>
      <trkpt lat="44.20633" lon="4.7237">
        <ele>37.47</ele>
        <time>2019-05-28T10:27:53.000Z</time>
      </trkpt>
      <trkpt lat="44.20591" lon="4.72371">
        <ele>37.46</ele>
        <time>2019-05-28T10:27:58.000Z</time>
      </trkpt>
      <trkpt lat="44.20551" lon="4.72373">
        <ele>37.46</ele>
        <time>2019-05-28T10:28:03.000Z</time>
      </trkpt>
      <trkpt lat="44.2051" lon="4.72379">
        <ele>37.46</ele>
        <time>2019-05-28T10:28:08.000Z</time>
      </trkpt>
      <trkpt lat="44.20469" lon="4.72389">
        <ele>36.71</ele>
        <time>2019-05-28T10:28:13.000Z</time>
      </trkpt>
      <trkpt lat="44.20428" lon="4.72401">
        <ele>37.45</ele>
        <time>2019-05-28T10:28:18.000Z</time>
      </trkpt>
      <trkpt lat="44.20388" lon="4.72414">
        <ele>37.47</ele>
        <time>2019-05-28T10:28:23.000Z</time>
      </trkpt>
      <trkpt lat="44.20349" lon="4.72429">
        <ele>39.21</ele>
        <time>2019-05-28T10:28:28.000Z</time>
      </trkpt>
      <trkpt lat="44.2031" lon="4.72444">
        <ele>38.53</ele>
        <time>2019-05-28T10:28:33.000Z</time>
      </trkpt>
      <trkpt lat="44.20272" lon="4.72459">
        <ele>37.73</ele>
        <time>2019-05-28T10:28:38.000Z</time>
      </trkpt>
      <trkpt lat="44.20231" lon="4.72451">
        <ele>38.28</ele>
        <time>2019-05-28T10:28:43.000Z</time>
      </trkpt>
      <trkpt lat="44.20195" lon="4.72435">
        <ele>38.47</ele>
        <time>2019-05-28T10:28:48.000Z</time>
      </trkpt>
      <trkpt lat="44.20159" lon="4.72419">
        <ele>38.47</ele>
        <time>2019-05-28T10:28:53.000Z</time>
      </trkpt>
      <trkpt lat="44.20123" lon="4.72404">
        <ele>37.53</ele>
        <time>2019-05-28T10:28:58.000Z</time>
      </trkpt>
      <trkpt lat="44.20088" lon="4.72389">
        <ele>38.45</ele>
        <time>2019-05-28T10:29:03.000Z</time>
      </trkpt>
      <trkpt lat="44.20055" lon="4.72374">
        <ele>38.66</ele>
        <time>2019-05-28T10:29:08.000Z</time>
      </trkpt>
      <trkpt lat="44.20043" lon="4.72407">
        <ele>39.22</ele>
        <time>2019-05-28T10:29:13.000Z</time>
      </trkpt>
      <trkpt lat="44.20049" lon="4.72449">
        <ele>38.53</ele>
        <time>2019-05-28T10:29:18.000Z</time>
      </trkpt>
      <trkpt lat="44.20055" lon="4.72487">
        <ele>40.41</ele>
        <time>2019-05-28T10:29:23.000Z</time>
      </trkpt>
      <trkpt lat="44.20059" lon="4.72519">
        <ele>42.41</ele>
        <time>2019-05-28T10:29:28.000Z</time>
      </trkpt>
      <trkpt lat="44.20061" lon="4.72545">
        <ele>43.22</ele>
        <time>2019-05-28T10:29:33.000Z</time>
      </trkpt>
      <trkpt lat="44.2006" lon="4.7257">
        <ele>43.15</ele>
        <time>2019-05-28T10:29:38.000Z</time>
      </trkpt>
      <trkpt lat="44.20056" lon="4.72595">
        <ele>42.47</ele>
        <time>2019-05-28T10:29:43.000Z</time>
      </trkpt>
      <trkpt lat="44.20043" lon="4.72624">
        <ele>40.72</ele>
        <time>2019-05-28T10:29:48.000Z</time>
      </trkpt>
      <trkpt lat="44.20024" lon="4.72658">
        <ele>39.49</ele>
        <time>2019-05-28T10:29:53.000Z</time>
      </trkpt>
      <trkpt lat="44.19999" lon="4.72681">
        <ele>36.49</ele>
        <time>2019-05-28T10:29:58.000Z</time>
      </trkpt>
      <trkpt lat="44.1997" lon="4.72699">
        <ele>36.47</ele>
        <time>2019-05-28T10:30:03.000Z</time>
      </trkpt>
      <trkpt lat="44.19936" lon="4.72713">
        <ele>38.45</ele>
        <time>2019-05-28T10:30:08.000Z</time>
      </trkpt>
      <trkpt lat="44.19903" lon="4.72704">
        <ele>37.25</ele>
        <time>2019-05-28T10:30:13.000Z</time>
      </trkpt>
      <trkpt lat="44.19869" lon="4.72698">
        <ele>37.47</ele>
        <time>2019-05-28T10:30:18.000Z</time>
      </trkpt>
      <trkpt lat="44.19837" lon="4.72692">
        <ele>36.49</ele>
        <time>2019-05-28T10:30:23.000Z</time>
      </trkpt>
      <trkpt lat="44.19802" lon="4.72698">
        <ele>35.29</ele>
        <time>2019-05-28T10:30:28.000Z</time>
      </trkpt>
      <trkpt lat="44.1977" lon="4.72719">
        <ele>36.46</ele>
        <time>2019-05-28T10:30:33.000Z</time>
      </trkpt>
      <trkpt lat="44.19746" lon="4.72738">
        <ele>36.71</ele>
        <time>2019-05-28T10:30:38.000Z</time>
      </trkpt>
      <trkpt lat="44.19718" lon="4.72746">
        <ele>37.46</ele>
        <time>2019-05-28T10:30:43.000Z</time>
      </trkpt>
      <trkpt lat="44.19696" lon="4.72737">
        <ele>36.66</ele>
        <time>2019-05-28T10:30:48.000Z</time>
      </trkpt>
      <trkpt lat="44.19694" lon="4.72719">
        <ele>37.47</ele>
        <time>2019-05-28T10:30:53.000Z</time>
      </trkpt>
      <trkpt lat="44.19691" lon="4.72731">
        <ele>40.16</ele>
        <time>2019-05-28T10:31:02.000Z</time>
      </trkpt>
      <trkpt lat="44.19693" lon="4.72744">
        <ele>39.52</ele>
        <time>2019-05-28T10:31:34.000Z</time>
      </trkpt>
      <trkpt lat="44.19698" lon="4.7276">
        <ele>39.47</ele>
        <time>2019-05-28T10:31:39.000Z</time>
      </trkpt>
      <trkpt lat="44.19718" lon="4.72753">
        <ele>39.41</ele>
        <time>2019-05-28T10:31:44.000Z</time>
      </trkpt>
      <trkpt lat="44.1973" lon="4.7275">
        <ele>39.66</ele>
        <time>2019-05-28T10:31:49.000Z</time>
      </trkpt>
      <trkpt lat="44.19738" lon="4.72743">
        <ele>38.41</ele>
        <time>2019-05-28T10:32:13.000Z</time>
      </trkpt>
      <trkpt lat="44.19752" lon="4.72741">
        <ele>38.47</ele>
        <time>2019-05-28T10:32:18.000Z</time>
      </trkpt>
      <trkpt lat="44.19764" lon="4.72739">
        <ele>38.47</ele>
        <time>2019-05-28T10:32:23.000Z</time>
      </trkpt>
      <trkpt lat="44.19778" lon="4.72736">
        <ele>37.54</ele>
        <time>2019-05-28T10:32:28.000Z</time>
      </trkpt>
      <trkpt lat="44.19794" lon="4.72733">
        <ele>37.53</ele>
        <time>2019-05-28T10:32:33.000Z</time>
      </trkpt>
      <trkpt lat="44.19808" lon="4.7273">
        <ele>39.41</ele>
        <time>2019-05-28T10:32:38.000Z</time>
      </trkpt>
      <trkpt lat="44.19823" lon="4.72727">
        <ele>40.46</ele>
        <time>2019-05-28T10:32:43.000Z</time>
      </trkpt>
      <trkpt lat="44.19839" lon="4.72729">
        <ele>42.41</ele>
        <time>2019-05-28T10:32:48.000Z</time>
      </trkpt>
      <trkpt lat="44.19855" lon="4.72734">
        <ele>43.46</ele>
        <time>2019-05-28T10:32:53.000Z</time>
      </trkpt>
      <trkpt lat="44.1987" lon="4.72743">
        <ele>45.46</ele>
        <time>2019-05-28T10:32:58.000Z</time>
      </trkpt>
      <trkpt lat="44.19883" lon="4.72757">
        <ele>45.47</ele>
        <time>2019-05-28T10:33:03.000Z</time>
      </trkpt>
      <trkpt lat="44.19895" lon="4.72774">
        <ele>45.47</ele>
        <time>2019-05-28T10:33:08.000Z</time>
      </trkpt>
      <trkpt lat="44.19905" lon="4.72793">
        <ele>45.41</ele>
        <time>2019-05-28T10:33:13.000Z</time>
      </trkpt>
      <trkpt lat="44.19916" lon="4.72816">
        <ele>46.47</ele>
        <time>2019-05-28T10:33:18.000Z</time>
      </trkpt>
      <trkpt lat="44.19927" lon="4.72838">
        <ele>47.46</ele>
        <time>2019-05-28T10:33:23.000Z</time>
      </trkpt>
      <trkpt lat="44.19938" lon="4.72862">
        <ele>46.47</ele>
        <time>2019-05-28T10:33:28.000Z</time>
      </trkpt>
      <trkpt lat="44.1995" lon="4.72887">
        <ele>45.16</ele>
        <time>2019-05-28T10:33:33.000Z</time>
      </trkpt>
      <trkpt lat="44.19959" lon="4.7292">
        <ele>45.23</ele>
        <time>2019-05-28T10:33:38.000Z</time>
      </trkpt>
      <trkpt lat="44.19962" lon="4.72961">
        <ele>44.48</ele>
        <time>2019-05-28T10:33:43.000Z</time>
      </trkpt>
      <trkpt lat="44.19963" lon="4.73011">
        <ele>41.78</ele>
        <time>2019-05-28T10:33:48.000Z</time>
      </trkpt>
      <trkpt lat="44.19976" lon="4.7306">
        <ele>40.49</ele>
        <time>2019-05-28T10:33:53.000Z</time>
      </trkpt>
      <trkpt lat="44.19993" lon="4.73091">
        <ele>38.73</ele>
        <time>2019-05-28T10:33:58.000Z</time>
      </trkpt>
      <trkpt lat="44.20009" lon="4.73072">
        <ele>38.23</ele>
        <time>2019-05-28T10:34:03.000Z</time>
      </trkpt>
      <trkpt lat="44.20025" lon="4.73048">
        <ele>37.29</ele>
        <time>2019-05-28T10:34:08.000Z</time>
      </trkpt>
      <trkpt lat="44.2004" lon="4.73034">
        <ele>37.72</ele>
        <time>2019-05-28T10:34:13.000Z</time>
      </trkpt>
      <trkpt lat="44.20053" lon="4.73017">
        <ele>38.41</ele>
        <time>2019-05-28T10:34:18.000Z</time>
      </trkpt>
      <trkpt lat="44.20064" lon="4.72996">
        <ele>37.72</ele>
        <time>2019-05-28T10:34:23.000Z</time>
      </trkpt>
      <trkpt lat="44.2006" lon="4.72962">
        <ele>38.22</ele>
        <time>2019-05-28T10:34:28.000Z</time>
      </trkpt>
      <trkpt lat="44.20057" lon="4.72932">
        <ele>37.47</ele>
        <time>2019-05-28T10:34:33.000Z</time>
      </trkpt>
      <trkpt lat="44.20052" lon="4.729">
        <ele>36.91</ele>
        <time>2019-05-28T10:34:38.000Z</time>
      </trkpt>
      <trkpt lat="44.20049" lon="4.72868">
        <ele>37.45</ele>
        <time>2019-05-28T10:34:43.000Z</time>
      </trkpt>
      <trkpt lat="44.20045" lon="4.72837">
        <ele>39.17</ele>
        <time>2019-05-28T10:34:48.000Z</time>
      </trkpt>
      <trkpt lat="44.20041" lon="4.72806">
        <ele>38.72</ele>
        <time>2019-05-28T10:34:53.000Z</time>
      </trkpt>
      <trkpt lat="44.2004" lon="4.72775">
        <ele>36.54</ele>
        <time>2019-05-28T10:34:58.000Z</time>
      </trkpt>
      <trkpt lat="44.20055" lon="4.72749">
        <ele>38.22</ele>
        <time>2019-05-28T10:35:03.000Z</time>
      </trkpt>
      <trkpt lat="44.20076" lon="4.72738">
        <ele>39.41</ele>
        <time>2019-05-28T10:35:08.000Z</time>
      </trkpt>
      <trkpt lat="44.20096" lon="4.72726">
        <ele>40.47</ele>
        <time>2019-05-28T10:35:13.000Z</time>
      </trkpt>
      <trkpt lat="44.20119" lon="4.72717">
        <ele>40.4</ele>
        <time>2019-05-28T10:35:18.000Z</time>
      </trkpt>
      <trkpt lat="44.2014" lon="4.72718">
        <ele>42.45</ele>
        <time>2019-05-28T10:35:23.000Z</time>
      </trkpt>
      <trkpt lat="44.20159" lon="4.72714">
        <ele>41.48</ele>
        <time>2019-05-28T10:35:28.000Z</time>
      </trkpt>
      <trkpt lat="44.20166" lon="4.72732">
        <ele>42.28</ele>
        <time>2019-05-28T10:35:33.000Z</time>
      </trkpt>
      <trkpt lat="44.20174" lon="4.72756">
        <ele>43.45</ele>
        <time>2019-05-28T10:35:38.000Z</time>
      </trkpt>
      <trkpt lat="44.2018" lon="4.7278">
        <ele>41.53</ele>
        <time>2019-05-28T10:35:43.000Z</time>
      </trkpt>
      <trkpt lat="44.20188" lon="4.72804">
        <ele>40.53</ele>
        <time>2019-05-28T10:35:48.000Z</time>
      </trkpt>
      <trkpt lat="44.20195" lon="4.72826">
        <ele>39.47</ele>
        <time>2019-05-28T10:35:53.000Z</time>
      </trkpt>
      <trkpt lat="44.20202" lon="4.72848">
        <ele>39.47</ele>
        <time>2019-05-28T10:35:58.000Z</time>
      </trkpt>
      <trkpt lat="44.2021" lon="4.72858">
        <ele>39.47</ele>
        <time>2019-05-28T10:36:03.000Z</time>
      </trkpt>
      <trkpt lat="44.20218" lon="4.72848">
        <ele>38.47</ele>
        <time>2019-05-28T10:36:08.000Z</time>
      </trkpt>
      <trkpt lat="44.20238" lon="4.72839">
        <ele>38.47</ele>
        <time>2019-05-28T10:36:13.000Z</time>
      </trkpt>
      <trkpt lat="44.20258" lon="4.72834">
        <ele>38.47</ele>
        <time>2019-05-28T10:36:18.000Z</time>
      </trkpt>
      <trkpt lat="44.20278" lon="4.7282">
        <ele>39.22</ele>
        <time>2019-05-28T10:36:23.000Z</time>
      </trkpt>
      <trkpt lat="44.20297" lon="4.72806">
        <ele>42.2</ele>
        <time>2019-05-28T10:36:28.000Z</time>
      </trkpt>
      <trkpt lat="44.20314" lon="4.72798">
        <ele>41.4</ele>
        <time>2019-05-28T10:36:33.000Z</time>
      </trkpt>
      <trkpt lat="44.20329" lon="4.7279">
        <ele>44.21</ele>
        <time>2019-05-28T10:36:38.000Z</time>
      </trkpt>
      <trkpt lat="44.20347" lon="4.72786">
        <ele>45.08</ele>
        <time>2019-05-28T10:36:43.000Z</time>
      </trkpt>
      <trkpt lat="44.20349" lon="4.72767">
        <ele>48.21</ele>
        <time>2019-05-28T10:36:48.000Z</time>
      </trkpt>
      <trkpt lat="44.20346" lon="4.72741">
        <ele>45.66</ele>
        <time>2019-05-28T10:36:53.000Z</time>
      </trkpt>
      <trkpt lat="44.20342" lon="4.7272">
        <ele>39.35</ele>
        <time>2019-05-28T10:36:58.000Z</time>
      </trkpt>
      <trkpt lat="44.2035" lon="4.72712">
        <ele>40.69</ele>
        <time>2019-05-28T10:37:04.000Z</time>
      </trkpt>
      <trkpt lat="44.20365" lon="4.72718">
        <ele>40.65</ele>
        <time>2019-05-28T10:37:09.000Z</time>
      </trkpt>
      <trkpt lat="44.20384" lon="4.72722">
        <ele>39.29</ele>
        <time>2019-05-28T10:37:14.000Z</time>
      </trkpt>
      <trkpt lat="44.20407" lon="4.72719">
        <ele>41.96</ele>
        <time>2019-05-28T10:37:19.000Z</time>
      </trkpt>
      <trkpt lat="44.20428" lon="4.72718">
        <ele>40.28</ele>
        <time>2019-05-28T10:37:24.000Z</time>
      </trkpt>
      <trkpt lat="44.2045" lon="4.72716">
        <ele>41.46</ele>
        <time>2019-05-28T10:37:29.000Z</time>
      </trkpt>
      <trkpt lat="44.2047" lon="4.72713">
        <ele>41.28</ele>
        <time>2019-05-28T10:37:34.000Z</time>
      </trkpt>
      <trkpt lat="44.2049" lon="4.72716">
        <ele>39.74</ele>
        <time>2019-05-28T10:37:39.000Z</time>
      </trkpt>
      <trkpt lat="44.20511" lon="4.72716">
        <ele>37.74</ele>
        <time>2019-05-28T10:37:44.000Z</time>
      </trkpt>
      <trkpt lat="44.20532" lon="4.72718">
        <ele>38.22</ele>
        <time>2019-05-28T10:37:49.000Z</time>
      </trkpt>
      <trkpt lat="44.20553" lon="4.72718">
        <ele>38.46</ele>
        <time>2019-05-28T10:37:54.000Z</time>
      </trkpt>
      <trkpt lat="44.20578" lon="4.72724">
        <ele>39.21</ele>
        <time>2019-05-28T10:37:59.000Z</time>
      </trkpt>
      <trkpt lat="44.20598" lon="4.72721">
        <ele>39.91</ele>
        <time>2019-05-28T10:38:04.000Z</time>
      </trkpt>
      <trkpt lat="44.20619" lon="4.72718">
        <ele>43.2</ele>
        <time>2019-05-28T10:38:09.000Z</time>
      </trkpt>
      <trkpt lat="44.2064" lon="4.72716">
        <ele>42.53</ele>
        <time>2019-05-28T10:38:14.000Z</time>
      </trkpt>
      <trkpt lat="44.2066" lon="4.72716">
        <ele>41.53</ele>
        <time>2019-05-28T10:38:19.000Z</time>
      </trkpt>
      <trkpt lat="44.20678" lon="4.72721">
        <ele>41.4</ele>
        <time>2019-05-28T10:38:24.000Z</time>
      </trkpt>
      <trkpt lat="44.20698" lon="4.72729">
        <ele>41.46</ele>
        <time>2019-05-28T10:38:29.000Z</time>
      </trkpt>
      <trkpt lat="44.20716" lon="4.72743">
        <ele>41.66</ele>
        <time>2019-05-28T10:38:34.000Z</time>
      </trkpt>
      <trkpt lat="44.20714" lon="4.7277">
        <ele>43.4</ele>
        <time>2019-05-28T10:38:39.000Z</time>
      </trkpt>
      <trkpt lat="44.20691" lon="4.72778">
        <ele>43.28</ele>
        <time>2019-05-28T10:38:44.000Z</time>
      </trkpt>
      <trkpt lat="44.20671" lon="4.72778">
        <ele>44.21</ele>
        <time>2019-05-28T10:38:49.000Z</time>
      </trkpt>
      <trkpt lat="44.20652" lon="4.7277">
        <ele>42.74</ele>
        <time>2019-05-28T10:38:54.000Z</time>
      </trkpt>
      <trkpt lat="44.20628" lon="4.72766">
        <ele>43.46</ele>
        <time>2019-05-28T10:38:59.000Z</time>
      </trkpt>
      <trkpt lat="44.206" lon="4.7276">
        <ele>39.84</ele>
        <time>2019-05-28T10:39:04.000Z</time>
      </trkpt>
      <trkpt lat="44.2058" lon="4.72756">
        <ele>40.45</ele>
        <time>2019-05-28T10:39:09.000Z</time>
      </trkpt>
      <trkpt lat="44.2056" lon="4.72752">
        <ele>41.45</ele>
        <time>2019-05-28T10:39:14.000Z</time>
      </trkpt>
      <trkpt lat="44.20541" lon="4.7275">
        <ele>41.46</ele>
        <time>2019-05-28T10:39:19.000Z</time>
      </trkpt>
      <trkpt lat="44.20521" lon="4.72756">
        <ele>39.02</ele>
        <time>2019-05-28T10:39:24.000Z</time>
      </trkpt>
      <trkpt lat="44.20501" lon="4.72752">
        <ele>40.21</ele>
        <time>2019-05-28T10:39:29.000Z</time>
      </trkpt>
      <trkpt lat="44.20483" lon="4.72751">
        <ele>38.47</ele>
        <time>2019-05-28T10:39:34.000Z</time>
      </trkpt>
      <trkpt lat="44.20467" lon="4.72758">
        <ele>43.08</ele>
        <time>2019-05-28T10:39:39.000Z</time>
      </trkpt>
      <trkpt lat="44.20453" lon="4.72757">
        <ele>44.41</ele>
        <time>2019-05-28T10:39:44.000Z</time>
      </trkpt>
      <trkpt lat="44.20437" lon="4.72762">
        <ele>44.51</ele>
        <time>2019-05-28T10:39:49.000Z</time>
      </trkpt>
      <trkpt lat="44.20419" lon="4.72764">
        <ele>45.65</ele>
        <time>2019-05-28T10:39:54.000Z</time>
      </trkpt>
      <trkpt lat="44.20399" lon="4.72768">
        <ele>48.2</ele>
        <time>2019-05-28T10:39:59.000Z</time>
      </trkpt>
      <trkpt lat="44.2039" lon="4.7277">
        <ele>42.28</ele>
        <time>2019-05-28T10:40:04.000Z</time>
      </trkpt>
      <trkpt lat="44.20381" lon="4.72774">
        <ele>43.18</ele>
        <time>2019-05-28T10:40:09.000Z</time>
      </trkpt>
      <trkpt lat="44.20363" lon="4.72776">
        <ele>42.47</ele>
        <time>2019-05-28T10:40:14.000Z</time>
      </trkpt>
      <trkpt lat="44.20344" lon="4.72776">
        <ele>40.59</ele>
        <time>2019-05-28T10:40:19.000Z</time>
      </trkpt>
      <trkpt lat="44.20327" lon="4.7278">
        <ele>39.46</ele>
        <time>2019-05-28T10:40:24.000Z</time>
      </trkpt>
      <trkpt lat="44.20314" lon="4.7279">
        <ele>39.38</ele>
        <time>2019-05-28T10:40:29.000Z</time>
      </trkpt>
      <trkpt lat="44.203" lon="4.72796">
        <ele>42.59</ele>
        <time>2019-05-28T10:40:34.000Z</time>
      </trkpt>
      <trkpt lat="44.20284" lon="4.72799">
        <ele>43.16</ele>
        <time>2019-05-28T10:40:39.000Z</time>
      </trkpt>
      <trkpt lat="44.20261" lon="4.72828">
        <ele>41.43</ele>
        <time>2019-05-28T10:40:44.000Z</time>
      </trkpt>
      <trkpt lat="44.20244" lon="4.72833">
        <ele>39.61</ele>
        <time>2019-05-28T10:40:49.000Z</time>
      </trkpt>
      <trkpt lat="44.20227" lon="4.72845">
        <ele>39.66</ele>
        <time>2019-05-28T10:40:54.000Z</time>
      </trkpt>
      <trkpt lat="44.2021" lon="4.72847">
        <ele>38.52</ele>
        <time>2019-05-28T10:40:59.000Z</time>
      </trkpt>
      <trkpt lat="44.20201" lon="4.72845">
        <ele>42.28</ele>
        <time>2019-05-28T10:42:37.000Z</time>
      </trkpt>
      <trkpt lat="44.20207" lon="4.72835">
        <ele>42.67</ele>
        <time>2019-05-28T10:42:42.000Z</time>
      </trkpt>
      <trkpt lat="44.20205" lon="4.72822">
        <ele>43.48</ele>
        <time>2019-05-28T10:42:47.000Z</time>
      </trkpt>
      <trkpt lat="44.20197" lon="4.72815">
        <ele>47.21</ele>
        <time>2019-05-28T10:44:13.000Z</time>
      </trkpt>
      <trkpt lat="44.20188" lon="4.72812">
        <ele>41.46</ele>
        <time>2019-05-28T10:45:51.000Z</time>
      </trkpt>
      <trkpt lat="44.20196" lon="4.72809">
        <ele>43.47</ele>
        <time>2019-05-28T10:52:28.000Z</time>
      </trkpt>
      <trkpt lat="44.20195" lon="4.72823">
        <ele>38.22</ele>
        <time>2019-05-28T11:46:12.000Z</time>
      </trkpt>
      <trkpt lat="44.20198" lon="4.72837">
        <ele>39.48</ele>
        <time>2019-05-28T11:46:22.000Z</time>
      </trkpt>
      <trkpt lat="44.20203" lon="4.72854">
        <ele>40.23</ele>
        <time>2019-05-28T11:46:27.000Z</time>
      </trkpt>
      <trkpt lat="44.20212" lon="4.72868">
        <ele>42.16</ele>
        <time>2019-05-28T11:46:32.000Z</time>
      </trkpt>
      <trkpt lat="44.20218" lon="4.72882">
        <ele>42.51</ele>
        <time>2019-05-28T11:46:37.000Z</time>
      </trkpt>
      <trkpt lat="44.20227" lon="4.72893">
        <ele>43.47</ele>
        <time>2019-05-28T11:46:42.000Z</time>
      </trkpt>
      <trkpt lat="44.20237" lon="4.72898">
        <ele>43.72</ele>
        <time>2019-05-28T11:46:47.000Z</time>
      </trkpt>
      <trkpt lat="44.20249" lon="4.72902">
        <ele>43.22</ele>
        <time>2019-05-28T11:46:52.000Z</time>
      </trkpt>
      <trkpt lat="44.20257" lon="4.72911">
        <ele>46.44</ele>
        <time>2019-05-28T11:46:57.000Z</time>
      </trkpt>
      <trkpt lat="44.20266" lon="4.72923">
        <ele>47.23</ele>
        <time>2019-05-28T11:47:02.000Z</time>
      </trkpt>
      <trkpt lat="44.20272" lon="4.72936">
        <ele>47.41</ele>
        <time>2019-05-28T11:47:07.000Z</time>
      </trkpt>
      <trkpt lat="44.20278" lon="4.72945">
        <ele>46.47</ele>
        <time>2019-05-28T11:47:12.000Z</time>
      </trkpt>
      <trkpt lat="44.20287" lon="4.72954">
        <ele>47.69</ele>
        <time>2019-05-28T11:47:17.000Z</time>
      </trkpt>
      <trkpt lat="44.20294" lon="4.72962">
        <ele>50.4</ele>
        <time>2019-05-28T11:47:22.000Z</time>
      </trkpt>
      <trkpt lat="44.20287" lon="4.7297">
        <ele>52.96</ele>
        <time>2019-05-28T11:47:27.000Z</time>
      </trkpt>
      <trkpt lat="44.20282" lon="4.72982">
        <ele>52.49</ele>
        <time>2019-05-28T11:47:33.000Z</time>
      </trkpt>
      <trkpt lat="44.20286" lon="4.72969">
        <ele>54.23</ele>
        <time>2019-05-28T11:47:48.000Z</time>
      </trkpt>
      <trkpt lat="44.203" lon="4.72972">
        <ele>56.2</ele>
        <time>2019-05-28T11:47:53.000Z</time>
      </trkpt>
      <trkpt lat="44.20309" lon="4.72979">
        <ele>58.2</ele>
        <time>2019-05-28T11:47:58.000Z</time>
      </trkpt>
      <trkpt lat="44.20318" lon="4.72975">
        <ele>58.42</ele>
        <time>2019-05-28T11:48:03.000Z</time>
      </trkpt>
      <trkpt lat="44.20327" lon="4.72979">
        <ele>56.55</ele>
        <time>2019-05-28T11:48:08.000Z</time>
      </trkpt>
      <trkpt lat="44.20337" lon="4.72979">
        <ele>54.66</ele>
        <time>2019-05-28T11:48:14.000Z</time>
      </trkpt>
      <trkpt lat="44.20348" lon="4.72982">
        <ele>53.28</ele>
        <time>2019-05-28T11:48:20.000Z</time>
      </trkpt>
      <trkpt lat="44.20356" lon="4.72987">
        <ele>53.7</ele>
        <time>2019-05-28T11:48:27.000Z</time>
      </trkpt>
      <trkpt lat="44.20365" lon="4.7299">
        <ele>51.47</ele>
        <time>2019-05-28T11:48:34.000Z</time>
      </trkpt>
      <trkpt lat="44.20373" lon="4.72996">
        <ele>53.26</ele>
        <time>2019-05-28T11:48:42.000Z</time>
      </trkpt>
      <trkpt lat="44.20361" lon="4.72986">
        <ele>60.84</ele>
        <time>2019-05-28T11:50:28.000Z</time>
      </trkpt>
      <trkpt lat="44.2037" lon="4.72981">
        <ele>72</ele>
        <time>2019-05-28T11:50:35.000Z</time>
      </trkpt>
      <trkpt lat="44.20381" lon="4.72988">
        <ele>72.48</ele>
        <time>2019-05-28T11:50:40.000Z</time>
      </trkpt>
      <trkpt lat="44.20388" lon="4.72998">
        <ele>77.93</ele>
        <time>2019-05-28T11:50:45.000Z</time>
      </trkpt>
      <trkpt lat="44.20394" lon="4.73008">
        <ele>73.7</ele>
        <time>2019-05-28T11:50:51.000Z</time>
      </trkpt>
      <trkpt lat="44.20401" lon="4.73017">
        <ele>74.28</ele>
        <time>2019-05-28T11:50:56.000Z</time>
      </trkpt>
      <trkpt lat="44.20408" lon="4.73008">
        <ele>66.87</ele>
        <time>2019-05-28T11:51:03.000Z</time>
      </trkpt>
      <trkpt lat="44.20406" lon="4.72994">
        <ele>65.17</ele>
        <time>2019-05-28T11:51:08.000Z</time>
      </trkpt>
      <trkpt lat="44.20398" lon="4.73">
        <ele>71.69</ele>
        <time>2019-05-28T11:51:16.000Z</time>
      </trkpt>
      <trkpt lat="44.20403" lon="4.73012">
        <ele>80.48</ele>
        <time>2019-05-28T11:53:53.000Z</time>
      </trkpt>
      <trkpt lat="44.2041" lon="4.73021">
        <ele>81.71</ele>
        <time>2019-05-28T11:54:00.000Z</time>
      </trkpt>
      <trkpt lat="44.20418" lon="4.73026">
        <ele>81.19</ele>
        <time>2019-05-28T11:54:09.000Z</time>
      </trkpt>
      <trkpt lat="44.20426" lon="4.73035">
        <ele>85.67</ele>
        <time>2019-05-28T11:54:19.000Z</time>
      </trkpt>
      <trkpt lat="44.20435" lon="4.73042">
        <ele>87.45</ele>
        <time>2019-05-28T11:54:27.000Z</time>
      </trkpt>
      <trkpt lat="44.20443" lon="4.73046">
        <ele>85.63</ele>
        <time>2019-05-28T11:54:36.000Z</time>
      </trkpt>
      <trkpt lat="44.20453" lon="4.7305">
        <ele>85.47</ele>
        <time>2019-05-28T11:54:41.000Z</time>
      </trkpt>
      <trkpt lat="44.20462" lon="4.73045">
        <ele>88.22</ele>
        <time>2019-05-28T11:54:50.000Z</time>
      </trkpt>
      <trkpt lat="44.20472" lon="4.73041">
        <ele>87.7</ele>
        <time>2019-05-28T11:54:58.000Z</time>
      </trkpt>
      <trkpt lat="44.20481" lon="4.73044">
        <ele>89.72</ele>
        <time>2019-05-28T11:55:08.000Z</time>
      </trkpt>
      <trkpt lat="44.2049" lon="4.7305">
        <ele>94.63</ele>
        <time>2019-05-28T11:55:15.000Z</time>
      </trkpt>
      <trkpt lat="44.20496" lon="4.7306">
        <ele>98.5</ele>
        <time>2019-05-28T11:55:22.000Z</time>
      </trkpt>
      <trkpt lat="44.20505" lon="4.73061">
        <ele>100.46</ele>
        <time>2019-05-28T11:55:29.000Z</time>
      </trkpt>
      <trkpt lat="44.20514" lon="4.73056">
        <ele>102.22</ele>
        <time>2019-05-28T11:55:37.000Z</time>
      </trkpt>
      <trkpt lat="44.20522" lon="4.73048">
        <ele>103.71</ele>
        <time>2019-05-28T11:55:45.000Z</time>
      </trkpt>
      <trkpt lat="44.2053" lon="4.73042">
        <ele>105.43</ele>
        <time>2019-05-28T11:55:55.000Z</time>
      </trkpt>
      <trkpt lat="44.20537" lon="4.73033">
        <ele>105.42</ele>
        <time>2019-05-28T11:56:00.000Z</time>
      </trkpt>
      <trkpt lat="44.20544" lon="4.73025">
        <ele>108.45</ele>
        <time>2019-05-28T11:56:10.000Z</time>
      </trkpt>
      <trkpt lat="44.20552" lon="4.73018">
        <ele>109.16</ele>
        <time>2019-05-28T11:56:21.000Z</time>
      </trkpt>
      <trkpt lat="44.20558" lon="4.73008">
        <ele>111.45</ele>
        <time>2019-05-28T11:56:40.000Z</time>
      </trkpt>
      <trkpt lat="44.20566" lon="4.72998">
        <ele>114.26</ele>
        <time>2019-05-28T11:56:49.000Z</time>
      </trkpt>
      <trkpt lat="44.20576" lon="4.72996">
        <ele>118.37</ele>
        <time>2019-05-28T11:56:58.000Z</time>
      </trkpt>
      <trkpt lat="44.20586" lon="4.72997">
        <ele>122.16</ele>
        <time>2019-05-28T11:57:08.000Z</time>
      </trkpt>
      <trkpt lat="44.20594" lon="4.72992">
        <ele>124.4</ele>
        <time>2019-05-28T11:57:16.000Z</time>
      </trkpt>
      <trkpt lat="44.20598" lon="4.7298">
        <ele>126.77</ele>
        <time>2019-05-28T11:57:30.000Z</time>
      </trkpt>
      <trkpt lat="44.20608" lon="4.72978">
        <ele>129.4</ele>
        <time>2019-05-28T11:57:42.000Z</time>
      </trkpt>
      <trkpt lat="44.20615" lon="4.72988">
        <ele>131.76</ele>
        <time>2019-05-28T11:57:51.000Z</time>
      </trkpt>
      <trkpt lat="44.20624" lon="4.72991">
        <ele>129.73</ele>
        <time>2019-05-28T11:57:56.000Z</time>
      </trkpt>
      <trkpt lat="44.20624" lon="4.72978">
        <ele>132.2</ele>
        <time>2019-05-28T11:58:02.000Z</time>
      </trkpt>
      <trkpt lat="44.20619" lon="4.72966">
        <ele>133.4</ele>
        <time>2019-05-28T11:58:09.000Z</time>
      </trkpt>
      <trkpt lat="44.20615" lon="4.72955">
        <ele>133.53</ele>
        <time>2019-05-28T11:58:16.000Z</time>
      </trkpt>
      <trkpt lat="44.20607" lon="4.72947">
        <ele>139.13</ele>
        <time>2019-05-28T11:58:26.000Z</time>
      </trkpt>
      <trkpt lat="44.20601" lon="4.72939">
        <ele>141.4</ele>
        <time>2019-05-28T11:58:38.000Z</time>
      </trkpt>
      <trkpt lat="44.20592" lon="4.72933">
        <ele>140.46</ele>
        <time>2019-05-28T11:58:49.000Z</time>
      </trkpt>
      <trkpt lat="44.20583" lon="4.72929">
        <ele>156.33</ele>
        <time>2019-05-28T12:00:32.000Z</time>
      </trkpt>
      <trkpt lat="44.20574" lon="4.72934">
        <ele>162.56</ele>
        <time>2019-05-28T12:01:11.000Z</time>
      </trkpt>
      <trkpt lat="44.20576" lon="4.72921">
        <ele>160.5</ele>
        <time>2019-05-28T12:01:21.000Z</time>
      </trkpt>
      <trkpt lat="44.20586" lon="4.72922">
        <ele>160.94</ele>
        <time>2019-05-28T12:01:26.000Z</time>
      </trkpt>
      <trkpt lat="44.20578" lon="4.72931">
        <ele>164.34</ele>
        <time>2019-05-28T12:01:36.000Z</time>
      </trkpt>
      <trkpt lat="44.20576" lon="4.72917">
        <ele>163.17</ele>
        <time>2019-05-28T12:01:42.000Z</time>
      </trkpt>
      <trkpt lat="44.20583" lon="4.72908">
        <ele>162.96</ele>
        <time>2019-05-28T12:01:47.000Z</time>
      </trkpt>
      <trkpt lat="44.20587" lon="4.72925">
        <ele>161.71</ele>
        <time>2019-05-28T12:02:01.000Z</time>
      </trkpt>
      <trkpt lat="44.20578" lon="4.72929">
        <ele>160.64</ele>
        <time>2019-05-28T12:02:19.000Z</time>
      </trkpt>
      <trkpt lat="44.20569" lon="4.72937">
        <ele>166.38</ele>
        <time>2019-05-28T12:02:27.000Z</time>
      </trkpt>
      <trkpt lat="44.20574" lon="4.72926">
        <ele>159.34</ele>
        <time>2019-05-28T12:02:42.000Z</time>
      </trkpt>
      <trkpt lat="44.20566" lon="4.72921">
        <ele>152.54</ele>
        <time>2019-05-28T12:02:55.000Z</time>
      </trkpt>
      <trkpt lat="44.20569" lon="4.72907">
        <ele>147.39</ele>
        <time>2019-05-28T12:03:18.000Z</time>
      </trkpt>
      <trkpt lat="44.20577" lon="4.72899">
        <ele>152.18</ele>
        <time>2019-05-28T12:04:09.000Z</time>
      </trkpt>
      <trkpt lat="44.20587" lon="4.729">
        <ele>154.71</ele>
        <time>2019-05-28T12:04:22.000Z</time>
      </trkpt>
      <trkpt lat="44.20596" lon="4.72901">
        <ele>153.45</ele>
        <time>2019-05-28T12:04:42.000Z</time>
      </trkpt>
      <trkpt lat="44.20605" lon="4.72905">
        <ele>154.4</ele>
        <time>2019-05-28T12:05:00.000Z</time>
      </trkpt>
      <trkpt lat="44.20613" lon="4.72908">
        <ele>156.45</ele>
        <time>2019-05-28T12:05:08.000Z</time>
      </trkpt>
      <trkpt lat="44.20604" lon="4.72906">
        <ele>155.45</ele>
        <time>2019-05-28T12:06:09.000Z</time>
      </trkpt>
      <trkpt lat="44.20597" lon="4.72899">
        <ele>151.72</ele>
        <time>2019-05-28T12:06:38.000Z</time>
      </trkpt>
      <trkpt lat="44.20589" lon="4.7289">
        <ele>152.46</ele>
        <time>2019-05-28T12:06:46.000Z</time>
      </trkpt>
      <trkpt lat="44.20578" lon="4.72889">
        <ele>158.47</ele>
        <time>2019-05-28T12:07:18.000Z</time>
      </trkpt>
      <trkpt lat="44.2057" lon="4.72883">
        <ele>154.22</ele>
        <time>2019-05-28T12:07:40.000Z</time>
      </trkpt>
      <trkpt lat="44.20562" lon="4.72927">
        <ele>149.46</ele>
        <time>2019-05-28T12:10:18.000Z</time>
      </trkpt>
      <trkpt lat="44.20554" lon="4.72918">
        <ele>152.87</ele>
        <time>2019-05-28T12:10:26.000Z</time>
      </trkpt>
      <trkpt lat="44.20558" lon="4.72902">
        <ele>159.54</ele>
        <time>2019-05-28T12:10:31.000Z</time>
      </trkpt>
      <trkpt lat="44.20565" lon="4.72894">
        <ele>158.39</ele>
        <time>2019-05-28T12:10:51.000Z</time>
      </trkpt>
      <trkpt lat="44.20573" lon="4.72901">
        <ele>145.99</ele>
        <time>2019-05-28T12:16:42.000Z</time>
      </trkpt>
      <trkpt lat="44.2058" lon="4.72914">
        <ele>145.4</ele>
        <time>2019-05-28T12:17:01.000Z</time>
      </trkpt>
      <trkpt lat="44.20589" lon="4.72913">
        <ele>147.71</ele>
        <time>2019-05-28T12:17:09.000Z</time>
      </trkpt>
      <trkpt lat="44.20596" lon="4.72923">
        <ele>148.96</ele>
        <time>2019-05-28T12:17:14.000Z</time>
      </trkpt>
      <trkpt lat="44.20604" lon="4.72936">
        <ele>149.46</ele>
        <time>2019-05-28T12:17:19.000Z</time>
      </trkpt>
      <trkpt lat="44.20606" lon="4.72951">
        <ele>148.47</ele>
        <time>2019-05-28T12:17:33.000Z</time>
      </trkpt>
      <trkpt lat="44.20587" lon="4.72919">
        <ele>149.45</ele>
        <time>2019-05-28T12:17:38.000Z</time>
      </trkpt>
      <trkpt lat="44.20578" lon="4.72912">
        <ele>147.4</ele>
        <time>2019-05-28T12:17:46.000Z</time>
      </trkpt>
      <trkpt lat="44.20577" lon="4.72925">
        <ele>148.46</ele>
        <time>2019-05-28T12:17:54.000Z</time>
      </trkpt>
      <trkpt lat="44.20569" lon="4.72918">
        <ele>144.72</ele>
        <time>2019-05-28T12:18:11.000Z</time>
      </trkpt>
      <trkpt lat="44.20567" lon="4.72905">
        <ele>142.73</ele>
        <time>2019-05-28T12:18:18.000Z</time>
      </trkpt>
      <trkpt lat="44.20563" lon="4.72917">
        <ele>143.46</ele>
        <time>2019-05-28T12:18:33.000Z</time>
      </trkpt>
      <trkpt lat="44.20559" lon="4.72929">
        <ele>142.45</ele>
        <time>2019-05-28T12:18:48.000Z</time>
      </trkpt>
      <trkpt lat="44.2055" lon="4.72934">
        <ele>145.39</ele>
        <time>2019-05-28T12:18:54.000Z</time>
      </trkpt>
      <trkpt lat="44.2056" lon="4.72936">
        <ele>145.46</ele>
        <time>2019-05-28T12:19:01.000Z</time>
      </trkpt>
      <trkpt lat="44.20562" lon="4.72923">
        <ele>144.71</ele>
        <time>2019-05-28T12:19:13.000Z</time>
      </trkpt>
      <trkpt lat="44.20571" lon="4.7293">
        <ele>150.53</ele>
        <time>2019-05-28T12:20:08.000Z</time>
      </trkpt>
      <trkpt lat="44.20554" lon="4.72957">
        <ele>145.71</ele>
        <time>2019-05-28T12:21:30.000Z</time>
      </trkpt>
      <trkpt lat="44.2055" lon="4.72945">
        <ele>140.47</ele>
        <time>2019-05-28T12:21:45.000Z</time>
      </trkpt>
      <trkpt lat="44.20541" lon="4.72941">
        <ele>139.78</ele>
        <time>2019-05-28T12:21:54.000Z</time>
      </trkpt>
      <trkpt lat="44.20532" lon="4.7294">
        <ele>135.53</ele>
        <time>2019-05-28T12:22:13.000Z</time>
      </trkpt>
      <trkpt lat="44.2053" lon="4.72953">
        <ele>134.71</ele>
        <time>2019-05-28T12:23:04.000Z</time>
      </trkpt>
      <trkpt lat="44.20522" lon="4.72961">
        <ele>132.73</ele>
        <time>2019-05-28T12:23:11.000Z</time>
      </trkpt>
      <trkpt lat="44.20514" lon="4.72968">
        <ele>131.7</ele>
        <time>2019-05-28T12:23:18.000Z</time>
      </trkpt>
      <trkpt lat="44.20504" lon="4.72973">
        <ele>126.53</ele>
        <time>2019-05-28T12:23:26.000Z</time>
      </trkpt>
      <trkpt lat="44.20514" lon="4.72967">
        <ele>128.48</ele>
        <time>2019-05-28T12:23:56.000Z</time>
      </trkpt>
      <trkpt lat="44.20523" lon="4.72963">
        <ele>130.71</ele>
        <time>2019-05-28T12:24:05.000Z</time>
      </trkpt>
      <trkpt lat="44.2053" lon="4.72954">
        <ele>131.65</ele>
        <time>2019-05-28T12:24:13.000Z</time>
      </trkpt>
      <trkpt lat="44.20532" lon="4.72942">
        <ele>135.39</ele>
        <time>2019-05-28T12:24:24.000Z</time>
      </trkpt>
      <trkpt lat="44.20526" lon="4.72931">
        <ele>139.46</ele>
        <time>2019-05-28T12:24:32.000Z</time>
      </trkpt>
      <trkpt lat="44.20533" lon="4.72941">
        <ele>138.23</ele>
        <time>2019-05-28T12:24:45.000Z</time>
      </trkpt>
      <trkpt lat="44.20542" lon="4.72937">
        <ele>141.25</ele>
        <time>2019-05-28T12:24:56.000Z</time>
      </trkpt>
      <trkpt lat="44.20546" lon="4.72926">
        <ele>141.2</ele>
        <time>2019-05-28T12:25:03.000Z</time>
      </trkpt>
      <trkpt lat="44.20553" lon="4.72918">
        <ele>141.46</ele>
        <time>2019-05-28T12:25:11.000Z</time>
      </trkpt>
      <trkpt lat="44.20558" lon="4.7293">
        <ele>136.9</ele>
        <time>2019-05-28T12:26:58.000Z</time>
      </trkpt>
      <trkpt lat="44.20566" lon="4.72925">
        <ele>136.77</ele>
        <time>2019-05-28T12:27:13.000Z</time>
      </trkpt>
      <trkpt lat="44.20576" lon="4.72926">
        <ele>140.17</ele>
        <time>2019-05-28T12:27:24.000Z</time>
      </trkpt>
      <trkpt lat="44.20585" lon="4.72928">
        <ele>141.46</ele>
        <time>2019-05-28T12:27:41.000Z</time>
      </trkpt>
      <trkpt lat="44.20594" lon="4.72932">
        <ele>147.13</ele>
        <time>2019-05-28T12:27:54.000Z</time>
      </trkpt>
      <trkpt lat="44.20602" lon="4.72938">
        <ele>138.71</ele>
        <time>2019-05-28T12:28:09.000Z</time>
      </trkpt>
      <trkpt lat="44.20607" lon="4.72949">
        <ele>133.78</ele>
        <time>2019-05-28T12:28:17.000Z</time>
      </trkpt>
      <trkpt lat="44.20614" lon="4.7296">
        <ele>128.46</ele>
        <time>2019-05-28T12:28:38.000Z</time>
      </trkpt>
      <trkpt lat="44.2062" lon="4.72971">
        <ele>125.42</ele>
        <time>2019-05-28T12:28:46.000Z</time>
      </trkpt>
      <trkpt lat="44.20619" lon="4.72985">
        <ele>124.48</ele>
        <time>2019-05-28T12:28:54.000Z</time>
      </trkpt>
      <trkpt lat="44.20611" lon="4.72978">
        <ele>122.45</ele>
        <time>2019-05-28T12:29:06.000Z</time>
      </trkpt>
      <trkpt lat="44.20601" lon="4.72976">
        <ele>118.79</ele>
        <time>2019-05-28T12:29:13.000Z</time>
      </trkpt>
      <trkpt lat="44.20593" lon="4.72983">
        <ele>115.72</ele>
        <time>2019-05-28T12:29:20.000Z</time>
      </trkpt>
      <trkpt lat="44.20589" lon="4.72996">
        <ele>114.53</ele>
        <time>2019-05-28T12:29:29.000Z</time>
      </trkpt>
      <trkpt lat="44.20578" lon="4.72999">
        <ele>113.47</ele>
        <time>2019-05-28T12:29:35.000Z</time>
      </trkpt>
      <trkpt lat="44.20567" lon="4.72996">
        <ele>110.53</ele>
        <time>2019-05-28T12:29:40.000Z</time>
      </trkpt>
      <trkpt lat="44.20559" lon="4.73004">
        <ele>105.53</ele>
        <time>2019-05-28T12:29:47.000Z</time>
      </trkpt>
      <trkpt lat="44.20551" lon="4.73014">
        <ele>99.48</ele>
        <time>2019-05-28T12:29:57.000Z</time>
      </trkpt>
      <trkpt lat="44.20543" lon="4.73024">
        <ele>97.47</ele>
        <time>2019-05-28T12:30:02.000Z</time>
      </trkpt>
      <trkpt lat="44.20535" lon="4.73033">
        <ele>96.28</ele>
        <time>2019-05-28T12:30:08.000Z</time>
      </trkpt>
      <trkpt lat="44.20526" lon="4.73036">
        <ele>96.39</ele>
        <time>2019-05-28T12:30:14.000Z</time>
      </trkpt>
      <trkpt lat="44.20519" lon="4.73045">
        <ele>90.12</ele>
        <time>2019-05-28T12:30:19.000Z</time>
      </trkpt>
      <trkpt lat="44.2051" lon="4.73054">
        <ele>90.22</ele>
        <time>2019-05-28T12:30:27.000Z</time>
      </trkpt>
      <trkpt lat="44.20501" lon="4.7306">
        <ele>86.78</ele>
        <time>2019-05-28T12:30:34.000Z</time>
      </trkpt>
      <trkpt lat="44.20491" lon="4.73058">
        <ele>86.65</ele>
        <time>2019-05-28T12:30:39.000Z</time>
      </trkpt>
      <trkpt lat="44.20482" lon="4.73052">
        <ele>85.52</ele>
        <time>2019-05-28T12:30:48.000Z</time>
      </trkpt>
      <trkpt lat="44.20474" lon="4.73042">
        <ele>82.03</ele>
        <time>2019-05-28T12:30:54.000Z</time>
      </trkpt>
      <trkpt lat="44.20465" lon="4.73039">
        <ele>79.72</ele>
        <time>2019-05-28T12:30:59.000Z</time>
      </trkpt>
      <trkpt lat="44.20456" lon="4.73043">
        <ele>76.73</ele>
        <time>2019-05-28T12:31:06.000Z</time>
      </trkpt>
      <trkpt lat="44.20446" lon="4.73045">
        <ele>75.47</ele>
        <time>2019-05-28T12:31:13.000Z</time>
      </trkpt>
      <trkpt lat="44.20436" lon="4.73038">
        <ele>71.7</ele>
        <time>2019-05-28T12:31:20.000Z</time>
      </trkpt>
      <trkpt lat="44.20427" lon="4.73033">
        <ele>71.28</ele>
        <time>2019-05-28T12:31:27.000Z</time>
      </trkpt>
      <trkpt lat="44.20419" lon="4.73026">
        <ele>74.22</ele>
        <time>2019-05-28T12:31:35.000Z</time>
      </trkpt>
      <trkpt lat="44.20412" lon="4.73018">
        <ele>70.52</ele>
        <time>2019-05-28T12:31:40.000Z</time>
      </trkpt>
      <trkpt lat="44.20404" lon="4.7301">
        <ele>68.98</ele>
        <time>2019-05-28T12:31:48.000Z</time>
      </trkpt>
      <trkpt lat="44.20397" lon="4.73">
        <ele>67.76</ele>
        <time>2019-05-28T12:31:56.000Z</time>
      </trkpt>
      <trkpt lat="44.20398" lon="4.72986">
        <ele>67.51</ele>
        <time>2019-05-28T12:32:04.000Z</time>
      </trkpt>
      <trkpt lat="44.20393" lon="4.72975">
        <ele>66.53</ele>
        <time>2019-05-28T12:32:11.000Z</time>
      </trkpt>
      <trkpt lat="44.20396" lon="4.72988">
        <ele>65.55</ele>
        <time>2019-05-28T12:32:53.000Z</time>
      </trkpt>
      <trkpt lat="44.20399" lon="4.73">
        <ele>64.71</ele>
        <time>2019-05-28T12:33:01.000Z</time>
      </trkpt>
      <trkpt lat="44.20388" lon="4.72997">
        <ele>67.97</ele>
        <time>2019-05-28T12:35:21.000Z</time>
      </trkpt>
      <trkpt lat="44.20376" lon="4.72983">
        <ele>65.47</ele>
        <time>2019-05-28T12:35:26.000Z</time>
      </trkpt>
      <trkpt lat="44.20362" lon="4.72984">
        <ele>62.6</ele>
        <time>2019-05-28T12:35:31.000Z</time>
      </trkpt>
      <trkpt lat="44.20346" lon="4.72981">
        <ele>59.55</ele>
        <time>2019-05-28T12:35:36.000Z</time>
      </trkpt>
      <trkpt lat="44.20329" lon="4.72976">
        <ele>59.23</ele>
        <time>2019-05-28T12:35:41.000Z</time>
      </trkpt>
      <trkpt lat="44.20312" lon="4.72974">
        <ele>55.8</ele>
        <time>2019-05-28T12:35:46.000Z</time>
      </trkpt>
      <trkpt lat="44.20297" lon="4.72972">
        <ele>54.48</ele>
        <time>2019-05-28T12:35:51.000Z</time>
      </trkpt>
      <trkpt lat="44.20284" lon="4.7296">
        <ele>53.47</ele>
        <time>2019-05-28T12:35:56.000Z</time>
      </trkpt>
      <trkpt lat="44.20273" lon="4.72939">
        <ele>50.72</ele>
        <time>2019-05-28T12:36:01.000Z</time>
      </trkpt>
      <trkpt lat="44.20262" lon="4.72918">
        <ele>47.55</ele>
        <time>2019-05-28T12:36:06.000Z</time>
      </trkpt>
      <trkpt lat="44.20251" lon="4.72903">
        <ele>45.78</ele>
        <time>2019-05-28T12:36:11.000Z</time>
      </trkpt>
      <trkpt lat="44.20239" lon="4.729">
        <ele>41.8</ele>
        <time>2019-05-28T12:36:16.000Z</time>
      </trkpt>
      <trkpt lat="44.2022" lon="4.72879">
        <ele>43.45</ele>
        <time>2019-05-28T12:36:21.000Z</time>
      </trkpt>
      <trkpt lat="44.20208" lon="4.7286">
        <ele>39.68</ele>
        <time>2019-05-28T12:36:26.000Z</time>
      </trkpt>
      <trkpt lat="44.20196" lon="4.72863">
        <ele>38.47</ele>
        <time>2019-05-28T12:36:31.000Z</time>
      </trkpt>
      <trkpt lat="44.20188" lon="4.72871">
        <ele>35.97</ele>
        <time>2019-05-28T12:36:36.000Z</time>
      </trkpt>
      <trkpt lat="44.20177" lon="4.7288">
        <ele>33.72</ele>
        <time>2019-05-28T12:36:41.000Z</time>
      </trkpt>
      <trkpt lat="44.20163" lon="4.72892">
        <ele>32.24</ele>
        <time>2019-05-28T12:36:46.000Z</time>
      </trkpt>
      <trkpt lat="44.20142" lon="4.72903">
        <ele>31.53</ele>
        <time>2019-05-28T12:36:51.000Z</time>
      </trkpt>
      <trkpt lat="44.20124" lon="4.72927">
        <ele>31.53</ele>
        <time>2019-05-28T12:36:56.000Z</time>
      </trkpt>
      <trkpt lat="44.20106" lon="4.72947">
        <ele>30.66</ele>
        <time>2019-05-28T12:37:01.000Z</time>
      </trkpt>
      <trkpt lat="44.20086" lon="4.72969">
        <ele>28.49</ele>
        <time>2019-05-28T12:37:06.000Z</time>
      </trkpt>
      <trkpt lat="44.20069" lon="4.72989">
        <ele>28.53</ele>
        <time>2019-05-28T12:37:11.000Z</time>
      </trkpt>
      <trkpt lat="44.2006" lon="4.72994">
        <ele>29.16</ele>
        <time>2019-05-28T12:37:16.000Z</time>
      </trkpt>
      <trkpt lat="44.20054" lon="4.73004">
        <ele>30.47</ele>
        <time>2019-05-28T12:37:24.000Z</time>
      </trkpt>
      <trkpt lat="44.20039" lon="4.73021">
        <ele>30.47</ele>
        <time>2019-05-28T12:37:29.000Z</time>
      </trkpt>
      <trkpt lat="44.20021" lon="4.73041">
        <ele>28.55</ele>
        <time>2019-05-28T12:37:34.000Z</time>
      </trkpt>
      <trkpt lat="44.20005" lon="4.73064">
        <ele>28.47</ele>
        <time>2019-05-28T12:37:39.000Z</time>
      </trkpt>
      <trkpt lat="44.19983" lon="4.73064">
        <ele>27.77</ele>
        <time>2019-05-28T12:37:44.000Z</time>
      </trkpt>
      <trkpt lat="44.19967" lon="4.73036">
        <ele>27.53</ele>
        <time>2019-05-28T12:37:49.000Z</time>
      </trkpt>
      <trkpt lat="44.19963" lon="4.73004">
        <ele>29.21</ele>
        <time>2019-05-28T12:37:54.000Z</time>
      </trkpt>
      <trkpt lat="44.19962" lon="4.72975">
        <ele>29.72</ele>
        <time>2019-05-28T12:37:59.000Z</time>
      </trkpt>
      <trkpt lat="44.19961" lon="4.7295">
        <ele>31.41</ele>
        <time>2019-05-28T12:38:04.000Z</time>
      </trkpt>
      <trkpt lat="44.19961" lon="4.72927">
        <ele>32.47</ele>
        <time>2019-05-28T12:38:09.000Z</time>
      </trkpt>
      <trkpt lat="44.19959" lon="4.72904">
        <ele>32.52</ele>
        <time>2019-05-28T12:38:14.000Z</time>
      </trkpt>
      <trkpt lat="44.19951" lon="4.7288">
        <ele>33.41</ele>
        <time>2019-05-28T12:38:19.000Z</time>
      </trkpt>
      <trkpt lat="44.19942" lon="4.72859">
        <ele>33.71</ele>
        <time>2019-05-28T12:38:24.000Z</time>
      </trkpt>
      <trkpt lat="44.19931" lon="4.72836">
        <ele>33.47</ele>
        <time>2019-05-28T12:38:29.000Z</time>
      </trkpt>
      <trkpt lat="44.19918" lon="4.72811">
        <ele>32.71</ele>
        <time>2019-05-28T12:38:34.000Z</time>
      </trkpt>
      <trkpt lat="44.19905" lon="4.72782">
        <ele>33.41</ele>
        <time>2019-05-28T12:38:39.000Z</time>
      </trkpt>
      <trkpt lat="44.19887" lon="4.72753">
        <ele>33.47</ele>
        <time>2019-05-28T12:38:44.000Z</time>
      </trkpt>
      <trkpt lat="44.19862" lon="4.72729">
        <ele>31.52</ele>
        <time>2019-05-28T12:38:49.000Z</time>
      </trkpt>
      <trkpt lat="44.1983" lon="4.72717">
        <ele>30.47</ele>
        <time>2019-05-28T12:38:54.000Z</time>
      </trkpt>
      <trkpt lat="44.19793" lon="4.72723">
        <ele>29.53</ele>
        <time>2019-05-28T12:38:59.000Z</time>
      </trkpt>
      <trkpt lat="44.19763" lon="4.72732">
        <ele>28.29</ele>
        <time>2019-05-28T12:39:04.000Z</time>
      </trkpt>
      <trkpt lat="44.1977" lon="4.72717">
        <ele>28.41</ele>
        <time>2019-05-28T12:39:09.000Z</time>
      </trkpt>
      <trkpt lat="44.19793" lon="4.72703">
        <ele>29.47</ele>
        <time>2019-05-28T12:39:14.000Z</time>
      </trkpt>
      <trkpt lat="44.19816" lon="4.72696">
        <ele>27.48</ele>
        <time>2019-05-28T12:39:19.000Z</time>
      </trkpt>
      <trkpt lat="44.1984" lon="4.72696">
        <ele>27.72</ele>
        <time>2019-05-28T12:39:24.000Z</time>
      </trkpt>
      <trkpt lat="44.19865" lon="4.72701">
        <ele>25.55</ele>
        <time>2019-05-28T12:39:29.000Z</time>
      </trkpt>
      <trkpt lat="44.19892" lon="4.72706">
        <ele>26.47</ele>
        <time>2019-05-28T12:39:34.000Z</time>
      </trkpt>
      <trkpt lat="44.19916" lon="4.72712">
        <ele>24.49</ele>
        <time>2019-05-28T12:39:39.000Z</time>
      </trkpt>
      <trkpt lat="44.19941" lon="4.72716">
        <ele>26.22</ele>
        <time>2019-05-28T12:39:44.000Z</time>
      </trkpt>
      <trkpt lat="44.19964" lon="4.72708">
        <ele>28.4</ele>
        <time>2019-05-28T12:39:49.000Z</time>
      </trkpt>
      <trkpt lat="44.19987" lon="4.72693">
        <ele>28.52</ele>
        <time>2019-05-28T12:39:54.000Z</time>
      </trkpt>
      <trkpt lat="44.20005" lon="4.72678">
        <ele>27.55</ele>
        <time>2019-05-28T12:39:59.000Z</time>
      </trkpt>
      <trkpt lat="44.20003" lon="4.7266">
        <ele>27.66</ele>
        <time>2019-05-28T12:40:04.000Z</time>
      </trkpt>
      <trkpt lat="44.19983" lon="4.72641">
        <ele>27.7</ele>
        <time>2019-05-28T12:40:09.000Z</time>
      </trkpt>
      <trkpt lat="44.19961" lon="4.72634">
        <ele>28.66</ele>
        <time>2019-05-28T12:40:14.000Z</time>
      </trkpt>
      <trkpt lat="44.19939" lon="4.72627">
        <ele>29.47</ele>
        <time>2019-05-28T12:40:19.000Z</time>
      </trkpt>
      <trkpt lat="44.19916" lon="4.72622">
        <ele>29.46</ele>
        <time>2019-05-28T12:40:24.000Z</time>
      </trkpt>
      <trkpt lat="44.19891" lon="4.72615">
        <ele>29.47</ele>
        <time>2019-05-28T12:40:29.000Z</time>
      </trkpt>
      <trkpt lat="44.19866" lon="4.72609">
        <ele>29.47</ele>
        <time>2019-05-28T12:40:34.000Z</time>
      </trkpt>
      <trkpt lat="44.19844" lon="4.72603">
        <ele>30.48</ele>
        <time>2019-05-28T12:40:39.000Z</time>
      </trkpt>
      <trkpt lat="44.19821" lon="4.72597">
        <ele>30.28</ele>
        <time>2019-05-28T12:40:44.000Z</time>
      </trkpt>
      <trkpt lat="44.19798" lon="4.72594">
        <ele>30.41</ele>
        <time>2019-05-28T12:40:49.000Z</time>
      </trkpt>
      <trkpt lat="44.19776" lon="4.72594">
        <ele>30.41</ele>
        <time>2019-05-28T12:40:54.000Z</time>
      </trkpt>
      <trkpt lat="44.19753" lon="4.72594">
        <ele>29.49</ele>
        <time>2019-05-28T12:40:59.000Z</time>
      </trkpt>
      <trkpt lat="44.1973" lon="4.72603">
        <ele>30.64</ele>
        <time>2019-05-28T12:41:04.000Z</time>
      </trkpt>
      <trkpt lat="44.19707" lon="4.72613">
        <ele>30.29</ele>
        <time>2019-05-28T12:41:09.000Z</time>
      </trkpt>
      <trkpt lat="44.19687" lon="4.72623">
        <ele>29.72</ele>
        <time>2019-05-28T12:41:14.000Z</time>
      </trkpt>
      <trkpt lat="44.19671" lon="4.72621">
        <ele>29.72</ele>
        <time>2019-05-28T12:41:19.000Z</time>
      </trkpt>
      <trkpt lat="44.19661" lon="4.72592">
        <ele>28.71</ele>
        <time>2019-05-28T12:41:24.000Z</time>
      </trkpt>
      <trkpt lat="44.19636" lon="4.72584">
        <ele>27.72</ele>
        <time>2019-05-28T12:41:29.000Z</time>
      </trkpt>
      <trkpt lat="44.19609" lon="4.72583">
        <ele>27.49</ele>
        <time>2019-05-28T12:41:34.000Z</time>
      </trkpt>
      <trkpt lat="44.19584" lon="4.72582">
        <ele>27.47</ele>
        <time>2019-05-28T12:41:39.000Z</time>
      </trkpt>
      <trkpt lat="44.19559" lon="4.72579">
        <ele>26.68</ele>
        <time>2019-05-28T12:41:44.000Z</time>
      </trkpt>
      <trkpt lat="44.19534" lon="4.72578">
        <ele>26.53</ele>
        <time>2019-05-28T12:41:49.000Z</time>
      </trkpt>
      <trkpt lat="44.19506" lon="4.7258">
        <ele>26.48</ele>
        <time>2019-05-28T12:41:54.000Z</time>
      </trkpt>
      <trkpt lat="44.19475" lon="4.72583">
        <ele>26.47</ele>
        <time>2019-05-28T12:41:59.000Z</time>
      </trkpt>
      <trkpt lat="44.19443" lon="4.72583">
        <ele>26.48</ele>
        <time>2019-05-28T12:42:04.000Z</time>
      </trkpt>
      <trkpt lat="44.19413" lon="4.72572">
        <ele>27.47</ele>
        <time>2019-05-28T12:42:09.000Z</time>
      </trkpt>
      <trkpt lat="44.19383" lon="4.72562">
        <ele>27.66</ele>
        <time>2019-05-28T12:42:14.000Z</time>
      </trkpt>
      <trkpt lat="44.1936" lon="4.72551">
        <ele>28.48</ele>
        <time>2019-05-28T12:42:19.000Z</time>
      </trkpt>
      <trkpt lat="44.1935" lon="4.72555">
        <ele>26.78</ele>
        <time>2019-05-28T12:42:30.000Z</time>
      </trkpt>
      <trkpt lat="44.19347" lon="4.72566">
        <ele>27.42</ele>
        <time>2019-05-28T12:42:35.000Z</time>
      </trkpt>
      <trkpt lat="44.1934" lon="4.72594">
        <ele>29.66</ele>
        <time>2019-05-28T12:42:40.000Z</time>
      </trkpt>
      <trkpt lat="44.19332" lon="4.72629">
        <ele>27.79</ele>
        <time>2019-05-28T12:42:45.000Z</time>
      </trkpt>
      <trkpt lat="44.19324" lon="4.72663">
        <ele>27.47</ele>
        <time>2019-05-28T12:42:50.000Z</time>
      </trkpt>
      <trkpt lat="44.19317" lon="4.72699">
        <ele>27.43</ele>
        <time>2019-05-28T12:42:55.000Z</time>
      </trkpt>
      <trkpt lat="44.1931" lon="4.7273">
        <ele>25.3</ele>
        <time>2019-05-28T12:43:00.000Z</time>
      </trkpt>
      <trkpt lat="44.19304" lon="4.72744">
        <ele>25.48</ele>
        <time>2019-05-28T12:43:05.000Z</time>
      </trkpt>
      <trkpt lat="44.19296" lon="4.72774">
        <ele>24.73</ele>
        <time>2019-05-28T12:43:10.000Z</time>
      </trkpt>
      <trkpt lat="44.19281" lon="4.72804">
        <ele>24.49</ele>
        <time>2019-05-28T12:43:15.000Z</time>
      </trkpt>
      <trkpt lat="44.19264" lon="4.72832">
        <ele>23.53</ele>
        <time>2019-05-28T12:43:20.000Z</time>
      </trkpt>
      <trkpt lat="44.19248" lon="4.72861">
        <ele>25.23</ele>
        <time>2019-05-28T12:43:25.000Z</time>
      </trkpt>
      <trkpt lat="44.19231" lon="4.72891">
        <ele>24.25</ele>
        <time>2019-05-28T12:43:30.000Z</time>
      </trkpt>
      <trkpt lat="44.19214" lon="4.7292">
        <ele>24.48</ele>
        <time>2019-05-28T12:43:35.000Z</time>
      </trkpt>
      <trkpt lat="44.19195" lon="4.7295">
        <ele>26.41</ele>
        <time>2019-05-28T12:43:40.000Z</time>
      </trkpt>
      <trkpt lat="44.19177" lon="4.72979">
        <ele>26.49</ele>
        <time>2019-05-28T12:43:45.000Z</time>
      </trkpt>
      <trkpt lat="44.19159" lon="4.73011">
        <ele>26.29</ele>
        <time>2019-05-28T12:43:50.000Z</time>
      </trkpt>
      <trkpt lat="44.19143" lon="4.7304">
        <ele>26.48</ele>
        <time>2019-05-28T12:43:55.000Z</time>
      </trkpt>
      <trkpt lat="44.19126" lon="4.73064">
        <ele>26.54</ele>
        <time>2019-05-28T12:44:00.000Z</time>
      </trkpt>
      <trkpt lat="44.19106" lon="4.73085">
        <ele>26.48</ele>
        <time>2019-05-28T12:44:05.000Z</time>
      </trkpt>
      <trkpt lat="44.19083" lon="4.73105">
        <ele>25.5</ele>
        <time>2019-05-28T12:44:10.000Z</time>
      </trkpt>
      <trkpt lat="44.19056" lon="4.73121">
        <ele>24.56</ele>
        <time>2019-05-28T12:44:15.000Z</time>
      </trkpt>
      <trkpt lat="44.1903" lon="4.73129">
        <ele>23.5</ele>
        <time>2019-05-28T12:44:20.000Z</time>
      </trkpt>
      <trkpt lat="44.19003" lon="4.73143">
        <ele>25.22</ele>
        <time>2019-05-28T12:44:25.000Z</time>
      </trkpt>
      <trkpt lat="44.18976" lon="4.73162">
        <ele>26.23</ele>
        <time>2019-05-28T12:44:30.000Z</time>
      </trkpt>
      <trkpt lat="44.18952" lon="4.73184">
        <ele>26.48</ele>
        <time>2019-05-28T12:44:35.000Z</time>
      </trkpt>
      <trkpt lat="44.18933" lon="4.7321">
        <ele>26.5</ele>
        <time>2019-05-28T12:44:40.000Z</time>
      </trkpt>
      <trkpt lat="44.1891" lon="4.73235">
        <ele>26.78</ele>
        <time>2019-05-28T12:44:45.000Z</time>
      </trkpt>
      <trkpt lat="44.18888" lon="4.73254">
        <ele>24.74</ele>
        <time>2019-05-28T12:44:50.000Z</time>
      </trkpt>
      <trkpt lat="44.18861" lon="4.73274">
        <ele>24.48</ele>
        <time>2019-05-28T12:44:55.000Z</time>
      </trkpt>
      <trkpt lat="44.18834" lon="4.73292">
        <ele>25.66</ele>
        <time>2019-05-28T12:45:00.000Z</time>
      </trkpt>
      <trkpt lat="44.18806" lon="4.73309">
        <ele>24.55</ele>
        <time>2019-05-28T12:45:05.000Z</time>
      </trkpt>
      <trkpt lat="44.18781" lon="4.7332">
        <ele>25.42</ele>
        <time>2019-05-28T12:45:10.000Z</time>
      </trkpt>
      <trkpt lat="44.18751" lon="4.73331">
        <ele>24.49</ele>
        <time>2019-05-28T12:45:15.000Z</time>
      </trkpt>
      <trkpt lat="44.18721" lon="4.73343">
        <ele>24.49</ele>
        <time>2019-05-28T12:45:20.000Z</time>
      </trkpt>
      <trkpt lat="44.18689" lon="4.73353">
        <ele>24.49</ele>
        <time>2019-05-28T12:45:25.000Z</time>
      </trkpt>
      <trkpt lat="44.18656" lon="4.73362">
        <ele>23.49</ele>
        <time>2019-05-28T12:45:30.000Z</time>
      </trkpt>
      <trkpt lat="44.18621" lon="4.73372">
        <ele>23.49</ele>
        <time>2019-05-28T12:45:35.000Z</time>
      </trkpt>
      <trkpt lat="44.18585" lon="4.73381">
        <ele>23.3</ele>
        <time>2019-05-28T12:45:40.000Z</time>
      </trkpt>
      <trkpt lat="44.18547" lon="4.73386">
        <ele>23.48</ele>
        <time>2019-05-28T12:45:45.000Z</time>
      </trkpt>
      <trkpt lat="44.18508" lon="4.73391">
        <ele>23.25</ele>
        <time>2019-05-28T12:45:50.000Z</time>
      </trkpt>
      <trkpt lat="44.18471" lon="4.73396">
        <ele>23.3</ele>
        <time>2019-05-28T12:45:55.000Z</time>
      </trkpt>
      <trkpt lat="44.18433" lon="4.73402">
        <ele>24.24</ele>
        <time>2019-05-28T12:46:00.000Z</time>
      </trkpt>
      <trkpt lat="44.18395" lon="4.73409">
        <ele>24.44</ele>
        <time>2019-05-28T12:46:05.000Z</time>
      </trkpt>
      <trkpt lat="44.18358" lon="4.73414">
        <ele>23.49</ele>
        <time>2019-05-28T12:46:10.000Z</time>
      </trkpt>
      <trkpt lat="44.18322" lon="4.7342">
        <ele>25.47</ele>
        <time>2019-05-28T12:46:15.000Z</time>
      </trkpt>
      <trkpt lat="44.18287" lon="4.73427">
        <ele>24.5</ele>
        <time>2019-05-28T12:46:20.000Z</time>
      </trkpt>
      <trkpt lat="44.18252" lon="4.7344">
        <ele>24.49</ele>
        <time>2019-05-28T12:46:25.000Z</time>
      </trkpt>
      <trkpt lat="44.18218" lon="4.73456">
        <ele>25.24</ele>
        <time>2019-05-28T12:46:30.000Z</time>
      </trkpt>
      <trkpt lat="44.18185" lon="4.73477">
        <ele>26.43</ele>
        <time>2019-05-28T12:46:35.000Z</time>
      </trkpt>
      <trkpt lat="44.18152" lon="4.73495">
        <ele>25.51</ele>
        <time>2019-05-28T12:46:40.000Z</time>
      </trkpt>
      <trkpt lat="44.18117" lon="4.73516">
        <ele>25.49</ele>
        <time>2019-05-28T12:46:45.000Z</time>
      </trkpt>
      <trkpt lat="44.18082" lon="4.73533">
        <ele>26.49</ele>
        <time>2019-05-28T12:46:50.000Z</time>
      </trkpt>
      <trkpt lat="44.18045" lon="4.7354">
        <ele>26.49</ele>
        <time>2019-05-28T12:46:55.000Z</time>
      </trkpt>
      <trkpt lat="44.18008" lon="4.73543">
        <ele>26.48</ele>
        <time>2019-05-28T12:47:00.000Z</time>
      </trkpt>
      <trkpt lat="44.17971" lon="4.73541">
        <ele>25.5</ele>
        <time>2019-05-28T12:47:05.000Z</time>
      </trkpt>
      <trkpt lat="44.17936" lon="4.73536">
        <ele>26.48</ele>
        <time>2019-05-28T12:47:10.000Z</time>
      </trkpt>
      <trkpt lat="44.17901" lon="4.73528">
        <ele>25.56</ele>
        <time>2019-05-28T12:47:15.000Z</time>
      </trkpt>
      <trkpt lat="44.17867" lon="4.73519">
        <ele>27.24</ele>
        <time>2019-05-28T12:47:20.000Z</time>
      </trkpt>
      <trkpt lat="44.17833" lon="4.73511">
        <ele>26.51</ele>
        <time>2019-05-28T12:47:25.000Z</time>
      </trkpt>
      <trkpt lat="44.17799" lon="4.73501">
        <ele>27.5</ele>
        <time>2019-05-28T12:47:30.000Z</time>
      </trkpt>
      <trkpt lat="44.17764" lon="4.73492">
        <ele>28.25</ele>
        <time>2019-05-28T12:47:35.000Z</time>
      </trkpt>
      <trkpt lat="44.17728" lon="4.73498">
        <ele>26.81</ele>
        <time>2019-05-28T12:47:40.000Z</time>
      </trkpt>
      <trkpt lat="44.17694" lon="4.73514">
        <ele>27.25</ele>
        <time>2019-05-28T12:47:45.000Z</time>
      </trkpt>
      <trkpt lat="44.1766" lon="4.73532">
        <ele>27.5</ele>
        <time>2019-05-28T12:47:50.000Z</time>
      </trkpt>
      <trkpt lat="44.17625" lon="4.73546">
        <ele>28.5</ele>
        <time>2019-05-28T12:47:55.000Z</time>
      </trkpt>
      <trkpt lat="44.17591" lon="4.73563">
        <ele>27.5</ele>
        <time>2019-05-28T12:48:00.000Z</time>
      </trkpt>
      <trkpt lat="44.17556" lon="4.73576">
        <ele>26.75</ele>
        <time>2019-05-28T12:48:05.000Z</time>
      </trkpt>
      <trkpt lat="44.17522" lon="4.73588">
        <ele>26.56</ele>
        <time>2019-05-28T12:48:10.000Z</time>
      </trkpt>
      <trkpt lat="44.17487" lon="4.73602">
        <ele>24.51</ele>
        <time>2019-05-28T12:48:15.000Z</time>
      </trkpt>
      <trkpt lat="44.17453" lon="4.73614">
        <ele>24.55</ele>
        <time>2019-05-28T12:48:20.000Z</time>
      </trkpt>
      <trkpt lat="44.17419" lon="4.73619">
        <ele>24.5</ele>
        <time>2019-05-28T12:48:25.000Z</time>
      </trkpt>
      <trkpt lat="44.17384" lon="4.73619">
        <ele>24.5</ele>
        <time>2019-05-28T12:48:30.000Z</time>
      </trkpt>
      <trkpt lat="44.17349" lon="4.73618">
        <ele>24.74</ele>
        <time>2019-05-28T12:48:35.000Z</time>
      </trkpt>
      <trkpt lat="44.17317" lon="4.73615">
        <ele>24.5</ele>
        <time>2019-05-28T12:48:40.000Z</time>
      </trkpt>
      <trkpt lat="44.17288" lon="4.7361">
        <ele>24.75</ele>
        <time>2019-05-28T12:48:45.000Z</time>
      </trkpt>
      <trkpt lat="44.17261" lon="4.73607">
        <ele>25.19</ele>
        <time>2019-05-28T12:48:50.000Z</time>
      </trkpt>
      <trkpt lat="44.17231" lon="4.73608">
        <ele>24.5</ele>
        <time>2019-05-28T12:48:55.000Z</time>
      </trkpt>
      <trkpt lat="44.17199" lon="4.73609">
        <ele>24.74</ele>
        <time>2019-05-28T12:49:00.000Z</time>
      </trkpt>
      <trkpt lat="44.17167" lon="4.73615">
        <ele>24.5</ele>
        <time>2019-05-28T12:49:05.000Z</time>
      </trkpt>
      <trkpt lat="44.17136" lon="4.73621">
        <ele>24.51</ele>
        <time>2019-05-28T12:49:10.000Z</time>
      </trkpt>
      <trkpt lat="44.17106" lon="4.73629">
        <ele>25.5</ele>
        <time>2019-05-28T12:49:15.000Z</time>
      </trkpt>
      <trkpt lat="44.17075" lon="4.7364">
        <ele>25.57</ele>
        <time>2019-05-28T12:49:20.000Z</time>
      </trkpt>
      <trkpt lat="44.17046" lon="4.73649">
        <ele>25.44</ele>
        <time>2019-05-28T12:49:25.000Z</time>
      </trkpt>
      <trkpt lat="44.17015" lon="4.73659">
        <ele>25.69</ele>
        <time>2019-05-28T12:49:30.000Z</time>
      </trkpt>
      <trkpt lat="44.16984" lon="4.7367">
        <ele>25.51</ele>
        <time>2019-05-28T12:49:35.000Z</time>
      </trkpt>
      <trkpt lat="44.1695" lon="4.73683">
        <ele>25.51</ele>
        <time>2019-05-28T12:49:40.000Z</time>
      </trkpt>
      <trkpt lat="44.16916" lon="4.73692">
        <ele>25.46</ele>
        <time>2019-05-28T12:49:45.000Z</time>
      </trkpt>
      <trkpt lat="44.1688" lon="4.73699">
        <ele>24.52</ele>
        <time>2019-05-28T12:49:50.000Z</time>
      </trkpt>
      <trkpt lat="44.16846" lon="4.73696">
        <ele>23.76</ele>
        <time>2019-05-28T12:49:55.000Z</time>
      </trkpt>
      <trkpt lat="44.16812" lon="4.73696">
        <ele>26.44</ele>
        <time>2019-05-28T12:50:00.000Z</time>
      </trkpt>
      <trkpt lat="44.1678" lon="4.73694">
        <ele>25.53</ele>
        <time>2019-05-28T12:50:05.000Z</time>
      </trkpt>
      <trkpt lat="44.16747" lon="4.73688">
        <ele>26.51</ele>
        <time>2019-05-28T12:50:10.000Z</time>
      </trkpt>
      <trkpt lat="44.16713" lon="4.73686">
        <ele>25.51</ele>
        <time>2019-05-28T12:50:15.000Z</time>
      </trkpt>
      <trkpt lat="44.1668" lon="4.73701">
        <ele>25.5</ele>
        <time>2019-05-28T12:50:20.000Z</time>
      </trkpt>
      <trkpt lat="44.16651" lon="4.73729">
        <ele>25.51</ele>
        <time>2019-05-28T12:50:25.000Z</time>
      </trkpt>
      <trkpt lat="44.16622" lon="4.73736">
        <ele>24.78</ele>
        <time>2019-05-28T12:50:30.000Z</time>
      </trkpt>
      <trkpt lat="44.16586" lon="4.73738">
        <ele>25.45</ele>
        <time>2019-05-28T12:50:35.000Z</time>
      </trkpt>
      <trkpt lat="44.16552" lon="4.73745">
        <ele>25.51</ele>
        <time>2019-05-28T12:50:40.000Z</time>
      </trkpt>
      <trkpt lat="44.16538" lon="4.73732">
        <ele>26.26</ele>
        <time>2019-05-28T12:50:45.000Z</time>
      </trkpt>
      <trkpt lat="44.16534" lon="4.73702">
        <ele>27.45</ele>
        <time>2019-05-28T12:50:50.000Z</time>
      </trkpt>
      <trkpt lat="44.16528" lon="4.73686">
        <ele>25.53</ele>
        <time>2019-05-28T12:50:55.000Z</time>
      </trkpt>
      <trkpt lat="44.1653" lon="4.73671">
        <ele>27.46</ele>
        <time>2019-05-28T12:52:54.000Z</time>
      </trkpt>
      <trkpt lat="44.16528" lon="4.7364">
        <ele>26.76</ele>
        <time>2019-05-28T12:52:59.000Z</time>
      </trkpt>
      <trkpt lat="44.1653" lon="4.73605">
        <ele>28.26</ele>
        <time>2019-05-28T12:53:04.000Z</time>
      </trkpt>
      <trkpt lat="44.16523" lon="4.73564">
        <ele>27.7</ele>
        <time>2019-05-28T12:53:09.000Z</time>
      </trkpt>
      <trkpt lat="44.16519" lon="4.73528">
        <ele>26.57</ele>
        <time>2019-05-28T12:53:14.000Z</time>
      </trkpt>
      <trkpt lat="44.16514" lon="4.73492">
        <ele>25.57</ele>
        <time>2019-05-28T12:53:19.000Z</time>
      </trkpt>
      <trkpt lat="44.16504" lon="4.73451">
        <ele>27.25</ele>
        <time>2019-05-28T12:53:24.000Z</time>
      </trkpt>
      <trkpt lat="44.16499" lon="4.73412">
        <ele>26.57</ele>
        <time>2019-05-28T12:53:29.000Z</time>
      </trkpt>
      <trkpt lat="44.16491" lon="4.73371">
        <ele>25.76</ele>
        <time>2019-05-28T12:53:34.000Z</time>
      </trkpt>
      <trkpt lat="44.16486" lon="4.73332">
        <ele>26.51</ele>
        <time>2019-05-28T12:53:39.000Z</time>
      </trkpt>
      <trkpt lat="44.16482" lon="4.73294">
        <ele>28.25</ele>
        <time>2019-05-28T12:53:44.000Z</time>
      </trkpt>
      <trkpt lat="44.16476" lon="4.73259">
        <ele>27.7</ele>
        <time>2019-05-28T12:53:49.000Z</time>
      </trkpt>
      <trkpt lat="44.1647" lon="4.73221">
        <ele>27.51</ele>
        <time>2019-05-28T12:53:54.000Z</time>
      </trkpt>
      <trkpt lat="44.16458" lon="4.73182">
        <ele>26.76</ele>
        <time>2019-05-28T12:53:59.000Z</time>
      </trkpt>
      <trkpt lat="44.16445" lon="4.73145">
        <ele>27.46</ele>
        <time>2019-05-28T12:54:04.000Z</time>
      </trkpt>
      <trkpt lat="44.16432" lon="4.73107">
        <ele>27.27</ele>
        <time>2019-05-28T12:54:09.000Z</time>
      </trkpt>
      <trkpt lat="44.16419" lon="4.7307">
        <ele>27.71</ele>
        <time>2019-05-28T12:54:14.000Z</time>
      </trkpt>
      <trkpt lat="44.16407" lon="4.73033">
        <ele>27.51</ele>
        <time>2019-05-28T12:54:19.000Z</time>
      </trkpt>
      <trkpt lat="44.16395" lon="4.72995">
        <ele>27.51</ele>
        <time>2019-05-28T12:54:24.000Z</time>
      </trkpt>
      <trkpt lat="44.16383" lon="4.72958">
        <ele>27.51</ele>
        <time>2019-05-28T12:54:29.000Z</time>
      </trkpt>
      <trkpt lat="44.16366" lon="4.72926">
        <ele>26.76</ele>
        <time>2019-05-28T12:54:34.000Z</time>
      </trkpt>
      <trkpt lat="44.16354" lon="4.72889">
        <ele>27.26</ele>
        <time>2019-05-28T12:54:39.000Z</time>
      </trkpt>
      <trkpt lat="44.16341" lon="4.72853">
        <ele>28.26</ele>
        <time>2019-05-28T12:54:44.000Z</time>
      </trkpt>
      <trkpt lat="44.16328" lon="4.72814">
        <ele>28.51</ele>
        <time>2019-05-28T12:54:49.000Z</time>
      </trkpt>
      <trkpt lat="44.16316" lon="4.72775">
        <ele>29.51</ele>
        <time>2019-05-28T12:54:54.000Z</time>
      </trkpt>
      <trkpt lat="44.16303" lon="4.72736">
        <ele>29.51</ele>
        <time>2019-05-28T12:54:59.000Z</time>
      </trkpt>
      <trkpt lat="44.1629" lon="4.72698">
        <ele>28.51</ele>
        <time>2019-05-28T12:55:04.000Z</time>
      </trkpt>
      <trkpt lat="44.16277" lon="4.72661">
        <ele>28.5</ele>
        <time>2019-05-28T12:55:09.000Z</time>
      </trkpt>
      <trkpt lat="44.16265" lon="4.72624">
        <ele>28.57</ele>
        <time>2019-05-28T12:55:14.000Z</time>
      </trkpt>
      <trkpt lat="44.16261" lon="4.72585">
        <ele>27.52</ele>
        <time>2019-05-28T12:55:19.000Z</time>
      </trkpt>
      <trkpt lat="44.16261" lon="4.72553">
        <ele>26.72</ele>
        <time>2019-05-28T12:55:24.000Z</time>
      </trkpt>
      <trkpt lat="44.16269" lon="4.72527">
        <ele>27.7</ele>
        <time>2019-05-28T12:55:29.000Z</time>
      </trkpt>
      <trkpt lat="44.16271" lon="4.72514">
        <ele>29.51</ele>
        <time>2019-05-28T12:55:44.000Z</time>
      </trkpt>
      <trkpt lat="44.16275" lon="4.72493">
        <ele>27.76</ele>
        <time>2019-05-28T12:55:49.000Z</time>
      </trkpt>
      <trkpt lat="44.16281" lon="4.72465">
        <ele>27.51</ele>
        <time>2019-05-28T12:55:54.000Z</time>
      </trkpt>
      <trkpt lat="44.16292" lon="4.72436">
        <ele>27.26</ele>
        <time>2019-05-28T12:55:59.000Z</time>
      </trkpt>
      <trkpt lat="44.16309" lon="4.72415">
        <ele>28.45</ele>
        <time>2019-05-28T12:56:04.000Z</time>
      </trkpt>
      <trkpt lat="44.16322" lon="4.72384">
        <ele>27.75</ele>
        <time>2019-05-28T12:56:09.000Z</time>
      </trkpt>
      <trkpt lat="44.16337" lon="4.7236">
        <ele>28.45</ele>
        <time>2019-05-28T12:56:14.000Z</time>
      </trkpt>
      <trkpt lat="44.16329" lon="4.72328">
        <ele>28.51</ele>
        <time>2019-05-28T12:56:19.000Z</time>
      </trkpt>
      <trkpt lat="44.16305" lon="4.72319">
        <ele>28.51</ele>
        <time>2019-05-28T12:56:24.000Z</time>
      </trkpt>
      <trkpt lat="44.16278" lon="4.72322">
        <ele>29.51</ele>
        <time>2019-05-28T12:56:29.000Z</time>
      </trkpt>
      <trkpt lat="44.16248" lon="4.72326">
        <ele>28.76</ele>
        <time>2019-05-28T12:56:34.000Z</time>
      </trkpt>
      <trkpt lat="44.16219" lon="4.72331">
        <ele>29.5</ele>
        <time>2019-05-28T12:56:39.000Z</time>
      </trkpt>
      <trkpt lat="44.16191" lon="4.7233">
        <ele>28.76</ele>
        <time>2019-05-28T12:56:44.000Z</time>
      </trkpt>
      <trkpt lat="44.16167" lon="4.72304">
        <ele>29.5</ele>
        <time>2019-05-28T12:56:49.000Z</time>
      </trkpt>
      <trkpt lat="44.16144" lon="4.72274">
        <ele>29.51</ele>
        <time>2019-05-28T12:56:54.000Z</time>
      </trkpt>
      <trkpt lat="44.16121" lon="4.72241">
        <ele>28.76</ele>
        <time>2019-05-28T12:56:59.000Z</time>
      </trkpt>
      <trkpt lat="44.16097" lon="4.72211">
        <ele>28.75</ele>
        <time>2019-05-28T12:57:04.000Z</time>
      </trkpt>
      <trkpt lat="44.16073" lon="4.7218">
        <ele>28.51</ele>
        <time>2019-05-28T12:57:09.000Z</time>
      </trkpt>
      <trkpt lat="44.16053" lon="4.72144">
        <ele>28.53</ele>
        <time>2019-05-28T12:57:14.000Z</time>
      </trkpt>
      <trkpt lat="44.16044" lon="4.72104">
        <ele>28.53</ele>
        <time>2019-05-28T12:57:19.000Z</time>
      </trkpt>
      <trkpt lat="44.1604" lon="4.72074">
        <ele>28.53</ele>
        <time>2019-05-28T12:57:24.000Z</time>
      </trkpt>
      <trkpt lat="44.1603" lon="4.72066">
        <ele>29.45</ele>
        <time>2019-05-28T12:57:29.000Z</time>
      </trkpt>
      <trkpt lat="44.16009" lon="4.72067">
        <ele>27.52</ele>
        <time>2019-05-28T12:57:34.000Z</time>
      </trkpt>
      <trkpt lat="44.15981" lon="4.72068">
        <ele>27.51</ele>
        <time>2019-05-28T12:57:39.000Z</time>
      </trkpt>
      <trkpt lat="44.15951" lon="4.7207">
        <ele>28.51</ele>
        <time>2019-05-28T12:57:44.000Z</time>
      </trkpt>
      <trkpt lat="44.15919" lon="4.72073">
        <ele>28.52</ele>
        <time>2019-05-28T12:57:49.000Z</time>
      </trkpt>
      <trkpt lat="44.15885" lon="4.72076">
        <ele>27.52</ele>
        <time>2019-05-28T12:57:54.000Z</time>
      </trkpt>
      <trkpt lat="44.1585" lon="4.72082">
        <ele>26.58</ele>
        <time>2019-05-28T12:57:59.000Z</time>
      </trkpt>
      <trkpt lat="44.15814" lon="4.72088">
        <ele>26.56</ele>
        <time>2019-05-28T12:58:04.000Z</time>
      </trkpt>
      <trkpt lat="44.15777" lon="4.72092">
        <ele>26.52</ele>
        <time>2019-05-28T12:58:09.000Z</time>
      </trkpt>
      <trkpt lat="44.15741" lon="4.72096">
        <ele>26.52</ele>
        <time>2019-05-28T12:58:14.000Z</time>
      </trkpt>
      <trkpt lat="44.15706" lon="4.72101">
        <ele>27.5</ele>
        <time>2019-05-28T12:58:19.000Z</time>
      </trkpt>
      <trkpt lat="44.15692" lon="4.72071">
        <ele>28.46</ele>
        <time>2019-05-28T12:58:24.000Z</time>
      </trkpt>
      <trkpt lat="44.15699" lon="4.72042">
        <ele>28.53</ele>
        <time>2019-05-28T12:58:29.000Z</time>
      </trkpt>
      <trkpt lat="44.15713" lon="4.72026">
        <ele>30.44</ele>
        <time>2019-05-28T12:58:34.000Z</time>
      </trkpt>
      <trkpt lat="44.15726" lon="4.72017">
        <ele>32.5</ele>
        <time>2019-05-28T12:58:39.000Z</time>
      </trkpt>
      <trkpt lat="44.15732" lon="4.72001">
        <ele>32.52</ele>
        <time>2019-05-28T12:58:44.000Z</time>
      </trkpt>
      <trkpt lat="44.15712" lon="4.72">
        <ele>31.53</ele>
        <time>2019-05-28T12:58:49.000Z</time>
      </trkpt>
      <trkpt lat="44.15686" lon="4.72009">
        <ele>30.52</ele>
        <time>2019-05-28T12:58:54.000Z</time>
      </trkpt>
      <trkpt lat="44.15661" lon="4.72015">
        <ele>31.5</ele>
        <time>2019-05-28T12:58:59.000Z</time>
      </trkpt>
      <trkpt lat="44.15634" lon="4.72021">
        <ele>31.52</ele>
        <time>2019-05-28T12:59:04.000Z</time>
      </trkpt>
      <trkpt lat="44.15606" lon="4.72032">
        <ele>31.75</ele>
        <time>2019-05-28T12:59:09.000Z</time>
      </trkpt>
      <trkpt lat="44.15575" lon="4.72042">
        <ele>32.52</ele>
        <time>2019-05-28T12:59:14.000Z</time>
      </trkpt>
      <trkpt lat="44.15542" lon="4.72054">
        <ele>32.27</ele>
        <time>2019-05-28T12:59:19.000Z</time>
      </trkpt>
      <trkpt lat="44.15508" lon="4.72064">
        <ele>32.52</ele>
        <time>2019-05-28T12:59:24.000Z</time>
      </trkpt>
      <trkpt lat="44.15472" lon="4.72073">
        <ele>32.51</ele>
        <time>2019-05-28T12:59:29.000Z</time>
      </trkpt>
      <trkpt lat="44.15436" lon="4.72086">
        <ele>31.58</ele>
        <time>2019-05-28T12:59:34.000Z</time>
      </trkpt>
      <trkpt lat="44.15401" lon="4.72098">
        <ele>31.52</ele>
        <time>2019-05-28T12:59:39.000Z</time>
      </trkpt>
      <trkpt lat="44.15366" lon="4.72108">
        <ele>31.52</ele>
        <time>2019-05-28T12:59:44.000Z</time>
      </trkpt>
      <trkpt lat="44.15331" lon="4.72119">
        <ele>31.52</ele>
        <time>2019-05-28T12:59:49.000Z</time>
      </trkpt>
      <trkpt lat="44.15295" lon="4.72131">
        <ele>32.51</ele>
        <time>2019-05-28T12:59:54.000Z</time>
      </trkpt>
      <trkpt lat="44.1526" lon="4.72141">
        <ele>31.53</ele>
        <time>2019-05-28T12:59:59.000Z</time>
      </trkpt>
      <trkpt lat="44.15225" lon="4.72152">
        <ele>32.33</ele>
        <time>2019-05-28T13:00:04.000Z</time>
      </trkpt>
      <trkpt lat="44.15189" lon="4.72161">
        <ele>32.34</ele>
        <time>2019-05-28T13:00:09.000Z</time>
      </trkpt>
      <trkpt lat="44.15154" lon="4.7217">
        <ele>33.27</ele>
        <time>2019-05-28T13:00:14.000Z</time>
      </trkpt>
      <trkpt lat="44.15121" lon="4.7218">
        <ele>33.52</ele>
        <time>2019-05-28T13:00:19.000Z</time>
      </trkpt>
      <trkpt lat="44.15086" lon="4.72193">
        <ele>34.27</ele>
        <time>2019-05-28T13:00:24.000Z</time>
      </trkpt>
      <trkpt lat="44.15053" lon="4.72203">
        <ele>34.53</ele>
        <time>2019-05-28T13:00:29.000Z</time>
      </trkpt>
      <trkpt lat="44.15024" lon="4.72201">
        <ele>36.46</ele>
        <time>2019-05-28T13:00:34.000Z</time>
      </trkpt>
      <trkpt lat="44.15" lon="4.72206">
        <ele>35.59</ele>
        <time>2019-05-28T13:00:39.000Z</time>
      </trkpt>
      <trkpt lat="44.14963" lon="4.72221">
        <ele>33.53</ele>
        <time>2019-05-28T13:00:44.000Z</time>
      </trkpt>
      <trkpt lat="44.14923" lon="4.72238">
        <ele>32.59</ele>
        <time>2019-05-28T13:00:49.000Z</time>
      </trkpt>
      <trkpt lat="44.14881" lon="4.7225">
        <ele>32.28</ele>
        <time>2019-05-28T13:00:54.000Z</time>
      </trkpt>
      <trkpt lat="44.14838" lon="4.72263">
        <ele>32.52</ele>
        <time>2019-05-28T13:00:59.000Z</time>
      </trkpt>
      <trkpt lat="44.14795" lon="4.72273">
        <ele>32.53</ele>
        <time>2019-05-28T13:01:04.000Z</time>
      </trkpt>
      <trkpt lat="44.14752" lon="4.72281">
        <ele>32.53</ele>
        <time>2019-05-28T13:01:09.000Z</time>
      </trkpt>
      <trkpt lat="44.14708" lon="4.72288">
        <ele>33.28</ele>
        <time>2019-05-28T13:01:14.000Z</time>
      </trkpt>
      <trkpt lat="44.14665" lon="4.72293">
        <ele>33.53</ele>
        <time>2019-05-28T13:01:19.000Z</time>
      </trkpt>
      <trkpt lat="44.14623" lon="4.72297">
        <ele>34.51</ele>
        <time>2019-05-28T13:01:24.000Z</time>
      </trkpt>
      <trkpt lat="44.1458" lon="4.72301">
        <ele>34.53</ele>
        <time>2019-05-28T13:01:29.000Z</time>
      </trkpt>
      <trkpt lat="44.14538" lon="4.72305">
        <ele>33.54</ele>
        <time>2019-05-28T13:01:34.000Z</time>
      </trkpt>
      <trkpt lat="44.14496" lon="4.72307">
        <ele>34.28</ele>
        <time>2019-05-28T13:01:39.000Z</time>
      </trkpt>
      <trkpt lat="44.14452" lon="4.72309">
        <ele>32.79</ele>
        <time>2019-05-28T13:01:44.000Z</time>
      </trkpt>
      <trkpt lat="44.14409" lon="4.72309">
        <ele>32.53</ele>
        <time>2019-05-28T13:01:49.000Z</time>
      </trkpt>
      <trkpt lat="44.14367" lon="4.72309">
        <ele>31.53</ele>
        <time>2019-05-28T13:01:54.000Z</time>
      </trkpt>
      <trkpt lat="44.14325" lon="4.72305">
        <ele>31.52</ele>
        <time>2019-05-28T13:01:59.000Z</time>
      </trkpt>
      <trkpt lat="44.14285" lon="4.72301">
        <ele>31.53</ele>
        <time>2019-05-28T13:02:04.000Z</time>
      </trkpt>
      <trkpt lat="44.14244" lon="4.72296">
        <ele>32.29</ele>
        <time>2019-05-28T13:02:09.000Z</time>
      </trkpt>
      <trkpt lat="44.14205" lon="4.72288">
        <ele>32.53</ele>
        <time>2019-05-28T13:02:14.000Z</time>
      </trkpt>
      <trkpt lat="44.14165" lon="4.72281">
        <ele>32.52</ele>
        <time>2019-05-28T13:02:19.000Z</time>
      </trkpt>
      <trkpt lat="44.14125" lon="4.72274">
        <ele>31.58</ele>
        <time>2019-05-28T13:02:24.000Z</time>
      </trkpt>
      <trkpt lat="44.14086" lon="4.72263">
        <ele>31.54</ele>
        <time>2019-05-28T13:02:29.000Z</time>
      </trkpt>
      <trkpt lat="44.14049" lon="4.72251">
        <ele>32.47</ele>
        <time>2019-05-28T13:02:34.000Z</time>
      </trkpt>
      <trkpt lat="44.14011" lon="4.7224">
        <ele>33.47</ele>
        <time>2019-05-28T13:02:39.000Z</time>
      </trkpt>
      <trkpt lat="44.13975" lon="4.72227">
        <ele>34.53</ele>
        <time>2019-05-28T13:02:44.000Z</time>
      </trkpt>
      <trkpt lat="44.13938" lon="4.72213">
        <ele>33.54</ele>
        <time>2019-05-28T13:02:49.000Z</time>
      </trkpt>
      <trkpt lat="44.13902" lon="4.72197">
        <ele>32.54</ele>
        <time>2019-05-28T13:02:54.000Z</time>
      </trkpt>
      <trkpt lat="44.13867" lon="4.72181">
        <ele>32.35</ele>
        <time>2019-05-28T13:02:59.000Z</time>
      </trkpt>
      <trkpt lat="44.13833" lon="4.72165">
        <ele>31.55</ele>
        <time>2019-05-28T13:03:04.000Z</time>
      </trkpt>
      <trkpt lat="44.13797" lon="4.72147">
        <ele>31.54</ele>
        <time>2019-05-28T13:03:09.000Z</time>
      </trkpt>
      <trkpt lat="44.13762" lon="4.72127">
        <ele>32.48</ele>
        <time>2019-05-28T13:03:14.000Z</time>
      </trkpt>
      <trkpt lat="44.13727" lon="4.72109">
        <ele>31.54</ele>
        <time>2019-05-28T13:03:19.000Z</time>
      </trkpt>
      <trkpt lat="44.13694" lon="4.72092">
        <ele>31.54</ele>
        <time>2019-05-28T13:03:24.000Z</time>
      </trkpt>
      <trkpt lat="44.13662" lon="4.72072">
        <ele>32.54</ele>
        <time>2019-05-28T13:03:29.000Z</time>
      </trkpt>
      <trkpt lat="44.13629" lon="4.72051">
        <ele>32.54</ele>
        <time>2019-05-28T13:03:34.000Z</time>
      </trkpt>
      <trkpt lat="44.13596" lon="4.72033">
        <ele>31.36</ele>
        <time>2019-05-28T13:03:39.000Z</time>
      </trkpt>
      <trkpt lat="44.13563" lon="4.72014">
        <ele>30.54</ele>
        <time>2019-05-28T13:03:44.000Z</time>
      </trkpt>
      <trkpt lat="44.13529" lon="4.71994">
        <ele>30.54</ele>
        <time>2019-05-28T13:03:49.000Z</time>
      </trkpt>
      <trkpt lat="44.13494" lon="4.71975">
        <ele>31.35</ele>
        <time>2019-05-28T13:03:54.000Z</time>
      </trkpt>
      <trkpt lat="44.1346" lon="4.71955">
        <ele>31.54</ele>
        <time>2019-05-28T13:03:59.000Z</time>
      </trkpt>
      <trkpt lat="44.13425" lon="4.71937">
        <ele>31.54</ele>
        <time>2019-05-28T13:04:04.000Z</time>
      </trkpt>
      <trkpt lat="44.13391" lon="4.71916">
        <ele>31.54</ele>
        <time>2019-05-28T13:04:09.000Z</time>
      </trkpt>
      <trkpt lat="44.13357" lon="4.71896">
        <ele>30.56</ele>
        <time>2019-05-28T13:04:14.000Z</time>
      </trkpt>
      <trkpt lat="44.13322" lon="4.71876">
        <ele>29.5</ele>
        <time>2019-05-28T13:04:19.000Z</time>
      </trkpt>
      <trkpt lat="44.13289" lon="4.71859">
        <ele>31.53</ele>
        <time>2019-05-28T13:04:24.000Z</time>
      </trkpt>
      <trkpt lat="44.13256" lon="4.71839">
        <ele>30.62</ele>
        <time>2019-05-28T13:04:29.000Z</time>
      </trkpt>
      <trkpt lat="44.13222" lon="4.7182">
        <ele>31.48</ele>
        <time>2019-05-28T13:04:34.000Z</time>
      </trkpt>
      <trkpt lat="44.13189" lon="4.71799">
        <ele>32.34</ele>
        <time>2019-05-28T13:04:39.000Z</time>
      </trkpt>
      <trkpt lat="44.13158" lon="4.7178">
        <ele>32.55</ele>
        <time>2019-05-28T13:04:44.000Z</time>
      </trkpt>
      <trkpt lat="44.13125" lon="4.71761">
        <ele>31.56</ele>
        <time>2019-05-28T13:04:49.000Z</time>
      </trkpt>
      <trkpt lat="44.13093" lon="4.71742">
        <ele>31.55</ele>
        <time>2019-05-28T13:04:54.000Z</time>
      </trkpt>
      <trkpt lat="44.13061" lon="4.71722">
        <ele>31.55</ele>
        <time>2019-05-28T13:04:59.000Z</time>
      </trkpt>
      <trkpt lat="44.13028" lon="4.71704">
        <ele>32.54</ele>
        <time>2019-05-28T13:05:04.000Z</time>
      </trkpt>
      <trkpt lat="44.12994" lon="4.71687">
        <ele>32.36</ele>
        <time>2019-05-28T13:05:09.000Z</time>
      </trkpt>
      <trkpt lat="44.1296" lon="4.71673">
        <ele>31.55</ele>
        <time>2019-05-28T13:05:14.000Z</time>
      </trkpt>
      <trkpt lat="44.12924" lon="4.71662">
        <ele>31.55</ele>
        <time>2019-05-28T13:05:19.000Z</time>
      </trkpt>
      <trkpt lat="44.1289" lon="4.71651">
        <ele>31.55</ele>
        <time>2019-05-28T13:05:24.000Z</time>
      </trkpt>
      <trkpt lat="44.12855" lon="4.7164">
        <ele>31.55</ele>
        <time>2019-05-28T13:05:29.000Z</time>
      </trkpt>
      <trkpt lat="44.12831" lon="4.71616">
        <ele>30.81</ele>
        <time>2019-05-28T13:05:34.000Z</time>
      </trkpt>
      <trkpt lat="44.1283" lon="4.71575">
        <ele>31.55</ele>
        <time>2019-05-28T13:05:39.000Z</time>
      </trkpt>
      <trkpt lat="44.12805" lon="4.7156">
        <ele>31.49</ele>
        <time>2019-05-28T13:05:44.000Z</time>
      </trkpt>
      <trkpt lat="44.12789" lon="4.71593">
        <ele>32.53</ele>
        <time>2019-05-28T13:05:49.000Z</time>
      </trkpt>
      <trkpt lat="44.12775" lon="4.71628">
        <ele>31.8</ele>
        <time>2019-05-28T13:05:54.000Z</time>
      </trkpt>
      <trkpt lat="44.12743" lon="4.71625">
        <ele>30.61</ele>
        <time>2019-05-28T13:05:59.000Z</time>
      </trkpt>
      <trkpt lat="44.12709" lon="4.71624">
        <ele>30.55</ele>
        <time>2019-05-28T13:06:04.000Z</time>
      </trkpt>
      <trkpt lat="44.12673" lon="4.71625">
        <ele>30.36</ele>
        <time>2019-05-28T13:06:09.000Z</time>
      </trkpt>
      <trkpt lat="44.12636" lon="4.71626">
        <ele>30.55</ele>
        <time>2019-05-28T13:06:14.000Z</time>
      </trkpt>
      <trkpt lat="44.12599" lon="4.71626">
        <ele>30.55</ele>
        <time>2019-05-28T13:06:19.000Z</time>
      </trkpt>
      <trkpt lat="44.12563" lon="4.71624">
        <ele>29.57</ele>
        <time>2019-05-28T13:06:24.000Z</time>
      </trkpt>
      <trkpt lat="44.12527" lon="4.71625">
        <ele>28.62</ele>
        <time>2019-05-28T13:06:29.000Z</time>
      </trkpt>
      <trkpt lat="44.12491" lon="4.71626">
        <ele>29.36</ele>
        <time>2019-05-28T13:06:34.000Z</time>
      </trkpt>
      <trkpt lat="44.12455" lon="4.71627">
        <ele>29.49</ele>
        <time>2019-05-28T13:06:39.000Z</time>
      </trkpt>
      <trkpt lat="44.12418" lon="4.71628">
        <ele>30.35</ele>
        <time>2019-05-28T13:06:44.000Z</time>
      </trkpt>
      <trkpt lat="44.12382" lon="4.71628">
        <ele>29.61</ele>
        <time>2019-05-28T13:06:49.000Z</time>
      </trkpt>
      <trkpt lat="44.12347" lon="4.7163">
        <ele>29.31</ele>
        <time>2019-05-28T13:06:54.000Z</time>
      </trkpt>
      <trkpt lat="44.12312" lon="4.71634">
        <ele>29.31</ele>
        <time>2019-05-28T13:06:59.000Z</time>
      </trkpt>
      <trkpt lat="44.12278" lon="4.7164">
        <ele>28.57</ele>
        <time>2019-05-28T13:07:04.000Z</time>
      </trkpt>
      <trkpt lat="44.12242" lon="4.71649">
        <ele>27.57</ele>
        <time>2019-05-28T13:07:09.000Z</time>
      </trkpt>
      <trkpt lat="44.12208" lon="4.71664">
        <ele>26.56</ele>
        <time>2019-05-28T13:07:14.000Z</time>
      </trkpt>
      <trkpt lat="44.12175" lon="4.71677">
        <ele>28.49</ele>
        <time>2019-05-28T13:07:19.000Z</time>
      </trkpt>
      <trkpt lat="44.1214" lon="4.71691">
        <ele>29.74</ele>
        <time>2019-05-28T13:07:24.000Z</time>
      </trkpt>
      <trkpt lat="44.12104" lon="4.71705">
        <ele>28.56</ele>
        <time>2019-05-28T13:07:29.000Z</time>
      </trkpt>
      <trkpt lat="44.12069" lon="4.71718">
        <ele>29.31</ele>
        <time>2019-05-28T13:07:34.000Z</time>
      </trkpt>
      <trkpt lat="44.12036" lon="4.7173">
        <ele>30.5</ele>
        <time>2019-05-28T13:07:39.000Z</time>
      </trkpt>
      <trkpt lat="44.12003" lon="4.71743">
        <ele>31.54</ele>
        <time>2019-05-28T13:07:44.000Z</time>
      </trkpt>
      <trkpt lat="44.11969" lon="4.71757">
        <ele>30.56</ele>
        <time>2019-05-28T13:07:49.000Z</time>
      </trkpt>
      <trkpt lat="44.11935" lon="4.71769">
        <ele>30.56</ele>
        <time>2019-05-28T13:07:54.000Z</time>
      </trkpt>
      <trkpt lat="44.11903" lon="4.71774">
        <ele>31.54</ele>
        <time>2019-05-28T13:07:59.000Z</time>
      </trkpt>
      <trkpt lat="44.11877" lon="4.71782">
        <ele>31.81</ele>
        <time>2019-05-28T13:08:04.000Z</time>
      </trkpt>
      <trkpt lat="44.11849" lon="4.71791">
        <ele>31.81</ele>
        <time>2019-05-28T13:08:09.000Z</time>
      </trkpt>
      <trkpt lat="44.11819" lon="4.71801">
        <ele>32.31</ele>
        <time>2019-05-28T13:08:14.000Z</time>
      </trkpt>
      <trkpt lat="44.11789" lon="4.71812">
        <ele>32.56</ele>
        <time>2019-05-28T13:08:19.000Z</time>
      </trkpt>
      <trkpt lat="44.11758" lon="4.71825">
        <ele>33.55</ele>
        <time>2019-05-28T13:08:24.000Z</time>
      </trkpt>
      <trkpt lat="44.11726" lon="4.71838">
        <ele>33.56</ele>
        <time>2019-05-28T13:08:29.000Z</time>
      </trkpt>
      <trkpt lat="44.11694" lon="4.7185">
        <ele>33.56</ele>
        <time>2019-05-28T13:08:34.000Z</time>
      </trkpt>
      <trkpt lat="44.11662" lon="4.71862">
        <ele>34.31</ele>
        <time>2019-05-28T13:08:39.000Z</time>
      </trkpt>
      <trkpt lat="44.11629" lon="4.71873">
        <ele>33.63</ele>
        <time>2019-05-28T13:08:44.000Z</time>
      </trkpt>
      <trkpt lat="44.11595" lon="4.71886">
        <ele>32.58</ele>
        <time>2019-05-28T13:08:49.000Z</time>
      </trkpt>
      <trkpt lat="44.1156" lon="4.71898">
        <ele>32.56</ele>
        <time>2019-05-28T13:08:54.000Z</time>
      </trkpt>
      <trkpt lat="44.11525" lon="4.7191">
        <ele>33.56</ele>
        <time>2019-05-28T13:08:59.000Z</time>
      </trkpt>
      <trkpt lat="44.11492" lon="4.71921">
        <ele>32.77</ele>
        <time>2019-05-28T13:09:04.000Z</time>
      </trkpt>
      <trkpt lat="44.1146" lon="4.71931">
        <ele>33.56</ele>
        <time>2019-05-28T13:09:09.000Z</time>
      </trkpt>
      <trkpt lat="44.11426" lon="4.71942">
        <ele>33.57</ele>
        <time>2019-05-28T13:09:14.000Z</time>
      </trkpt>
      <trkpt lat="44.11392" lon="4.71957">
        <ele>33.57</ele>
        <time>2019-05-28T13:09:19.000Z</time>
      </trkpt>
      <trkpt lat="44.11357" lon="4.71971">
        <ele>34.32</ele>
        <time>2019-05-28T13:09:24.000Z</time>
      </trkpt>
      <trkpt lat="44.11322" lon="4.71986">
        <ele>32.82</ele>
        <time>2019-05-28T13:09:29.000Z</time>
      </trkpt>
      <trkpt lat="44.11283" lon="4.72002">
        <ele>31.63</ele>
        <time>2019-05-28T13:09:34.000Z</time>
      </trkpt>
      <trkpt lat="44.11241" lon="4.72018">
        <ele>30.52</ele>
        <time>2019-05-28T13:09:39.000Z</time>
      </trkpt>
      <trkpt lat="44.11209" lon="4.72031">
        <ele>29.57</ele>
        <time>2019-05-28T13:09:44.000Z</time>
      </trkpt>
      <trkpt lat="44.11205" lon="4.72054">
        <ele>28.57</ele>
        <time>2019-05-28T13:09:49.000Z</time>
      </trkpt>
      <trkpt lat="44.11184" lon="4.72058">
        <ele>28.57</ele>
        <time>2019-05-28T13:09:54.000Z</time>
      </trkpt>
      <trkpt lat="44.11157" lon="4.72063">
        <ele>28.57</ele>
        <time>2019-05-28T13:09:59.000Z</time>
      </trkpt>
      <trkpt lat="44.11123" lon="4.72074">
        <ele>27.38</ele>
        <time>2019-05-28T13:10:04.000Z</time>
      </trkpt>
      <trkpt lat="44.11089" lon="4.7209">
        <ele>26.57</ele>
        <time>2019-05-28T13:10:09.000Z</time>
      </trkpt>
      <trkpt lat="44.11055" lon="4.72106">
        <ele>27.33</ele>
        <time>2019-05-28T13:10:14.000Z</time>
      </trkpt>
      <trkpt lat="44.11022" lon="4.72124">
        <ele>26.77</ele>
        <time>2019-05-28T13:10:19.000Z</time>
      </trkpt>
      <trkpt lat="44.10989" lon="4.72146">
        <ele>26.51</ele>
        <time>2019-05-28T13:10:24.000Z</time>
      </trkpt>
      <trkpt lat="44.10959" lon="4.72171">
        <ele>26.82</ele>
        <time>2019-05-28T13:10:29.000Z</time>
      </trkpt>
      <trkpt lat="44.1093" lon="4.72201">
        <ele>27.57</ele>
        <time>2019-05-28T13:10:34.000Z</time>
      </trkpt>
      <trkpt lat="44.10903" lon="4.72234">
        <ele>27.57</ele>
        <time>2019-05-28T13:10:39.000Z</time>
      </trkpt>
      <trkpt lat="44.10878" lon="4.72266">
        <ele>29.2</ele>
        <time>2019-05-28T13:10:44.000Z</time>
      </trkpt>
      <trkpt lat="44.10853" lon="4.72298">
        <ele>26.59</ele>
        <time>2019-05-28T13:10:49.000Z</time>
      </trkpt>
      <trkpt lat="44.1083" lon="4.72328">
        <ele>24.59</ele>
        <time>2019-05-28T13:10:54.000Z</time>
      </trkpt>
      <trkpt lat="44.10804" lon="4.72361">
        <ele>23.78</ele>
        <time>2019-05-28T13:10:59.000Z</time>
      </trkpt>
      <trkpt lat="44.10777" lon="4.72394">
        <ele>23.68</ele>
        <time>2019-05-28T13:11:04.000Z</time>
      </trkpt>
      <trkpt lat="44.10754" lon="4.72427">
        <ele>24.39</ele>
        <time>2019-05-28T13:11:09.000Z</time>
      </trkpt>
      <trkpt lat="44.10728" lon="4.72465">
        <ele>22.65</ele>
        <time>2019-05-28T13:11:14.000Z</time>
      </trkpt>
      <trkpt lat="44.107" lon="4.72499">
        <ele>22.58</ele>
        <time>2019-05-28T13:11:19.000Z</time>
      </trkpt>
      <trkpt lat="44.10672" lon="4.72535">
        <ele>24.32</ele>
        <time>2019-05-28T13:11:24.000Z</time>
      </trkpt>
      <trkpt lat="44.10645" lon="4.72571">
        <ele>23.83</ele>
        <time>2019-05-28T13:11:29.000Z</time>
      </trkpt>
      <trkpt lat="44.10619" lon="4.72605">
        <ele>24.33</ele>
        <time>2019-05-28T13:11:34.000Z</time>
      </trkpt>
      <trkpt lat="44.10594" lon="4.72638">
        <ele>23.52</ele>
        <time>2019-05-28T13:11:39.000Z</time>
      </trkpt>
      <trkpt lat="44.10566" lon="4.72671">
        <ele>24.56</ele>
        <time>2019-05-28T13:11:44.000Z</time>
      </trkpt>
      <trkpt lat="44.10537" lon="4.72699">
        <ele>25.33</ele>
        <time>2019-05-28T13:11:49.000Z</time>
      </trkpt>
      <trkpt lat="44.10505" lon="4.72722">
        <ele>27.56</ele>
        <time>2019-05-28T13:11:54.000Z</time>
      </trkpt>
      <trkpt lat="44.10473" lon="4.72742">
        <ele>28.33</ele>
        <time>2019-05-28T13:11:59.000Z</time>
      </trkpt>
      <trkpt lat="44.1044" lon="4.72757">
        <ele>26.64</ele>
        <time>2019-05-28T13:12:04.000Z</time>
      </trkpt>
      <trkpt lat="44.10405" lon="4.72765">
        <ele>27.59</ele>
        <time>2019-05-28T13:12:09.000Z</time>
      </trkpt>
      <trkpt lat="44.10371" lon="4.7277">
        <ele>26.58</ele>
        <time>2019-05-28T13:12:14.000Z</time>
      </trkpt>
      <trkpt lat="44.10337" lon="4.72772">
        <ele>24.66</ele>
        <time>2019-05-28T13:12:19.000Z</time>
      </trkpt>
      <trkpt lat="44.10303" lon="4.72767">
        <ele>25.33</ele>
        <time>2019-05-28T13:12:24.000Z</time>
      </trkpt>
      <trkpt lat="44.10267" lon="4.72758">
        <ele>24.58</ele>
        <time>2019-05-28T13:12:29.000Z</time>
      </trkpt>
      <trkpt lat="44.10234" lon="4.72746">
        <ele>23.54</ele>
        <time>2019-05-28T13:12:34.000Z</time>
      </trkpt>
      <trkpt lat="44.10201" lon="4.72729">
        <ele>23.58</ele>
        <time>2019-05-28T13:12:39.000Z</time>
      </trkpt>
      <trkpt lat="44.10169" lon="4.72709">
        <ele>24.39</ele>
        <time>2019-05-28T13:12:44.000Z</time>
      </trkpt>
      <trkpt lat="44.10135" lon="4.7269">
        <ele>25.58</ele>
        <time>2019-05-28T13:12:49.000Z</time>
      </trkpt>
      <trkpt lat="44.10103" lon="4.7267">
        <ele>25.4</ele>
        <time>2019-05-28T13:12:54.000Z</time>
      </trkpt>
      <trkpt lat="44.1007" lon="4.72649">
        <ele>27.7</ele>
        <time>2019-05-28T13:12:59.000Z</time>
      </trkpt>
      <trkpt lat="44.10036" lon="4.72633">
        <ele>28.33</ele>
        <time>2019-05-28T13:13:04.000Z</time>
      </trkpt>
      <trkpt lat="44.10005" lon="4.72622">
        <ele>27.34</ele>
        <time>2019-05-28T13:13:09.000Z</time>
      </trkpt>
      <trkpt lat="44.09976" lon="4.72632">
        <ele>27.58</ele>
        <time>2019-05-28T13:13:14.000Z</time>
      </trkpt>
      <trkpt lat="44.09946" lon="4.72623">
        <ele>28.58</ele>
        <time>2019-05-28T13:13:19.000Z</time>
      </trkpt>
      <trkpt lat="44.09915" lon="4.72614">
        <ele>28.57</ele>
        <time>2019-05-28T13:13:24.000Z</time>
      </trkpt>
      <trkpt lat="44.09882" lon="4.72609">
        <ele>28.77</ele>
        <time>2019-05-28T13:13:29.000Z</time>
      </trkpt>
      <trkpt lat="44.0985" lon="4.72605">
        <ele>29.58</ele>
        <time>2019-05-28T13:13:34.000Z</time>
      </trkpt>
      <trkpt lat="44.09817" lon="4.72604">
        <ele>29.57</ele>
        <time>2019-05-28T13:13:39.000Z</time>
      </trkpt>
      <trkpt lat="44.09783" lon="4.72606">
        <ele>30.52</ele>
        <time>2019-05-28T13:13:44.000Z</time>
      </trkpt>
      <trkpt lat="44.09752" lon="4.72608">
        <ele>29.65</ele>
        <time>2019-05-28T13:13:49.000Z</time>
      </trkpt>
      <trkpt lat="44.09721" lon="4.72608">
        <ele>28.65</ele>
        <time>2019-05-28T13:13:54.000Z</time>
      </trkpt>
      <trkpt lat="44.09696" lon="4.72607">
        <ele>29.57</ele>
        <time>2019-05-28T13:13:59.000Z</time>
      </trkpt>
      <trkpt lat="44.09686" lon="4.72604">
        <ele>28.6</ele>
        <time>2019-05-28T13:14:05.000Z</time>
      </trkpt>
      <trkpt lat="44.09678" lon="4.72613">
        <ele>29.34</ele>
        <time>2019-05-28T13:14:14.000Z</time>
      </trkpt>
      <trkpt lat="44.09679" lon="4.7264">
        <ele>29.59</ele>
        <time>2019-05-28T13:14:19.000Z</time>
      </trkpt>
      <trkpt lat="44.09679" lon="4.72675">
        <ele>29.53</ele>
        <time>2019-05-28T13:14:24.000Z</time>
      </trkpt>
      <trkpt lat="44.09681" lon="4.72713">
        <ele>29.59</ele>
        <time>2019-05-28T13:14:29.000Z</time>
      </trkpt>
      <trkpt lat="44.09681" lon="4.72748">
        <ele>28.59</ele>
        <time>2019-05-28T13:14:34.000Z</time>
      </trkpt>
      <trkpt lat="44.09682" lon="4.72788">
        <ele>30.45</ele>
        <time>2019-05-28T13:14:39.000Z</time>
      </trkpt>
      <trkpt lat="44.09684" lon="4.7283">
        <ele>30.71</ele>
        <time>2019-05-28T13:14:44.000Z</time>
      </trkpt>
      <trkpt lat="44.09686" lon="4.72871">
        <ele>29.59</ele>
        <time>2019-05-28T13:14:49.000Z</time>
      </trkpt>
      <trkpt lat="44.09687" lon="4.72912">
        <ele>31.65</ele>
        <time>2019-05-28T13:14:54.000Z</time>
      </trkpt>
      <trkpt lat="44.09689" lon="4.72953">
        <ele>30.59</ele>
        <time>2019-05-28T13:14:59.000Z</time>
      </trkpt>
      <trkpt lat="44.0969" lon="4.72995">
        <ele>30.59</ele>
        <time>2019-05-28T13:15:04.000Z</time>
      </trkpt>
      <trkpt lat="44.0969" lon="4.73037">
        <ele>29.6</ele>
        <time>2019-05-28T13:15:09.000Z</time>
      </trkpt>
      <trkpt lat="44.09694" lon="4.73073">
        <ele>29.59</ele>
        <time>2019-05-28T13:15:14.000Z</time>
      </trkpt>
      <trkpt lat="44.09699" lon="4.73086">
        <ele>30.59</ele>
        <time>2019-05-28T13:15:26.000Z</time>
      </trkpt>
      <trkpt lat="44.09703" lon="4.73099">
        <ele>29.65</ele>
        <time>2019-05-28T13:15:31.000Z</time>
      </trkpt>
      <trkpt lat="44.09693" lon="4.73101">
        <ele>33.59</ele>
        <time>2019-05-28T13:17:08.000Z</time>
      </trkpt>
      <trkpt lat="44.09676" lon="4.73108">
        <ele>31.15</ele>
        <time>2019-05-28T13:17:13.000Z</time>
      </trkpt>
      <trkpt lat="44.09649" lon="4.73107">
        <ele>32.5</ele>
        <time>2019-05-28T13:17:18.000Z</time>
      </trkpt>
      <trkpt lat="44.09627" lon="4.7311">
        <ele>30.62</ele>
        <time>2019-05-28T13:17:23.000Z</time>
      </trkpt>
      <trkpt lat="44.09602" lon="4.73107">
        <ele>29.09</ele>
        <time>2019-05-28T13:17:28.000Z</time>
      </trkpt>
      <trkpt lat="44.09575" lon="4.73103">
        <ele>29.6</ele>
        <time>2019-05-28T13:17:33.000Z</time>
      </trkpt>
      <trkpt lat="44.09546" lon="4.73094">
        <ele>29.59</ele>
        <time>2019-05-28T13:17:38.000Z</time>
      </trkpt>
      <trkpt lat="44.09519" lon="4.73076">
        <ele>28.59</ele>
        <time>2019-05-28T13:17:43.000Z</time>
      </trkpt>
      <trkpt lat="44.09488" lon="4.73061">
        <ele>28.78</ele>
        <time>2019-05-28T13:17:48.000Z</time>
      </trkpt>
      <trkpt lat="44.09455" lon="4.73052">
        <ele>28.41</ele>
        <time>2019-05-28T13:17:53.000Z</time>
      </trkpt>
      <trkpt lat="44.09424" lon="4.7305">
        <ele>27.84</ele>
        <time>2019-05-28T13:17:58.000Z</time>
      </trkpt>
      <trkpt lat="44.09392" lon="4.73065">
        <ele>28.59</ele>
        <time>2019-05-28T13:18:03.000Z</time>
      </trkpt>
      <trkpt lat="44.09356" lon="4.73085">
        <ele>29.59</ele>
        <time>2019-05-28T13:18:08.000Z</time>
      </trkpt>
      <trkpt lat="44.09335" lon="4.73129">
        <ele>22.98</ele>
        <time>2019-05-28T13:18:13.000Z</time>
      </trkpt>
      <trkpt lat="44.09314" lon="4.73166">
        <ele>19.61</ele>
        <time>2019-05-28T13:18:18.000Z</time>
      </trkpt>
      <trkpt lat="44.09297" lon="4.73207">
        <ele>22.53</ele>
        <time>2019-05-28T13:18:23.000Z</time>
      </trkpt>
      <trkpt lat="44.09277" lon="4.73246">
        <ele>25.34</ele>
        <time>2019-05-28T13:18:28.000Z</time>
      </trkpt>
      <trkpt lat="44.09251" lon="4.73286">
        <ele>25.72</ele>
        <time>2019-05-28T13:18:33.000Z</time>
      </trkpt>
      <trkpt lat="44.09232" lon="4.73333">
        <ele>26.58</ele>
        <time>2019-05-28T13:18:38.000Z</time>
      </trkpt>
      <trkpt lat="44.09222" lon="4.73376">
        <ele>25.6</ele>
        <time>2019-05-28T13:18:43.000Z</time>
      </trkpt>
      <trkpt lat="44.0922" lon="4.73425">
        <ele>23.66</ele>
        <time>2019-05-28T13:18:48.000Z</time>
      </trkpt>
      <trkpt lat="44.09218" lon="4.73471">
        <ele>22.84</ele>
        <time>2019-05-28T13:18:53.000Z</time>
      </trkpt>
      <trkpt lat="44.09219" lon="4.7352">
        <ele>24.22</ele>
        <time>2019-05-28T13:18:58.000Z</time>
      </trkpt>
      <trkpt lat="44.09223" lon="4.73568">
        <ele>24.66</ele>
        <time>2019-05-28T13:19:03.000Z</time>
      </trkpt>
      <trkpt lat="44.0923" lon="4.73616">
        <ele>22.91</ele>
        <time>2019-05-28T13:19:08.000Z</time>
      </trkpt>
      <trkpt lat="44.09235" lon="4.73665">
        <ele>24.57</ele>
        <time>2019-05-28T13:19:13.000Z</time>
      </trkpt>
      <trkpt lat="44.0924" lon="4.73712">
        <ele>22.61</ele>
        <time>2019-05-28T13:19:18.000Z</time>
      </trkpt>
      <trkpt lat="44.09244" lon="4.73761">
        <ele>23.58</ele>
        <time>2019-05-28T13:19:23.000Z</time>
      </trkpt>
      <trkpt lat="44.09247" lon="4.7381">
        <ele>23.53</ele>
        <time>2019-05-28T13:19:28.000Z</time>
      </trkpt>
      <trkpt lat="44.09253" lon="4.73857">
        <ele>25.39</ele>
        <time>2019-05-28T13:19:33.000Z</time>
      </trkpt>
      <trkpt lat="44.09261" lon="4.739">
        <ele>27.53</ele>
        <time>2019-05-28T13:19:38.000Z</time>
      </trkpt>
      <trkpt lat="44.09262" lon="4.73947">
        <ele>25.8</ele>
        <time>2019-05-28T13:19:43.000Z</time>
      </trkpt>
      <trkpt lat="44.09265" lon="4.73992">
        <ele>25.84</ele>
        <time>2019-05-28T13:19:48.000Z</time>
      </trkpt>
      <trkpt lat="44.09272" lon="4.74035">
        <ele>26.55</ele>
        <time>2019-05-28T13:19:53.000Z</time>
      </trkpt>
      <trkpt lat="44.09285" lon="4.74077">
        <ele>24.85</ele>
        <time>2019-05-28T13:19:58.000Z</time>
      </trkpt>
      <trkpt lat="44.09306" lon="4.74117">
        <ele>23.6</ele>
        <time>2019-05-28T13:20:03.000Z</time>
      </trkpt>
      <trkpt lat="44.09327" lon="4.74153">
        <ele>22.84</ele>
        <time>2019-05-28T13:20:08.000Z</time>
      </trkpt>
      <trkpt lat="44.0935" lon="4.74188">
        <ele>23.34</ele>
        <time>2019-05-28T13:20:13.000Z</time>
      </trkpt>
      <trkpt lat="44.09367" lon="4.74223">
        <ele>22.59</ele>
        <time>2019-05-28T13:20:18.000Z</time>
      </trkpt>
      <trkpt lat="44.09388" lon="4.74257">
        <ele>21.8</ele>
        <time>2019-05-28T13:20:23.000Z</time>
      </trkpt>
      <trkpt lat="44.09409" lon="4.74293">
        <ele>23.33</ele>
        <time>2019-05-28T13:20:28.000Z</time>
      </trkpt>
      <trkpt lat="44.0943" lon="4.74324">
        <ele>22.9</ele>
        <time>2019-05-28T13:20:33.000Z</time>
      </trkpt>
      <trkpt lat="44.09453" lon="4.74353">
        <ele>23.77</ele>
        <time>2019-05-28T13:20:38.000Z</time>
      </trkpt>
      <trkpt lat="44.09477" lon="4.74381">
        <ele>23.41</ele>
        <time>2019-05-28T13:20:43.000Z</time>
      </trkpt>
      <trkpt lat="44.09501" lon="4.74409">
        <ele>25.33</ele>
        <time>2019-05-28T13:20:48.000Z</time>
      </trkpt>
      <trkpt lat="44.09525" lon="4.74436">
        <ele>24.84</ele>
        <time>2019-05-28T13:20:53.000Z</time>
      </trkpt>
      <trkpt lat="44.0955" lon="4.74462">
        <ele>25.78</ele>
        <time>2019-05-28T13:20:58.000Z</time>
      </trkpt>
      <trkpt lat="44.09574" lon="4.74488">
        <ele>25.59</ele>
        <time>2019-05-28T13:21:03.000Z</time>
      </trkpt>
      <trkpt lat="44.09598" lon="4.74513">
        <ele>24.64</ele>
        <time>2019-05-28T13:21:08.000Z</time>
      </trkpt>
      <trkpt lat="44.09619" lon="4.74536">
        <ele>24.59</ele>
        <time>2019-05-28T13:21:13.000Z</time>
      </trkpt>
      <trkpt lat="44.09641" lon="4.7456">
        <ele>23.84</ele>
        <time>2019-05-28T13:21:18.000Z</time>
      </trkpt>
      <trkpt lat="44.09663" lon="4.74584">
        <ele>24.59</ele>
        <time>2019-05-28T13:21:23.000Z</time>
      </trkpt>
      <trkpt lat="44.09683" lon="4.74606">
        <ele>24.53</ele>
        <time>2019-05-28T13:21:28.000Z</time>
      </trkpt>
      <trkpt lat="44.09703" lon="4.74629">
        <ele>24.59</ele>
        <time>2019-05-28T13:21:33.000Z</time>
      </trkpt>
      <trkpt lat="44.09722" lon="4.74649">
        <ele>24.4</ele>
        <time>2019-05-28T13:21:38.000Z</time>
      </trkpt>
      <trkpt lat="44.09742" lon="4.74672">
        <ele>23.61</ele>
        <time>2019-05-28T13:21:43.000Z</time>
      </trkpt>
      <trkpt lat="44.09758" lon="4.74699">
        <ele>23.59</ele>
        <time>2019-05-28T13:21:48.000Z</time>
      </trkpt>
      <trkpt lat="44.09773" lon="4.74727">
        <ele>24.78</ele>
        <time>2019-05-28T13:21:53.000Z</time>
      </trkpt>
      <trkpt lat="44.09787" lon="4.74756">
        <ele>24.59</ele>
        <time>2019-05-28T13:21:58.000Z</time>
      </trkpt>
      <trkpt lat="44.09804" lon="4.74786">
        <ele>24.34</ele>
        <time>2019-05-28T13:22:03.000Z</time>
      </trkpt>
      <trkpt lat="44.0982" lon="4.74817">
        <ele>24.59</ele>
        <time>2019-05-28T13:22:08.000Z</time>
      </trkpt>
      <trkpt lat="44.09844" lon="4.74839">
        <ele>25.59</ele>
        <time>2019-05-28T13:22:13.000Z</time>
      </trkpt>
      <trkpt lat="44.0987" lon="4.74861">
        <ele>25.59</ele>
        <time>2019-05-28T13:22:18.000Z</time>
      </trkpt>
      <trkpt lat="44.09894" lon="4.74885">
        <ele>26.35</ele>
        <time>2019-05-28T13:22:23.000Z</time>
      </trkpt>
      <trkpt lat="44.09914" lon="4.7491">
        <ele>26.57</ele>
        <time>2019-05-28T13:22:28.000Z</time>
      </trkpt>
      <trkpt lat="44.09938" lon="4.74934">
        <ele>25.59</ele>
        <time>2019-05-28T13:22:33.000Z</time>
      </trkpt>
      <trkpt lat="44.09962" lon="4.7496">
        <ele>24.84</ele>
        <time>2019-05-28T13:22:38.000Z</time>
      </trkpt>
      <trkpt lat="44.09986" lon="4.74986">
        <ele>24.82</ele>
        <time>2019-05-28T13:22:43.000Z</time>
      </trkpt>
      <trkpt lat="44.10005" lon="4.75016">
        <ele>24.65</ele>
        <time>2019-05-28T13:22:48.000Z</time>
      </trkpt>
      <trkpt lat="44.10024" lon="4.7505">
        <ele>24.59</ele>
        <time>2019-05-28T13:22:53.000Z</time>
      </trkpt>
      <trkpt lat="44.10042" lon="4.75083">
        <ele>24.59</ele>
        <time>2019-05-28T13:22:58.000Z</time>
      </trkpt>
      <trkpt lat="44.10048" lon="4.75121">
        <ele>23.85</ele>
        <time>2019-05-28T13:23:03.000Z</time>
      </trkpt>
      <trkpt lat="44.10039" lon="4.75158">
        <ele>26.52</ele>
        <time>2019-05-28T13:23:08.000Z</time>
      </trkpt>
      <trkpt lat="44.10025" lon="4.75194">
        <ele>27.57</ele>
        <time>2019-05-28T13:23:13.000Z</time>
      </trkpt>
      <trkpt lat="44.1002" lon="4.75235">
        <ele>26.6</ele>
        <time>2019-05-28T13:23:18.000Z</time>
      </trkpt>
      <trkpt lat="44.10015" lon="4.75276">
        <ele>26.54</ele>
        <time>2019-05-28T13:23:23.000Z</time>
      </trkpt>
      <trkpt lat="44.10011" lon="4.75315">
        <ele>25.84</ele>
        <time>2019-05-28T13:23:28.000Z</time>
      </trkpt>
      <trkpt lat="44.10006" lon="4.75356">
        <ele>25.57</ele>
        <time>2019-05-28T13:23:33.000Z</time>
      </trkpt>
      <trkpt lat="44.09999" lon="4.75399">
        <ele>26.52</ele>
        <time>2019-05-28T13:23:38.000Z</time>
      </trkpt>
      <trkpt lat="44.09995" lon="4.75436">
        <ele>26.64</ele>
        <time>2019-05-28T13:23:43.000Z</time>
      </trkpt>
      <trkpt lat="44.09998" lon="4.75457">
        <ele>27.52</ele>
        <time>2019-05-28T13:23:48.000Z</time>
      </trkpt>
      <trkpt lat="44.10009" lon="4.75461">
        <ele>28.52</ele>
        <time>2019-05-28T13:23:54.000Z</time>
      </trkpt>
      <trkpt lat="44.10032" lon="4.75445">
        <ele>26.64</ele>
        <time>2019-05-28T13:23:59.000Z</time>
      </trkpt>
      <trkpt lat="44.10057" lon="4.75437">
        <ele>26.59</ele>
        <time>2019-05-28T13:24:04.000Z</time>
      </trkpt>
      <trkpt lat="44.10082" lon="4.75427">
        <ele>25.6</ele>
        <time>2019-05-28T13:24:09.000Z</time>
      </trkpt>
      <trkpt lat="44.10104" lon="4.75404">
        <ele>25.63</ele>
        <time>2019-05-28T13:24:14.000Z</time>
      </trkpt>
      <trkpt lat="44.10122" lon="4.75382">
        <ele>26.52</ele>
        <time>2019-05-28T13:24:19.000Z</time>
      </trkpt>
      <trkpt lat="44.10145" lon="4.75369">
        <ele>26.34</ele>
        <time>2019-05-28T13:24:24.000Z</time>
      </trkpt>
      <trkpt lat="44.10171" lon="4.75373">
        <ele>23.85</ele>
        <time>2019-05-28T13:24:29.000Z</time>
      </trkpt>
      <trkpt lat="44.10197" lon="4.7538">
        <ele>24.57</ele>
        <time>2019-05-28T13:24:34.000Z</time>
      </trkpt>
      <trkpt lat="44.10223" lon="4.75384">
        <ele>24.33</ele>
        <time>2019-05-28T13:24:39.000Z</time>
      </trkpt>
      <trkpt lat="44.10248" lon="4.75392">
        <ele>22.84</ele>
        <time>2019-05-28T13:24:44.000Z</time>
      </trkpt>
      <trkpt lat="44.10273" lon="4.75397">
        <ele>22.59</ele>
        <time>2019-05-28T13:24:49.000Z</time>
      </trkpt>
      <trkpt lat="44.10299" lon="4.75403">
        <ele>22.58</ele>
        <time>2019-05-28T13:24:54.000Z</time>
      </trkpt>
      <trkpt lat="44.10322" lon="4.7541">
        <ele>23.58</ele>
        <time>2019-05-28T13:24:59.000Z</time>
      </trkpt>
      <trkpt lat="44.10349" lon="4.75417">
        <ele>23.58</ele>
        <time>2019-05-28T13:25:04.000Z</time>
      </trkpt>
      <trkpt lat="44.10374" lon="4.75426">
        <ele>23.58</ele>
        <time>2019-05-28T13:25:09.000Z</time>
      </trkpt>
      <trkpt lat="44.104" lon="4.75434">
        <ele>24.57</ele>
        <time>2019-05-28T13:25:14.000Z</time>
      </trkpt>
      <trkpt lat="44.10425" lon="4.75444">
        <ele>24.52</ele>
        <time>2019-05-28T13:25:19.000Z</time>
      </trkpt>
      <trkpt lat="44.10443" lon="4.75465">
        <ele>25.58</ele>
        <time>2019-05-28T13:25:24.000Z</time>
      </trkpt>
      <trkpt lat="44.1045" lon="4.75498">
        <ele>25.58</ele>
        <time>2019-05-28T13:25:29.000Z</time>
      </trkpt>
      <trkpt lat="44.10455" lon="4.75534">
        <ele>23.83</ele>
        <time>2019-05-28T13:25:34.000Z</time>
      </trkpt>
      <trkpt lat="44.10457" lon="4.75561">
        <ele>25.56</ele>
        <time>2019-05-28T13:25:39.000Z</time>
      </trkpt>
      <trkpt lat="44.10441" lon="4.75566">
        <ele>24.83</ele>
        <time>2019-05-28T13:25:44.000Z</time>
      </trkpt>
      <trkpt lat="44.10424" lon="4.75563">
        <ele>23.83</ele>
        <time>2019-05-28T13:25:49.000Z</time>
      </trkpt>
      <trkpt lat="44.10426" lon="4.7553">
        <ele>23.58</ele>
        <time>2019-05-28T13:25:54.000Z</time>
      </trkpt>
      <trkpt lat="44.10421" lon="4.75494">
        <ele>22.58</ele>
        <time>2019-05-28T13:25:59.000Z</time>
      </trkpt>
      <trkpt lat="44.10401" lon="4.75472">
        <ele>22.52</ele>
        <time>2019-05-28T13:26:04.000Z</time>
      </trkpt>
      <trkpt lat="44.10377" lon="4.75461">
        <ele>22.58</ele>
        <time>2019-05-28T13:26:09.000Z</time>
      </trkpt>
      <trkpt lat="44.10351" lon="4.75452">
        <ele>23.53</ele>
        <time>2019-05-28T13:26:14.000Z</time>
      </trkpt>
      <trkpt lat="44.10324" lon="4.75443">
        <ele>23.58</ele>
        <time>2019-05-28T13:26:19.000Z</time>
      </trkpt>
      <trkpt lat="44.10296" lon="4.75435">
        <ele>22.58</ele>
        <time>2019-05-28T13:26:24.000Z</time>
      </trkpt>
      <trkpt lat="44.10267" lon="4.7543">
        <ele>23.6</ele>
        <time>2019-05-28T13:26:29.000Z</time>
      </trkpt>
      <trkpt lat="44.10236" lon="4.75424">
        <ele>25.32</ele>
        <time>2019-05-28T13:26:34.000Z</time>
      </trkpt>
      <trkpt lat="44.10207" lon="4.75417">
        <ele>24.83</ele>
        <time>2019-05-28T13:26:39.000Z</time>
      </trkpt>
      <trkpt lat="44.10177" lon="4.75412">
        <ele>24.54</ele>
        <time>2019-05-28T13:26:44.000Z</time>
      </trkpt>
      <trkpt lat="44.1015" lon="4.75414">
        <ele>25.81</ele>
        <time>2019-05-28T13:26:49.000Z</time>
      </trkpt>
      <trkpt lat="44.1013" lon="4.75432">
        <ele>25.88</ele>
        <time>2019-05-28T13:26:54.000Z</time>
      </trkpt>
      <trkpt lat="44.10109" lon="4.75459">
        <ele>24.9</ele>
        <time>2019-05-28T13:26:59.000Z</time>
      </trkpt>
      <trkpt lat="44.10085" lon="4.75468">
        <ele>24.59</ele>
        <time>2019-05-28T13:27:04.000Z</time>
      </trkpt>
      <trkpt lat="44.1006" lon="4.7547">
        <ele>25.63</ele>
        <time>2019-05-28T13:27:09.000Z</time>
      </trkpt>
      <trkpt lat="44.10034" lon="4.75482">
        <ele>24.65</ele>
        <time>2019-05-28T13:27:14.000Z</time>
      </trkpt>
      <trkpt lat="44.1001" lon="4.75508">
        <ele>23.65</ele>
        <time>2019-05-28T13:27:19.000Z</time>
      </trkpt>
      <trkpt lat="44.09987" lon="4.75536">
        <ele>23.54</ele>
        <time>2019-05-28T13:27:24.000Z</time>
      </trkpt>
      <trkpt lat="44.09972" lon="4.75568">
        <ele>24.58</ele>
        <time>2019-05-28T13:27:29.000Z</time>
      </trkpt>
      <trkpt lat="44.09964" lon="4.75603">
        <ele>24.82</ele>
        <time>2019-05-28T13:27:34.000Z</time>
      </trkpt>
      <trkpt lat="44.0996" lon="4.75641">
        <ele>25.58</ele>
        <time>2019-05-28T13:27:39.000Z</time>
      </trkpt>
      <trkpt lat="44.09958" lon="4.75679">
        <ele>26.34</ele>
        <time>2019-05-28T13:27:44.000Z</time>
      </trkpt>
      <trkpt lat="44.09977" lon="4.75705">
        <ele>24.84</ele>
        <time>2019-05-28T13:27:49.000Z</time>
      </trkpt>
      <trkpt lat="44.10001" lon="4.75723">
        <ele>23.65</ele>
        <time>2019-05-28T13:27:54.000Z</time>
      </trkpt>
      <trkpt lat="44.10025" lon="4.7574">
        <ele>23.58</ele>
        <time>2019-05-28T13:27:59.000Z</time>
      </trkpt>
      <trkpt lat="44.10047" lon="4.75755">
        <ele>25.57</ele>
        <time>2019-05-28T13:28:04.000Z</time>
      </trkpt>
      <trkpt lat="44.1007" lon="4.75765">
        <ele>25.57</ele>
        <time>2019-05-28T13:28:09.000Z</time>
      </trkpt>
      <trkpt lat="44.10092" lon="4.75773">
        <ele>25.52</ele>
        <time>2019-05-28T13:28:14.000Z</time>
      </trkpt>
      <trkpt lat="44.10111" lon="4.75777">
        <ele>24.6</ele>
        <time>2019-05-28T13:28:19.000Z</time>
      </trkpt>
      <trkpt lat="44.10131" lon="4.75787">
        <ele>26.57</ele>
        <time>2019-05-28T13:28:24.000Z</time>
      </trkpt>
      <trkpt lat="44.10152" lon="4.75797">
        <ele>24.79</ele>
        <time>2019-05-28T13:28:29.000Z</time>
      </trkpt>
      <trkpt lat="44.10176" lon="4.75802">
        <ele>24.58</ele>
        <time>2019-05-28T13:28:34.000Z</time>
      </trkpt>
      <trkpt lat="44.10199" lon="4.75805">
        <ele>23.71</ele>
        <time>2019-05-28T13:28:39.000Z</time>
      </trkpt>
      <trkpt lat="44.10224" lon="4.75811">
        <ele>24.33</ele>
        <time>2019-05-28T13:28:44.000Z</time>
      </trkpt>
      <trkpt lat="44.10247" lon="4.75815">
        <ele>24.71</ele>
        <time>2019-05-28T13:28:49.000Z</time>
      </trkpt>
      <trkpt lat="44.10258" lon="4.75817">
        <ele>24.38</ele>
        <time>2019-05-28T13:28:54.000Z</time>
      </trkpt>
      <trkpt lat="44.10257" lon="4.75831">
        <ele>26.81</ele>
        <time>2019-05-28T13:29:20.000Z</time>
      </trkpt>
      <trkpt lat="44.1025" lon="4.75842">
        <ele>27.63</ele>
        <time>2019-05-28T13:29:52.000Z</time>
      </trkpt>
      <trkpt lat="44.10243" lon="4.75864">
        <ele>26.85</ele>
        <time>2019-05-28T13:29:57.000Z</time>
      </trkpt>
      <trkpt lat="44.10251" lon="4.75881">
        <ele>26.58</ele>
        <time>2019-05-28T13:30:02.000Z</time>
      </trkpt>
      <trkpt lat="44.10263" lon="4.75884">
        <ele>27.08</ele>
        <time>2019-05-28T13:32:28.000Z</time>
      </trkpt>
      <trkpt lat="44.10269" lon="4.75919">
        <ele>24.65</ele>
        <time>2019-05-28T13:32:33.000Z</time>
      </trkpt>
      <trkpt lat="44.10275" lon="4.75955">
        <ele>24.89</ele>
        <time>2019-05-28T13:32:38.000Z</time>
      </trkpt>
      <trkpt lat="44.10283" lon="4.75994">
        <ele>23.78</ele>
        <time>2019-05-28T13:32:43.000Z</time>
      </trkpt>
      <trkpt lat="44.1029" lon="4.76033">
        <ele>24.58</ele>
        <time>2019-05-28T13:32:48.000Z</time>
      </trkpt>
      <trkpt lat="44.10299" lon="4.76082">
        <ele>21.84</ele>
        <time>2019-05-28T13:32:53.000Z</time>
      </trkpt>
      <trkpt lat="44.10306" lon="4.76129">
        <ele>21.41</ele>
        <time>2019-05-28T13:32:58.000Z</time>
      </trkpt>
      <trkpt lat="44.10313" lon="4.76174">
        <ele>21.58</ele>
        <time>2019-05-28T13:33:03.000Z</time>
      </trkpt>
      <trkpt lat="44.10321" lon="4.76217">
        <ele>22.52</ele>
        <time>2019-05-28T13:33:08.000Z</time>
      </trkpt>
      <trkpt lat="44.10349" lon="4.76235">
        <ele>21.64</ele>
        <time>2019-05-28T13:33:13.000Z</time>
      </trkpt>
      <trkpt lat="44.1038" lon="4.76252">
        <ele>22.31</ele>
        <time>2019-05-28T13:33:18.000Z</time>
      </trkpt>
      <trkpt lat="44.10407" lon="4.76269">
        <ele>21.14</ele>
        <time>2019-05-28T13:33:23.000Z</time>
      </trkpt>
      <trkpt lat="44.10428" lon="4.76282">
        <ele>22.63</ele>
        <time>2019-05-28T13:33:28.000Z</time>
      </trkpt>
      <trkpt lat="44.10449" lon="4.76294">
        <ele>23.58</ele>
        <time>2019-05-28T13:33:33.000Z</time>
      </trkpt>
      <trkpt lat="44.10472" lon="4.7631">
        <ele>23.58</ele>
        <time>2019-05-28T13:33:38.000Z</time>
      </trkpt>
      <trkpt lat="44.10495" lon="4.76329">
        <ele>24.58</ele>
        <time>2019-05-28T13:33:43.000Z</time>
      </trkpt>
      <trkpt lat="44.10513" lon="4.76361">
        <ele>22.64</ele>
        <time>2019-05-28T13:33:48.000Z</time>
      </trkpt>
      <trkpt lat="44.1052" lon="4.764">
        <ele>24.08</ele>
        <time>2019-05-28T13:33:53.000Z</time>
      </trkpt>
      <trkpt lat="44.10527" lon="4.76445">
        <ele>24.58</ele>
        <time>2019-05-28T13:33:58.000Z</time>
      </trkpt>
      <trkpt lat="44.10531" lon="4.76486">
        <ele>24.28</ele>
        <time>2019-05-28T13:34:03.000Z</time>
      </trkpt>
      <trkpt lat="44.10534" lon="4.76529">
        <ele>22.64</ele>
        <time>2019-05-28T13:34:08.000Z</time>
      </trkpt>
      <trkpt lat="44.10539" lon="4.76573">
        <ele>22.33</ele>
        <time>2019-05-28T13:34:13.000Z</time>
      </trkpt>
      <trkpt lat="44.10559" lon="4.76606">
        <ele>22.57</ele>
        <time>2019-05-28T13:34:18.000Z</time>
      </trkpt>
      <trkpt lat="44.10584" lon="4.7663">
        <ele>24.5</ele>
        <time>2019-05-28T13:34:23.000Z</time>
      </trkpt>
      <trkpt lat="44.10603" lon="4.76663">
        <ele>26.26</ele>
        <time>2019-05-28T13:34:28.000Z</time>
      </trkpt>
      <trkpt lat="44.10623" lon="4.76688">
        <ele>29.31</ele>
        <time>2019-05-28T13:34:33.000Z</time>
      </trkpt>
      <trkpt lat="44.10636" lon="4.76721">
        <ele>25.09</ele>
        <time>2019-05-28T13:34:38.000Z</time>
      </trkpt>
      <trkpt lat="44.10646" lon="4.76758">
        <ele>23.4</ele>
        <time>2019-05-28T13:34:43.000Z</time>
      </trkpt>
      <trkpt lat="44.10663" lon="4.76792">
        <ele>23.57</ele>
        <time>2019-05-28T13:34:48.000Z</time>
      </trkpt>
      <trkpt lat="44.10669" lon="4.76833">
        <ele>23.58</ele>
        <time>2019-05-28T13:34:53.000Z</time>
      </trkpt>
      <trkpt lat="44.10673" lon="4.7688">
        <ele>22.34</ele>
        <time>2019-05-28T13:34:58.000Z</time>
      </trkpt>
      <trkpt lat="44.10676" lon="4.76927">
        <ele>22.57</ele>
        <time>2019-05-28T13:35:03.000Z</time>
      </trkpt>
      <trkpt lat="44.10678" lon="4.76974">
        <ele>21.62</ele>
        <time>2019-05-28T13:35:08.000Z</time>
      </trkpt>
      <trkpt lat="44.10681" lon="4.77021">
        <ele>22.57</ele>
        <time>2019-05-28T13:35:13.000Z</time>
      </trkpt>
      <trkpt lat="44.10685" lon="4.77068">
        <ele>23.8</ele>
        <time>2019-05-28T13:35:18.000Z</time>
      </trkpt>
      <trkpt lat="44.10689" lon="4.7711">
        <ele>23.56</ele>
        <time>2019-05-28T13:35:23.000Z</time>
      </trkpt>
      <trkpt lat="44.10714" lon="4.77134">
        <ele>23.87</ele>
        <time>2019-05-28T13:35:28.000Z</time>
      </trkpt>
      <trkpt lat="44.10743" lon="4.7715">
        <ele>25.32</ele>
        <time>2019-05-28T13:35:33.000Z</time>
      </trkpt>
      <trkpt lat="44.10767" lon="4.77173">
        <ele>26.55</ele>
        <time>2019-05-28T13:35:38.000Z</time>
      </trkpt>
      <trkpt lat="44.10793" lon="4.77197">
        <ele>25.63</ele>
        <time>2019-05-28T13:35:43.000Z</time>
      </trkpt>
      <trkpt lat="44.10817" lon="4.77224">
        <ele>25.57</ele>
        <time>2019-05-28T13:35:48.000Z</time>
      </trkpt>
      <trkpt lat="44.10834" lon="4.77258">
        <ele>25.57</ele>
        <time>2019-05-28T13:35:53.000Z</time>
      </trkpt>
      <trkpt lat="44.10846" lon="4.77294">
        <ele>25.58</ele>
        <time>2019-05-28T13:35:58.000Z</time>
      </trkpt>
      <trkpt lat="44.10859" lon="4.77333">
        <ele>25.57</ele>
        <time>2019-05-28T13:36:03.000Z</time>
      </trkpt>
      <trkpt lat="44.10872" lon="4.77367">
        <ele>25.57</ele>
        <time>2019-05-28T13:36:08.000Z</time>
      </trkpt>
      <trkpt lat="44.10883" lon="4.77402">
        <ele>25.57</ele>
        <time>2019-05-28T13:36:13.000Z</time>
      </trkpt>
      <trkpt lat="44.10892" lon="4.77441">
        <ele>25.57</ele>
        <time>2019-05-28T13:36:18.000Z</time>
      </trkpt>
      <trkpt lat="44.10905" lon="4.77478">
        <ele>24.57</ele>
        <time>2019-05-28T13:36:23.000Z</time>
      </trkpt>
      <trkpt lat="44.10917" lon="4.77517">
        <ele>24.32</ele>
        <time>2019-05-28T13:36:28.000Z</time>
      </trkpt>
      <trkpt lat="44.10928" lon="4.77552">
        <ele>24.57</ele>
        <time>2019-05-28T13:36:33.000Z</time>
      </trkpt>
      <trkpt lat="44.10941" lon="4.77586">
        <ele>25.32</ele>
        <time>2019-05-28T13:36:38.000Z</time>
      </trkpt>
      <trkpt lat="44.10955" lon="4.77619">
        <ele>25.57</ele>
        <time>2019-05-28T13:36:43.000Z</time>
      </trkpt>
      <trkpt lat="44.1097" lon="4.77648">
        <ele>25.77</ele>
        <time>2019-05-28T13:36:48.000Z</time>
      </trkpt>
      <trkpt lat="44.10987" lon="4.77677">
        <ele>26.56</ele>
        <time>2019-05-28T13:36:53.000Z</time>
      </trkpt>
      <trkpt lat="44.11004" lon="4.77706">
        <ele>27.56</ele>
        <time>2019-05-28T13:36:58.000Z</time>
      </trkpt>
      <trkpt lat="44.11021" lon="4.77735">
        <ele>27.56</ele>
        <time>2019-05-28T13:37:03.000Z</time>
      </trkpt>
      <trkpt lat="44.1104" lon="4.77763">
        <ele>28.62</ele>
        <time>2019-05-28T13:37:08.000Z</time>
      </trkpt>
      <trkpt lat="44.11057" lon="4.7779">
        <ele>27.8</ele>
        <time>2019-05-28T13:37:13.000Z</time>
      </trkpt>
      <trkpt lat="44.11074" lon="4.77814">
        <ele>26.58</ele>
        <time>2019-05-28T13:37:18.000Z</time>
      </trkpt>
      <trkpt lat="44.11092" lon="4.77836">
        <ele>26.38</ele>
        <time>2019-05-28T13:37:23.000Z</time>
      </trkpt>
      <trkpt lat="44.11104" lon="4.77865">
        <ele>25.81</ele>
        <time>2019-05-28T13:37:28.000Z</time>
      </trkpt>
      <trkpt lat="44.11118" lon="4.77902">
        <ele>24.56</ele>
        <time>2019-05-28T13:37:33.000Z</time>
      </trkpt>
      <trkpt lat="44.11145" lon="4.7792">
        <ele>25.56</ele>
        <time>2019-05-28T13:37:38.000Z</time>
      </trkpt>
      <trkpt lat="44.11165" lon="4.77948">
        <ele>24.57</ele>
        <time>2019-05-28T13:37:43.000Z</time>
      </trkpt>
      <trkpt lat="44.11169" lon="4.77987">
        <ele>24.56</ele>
        <time>2019-05-28T13:37:48.000Z</time>
      </trkpt>
      <trkpt lat="44.11173" lon="4.78027">
        <ele>24.58</ele>
        <time>2019-05-28T13:37:53.000Z</time>
      </trkpt>
      <trkpt lat="44.11177" lon="4.78065">
        <ele>23.58</ele>
        <time>2019-05-28T13:37:58.000Z</time>
      </trkpt>
      <trkpt lat="44.11175" lon="4.78104">
        <ele>23.56</ele>
        <time>2019-05-28T13:38:03.000Z</time>
      </trkpt>
      <trkpt lat="44.1117" lon="4.78144">
        <ele>24.55</ele>
        <time>2019-05-28T13:38:08.000Z</time>
      </trkpt>
      <trkpt lat="44.11166" lon="4.78184">
        <ele>25.5</ele>
        <time>2019-05-28T13:38:13.000Z</time>
      </trkpt>
      <trkpt lat="44.11163" lon="4.78226">
        <ele>25.55</ele>
        <time>2019-05-28T13:38:18.000Z</time>
      </trkpt>
      <trkpt lat="44.11157" lon="4.78266">
        <ele>26.56</ele>
        <time>2019-05-28T13:38:23.000Z</time>
      </trkpt>
      <trkpt lat="44.1115" lon="4.78307">
        <ele>26.56</ele>
        <time>2019-05-28T13:38:28.000Z</time>
      </trkpt>
      <trkpt lat="44.11143" lon="4.78344">
        <ele>26.56</ele>
        <time>2019-05-28T13:38:33.000Z</time>
      </trkpt>
      <trkpt lat="44.11136" lon="4.78387">
        <ele>26.56</ele>
        <time>2019-05-28T13:38:38.000Z</time>
      </trkpt>
      <trkpt lat="44.11124" lon="4.78423">
        <ele>27.56</ele>
        <time>2019-05-28T13:38:43.000Z</time>
      </trkpt>
      <trkpt lat="44.11116" lon="4.78454">
        <ele>28.5</ele>
        <time>2019-05-28T13:38:48.000Z</time>
      </trkpt>
      <trkpt lat="44.11113" lon="4.7848">
        <ele>27.58</ele>
        <time>2019-05-28T13:38:53.000Z</time>
      </trkpt>
      <trkpt lat="44.11112" lon="4.78493">
        <ele>29.5</ele>
        <time>2019-05-28T13:39:17.000Z</time>
      </trkpt>
      <trkpt lat="44.11114" lon="4.78519">
        <ele>28.62</ele>
        <time>2019-05-28T13:39:22.000Z</time>
      </trkpt>
      <trkpt lat="44.1111" lon="4.78556">
        <ele>28.56</ele>
        <time>2019-05-28T13:39:27.000Z</time>
      </trkpt>
      <trkpt lat="44.11107" lon="4.7859">
        <ele>29.5</ele>
        <time>2019-05-28T13:39:32.000Z</time>
      </trkpt>
      <trkpt lat="44.11101" lon="4.78627">
        <ele>31.1</ele>
        <time>2019-05-28T13:39:37.000Z</time>
      </trkpt>
      <trkpt lat="44.111" lon="4.78663">
        <ele>31.56</ele>
        <time>2019-05-28T13:39:42.000Z</time>
      </trkpt>
      <trkpt lat="44.11102" lon="4.78692">
        <ele>32.54</ele>
        <time>2019-05-28T13:39:47.000Z</time>
      </trkpt>
      <trkpt lat="44.11105" lon="4.78716">
        <ele>33.54</ele>
        <time>2019-05-28T13:39:52.000Z</time>
      </trkpt>
      <trkpt lat="44.11109" lon="4.78738">
        <ele>35.49</ele>
        <time>2019-05-28T13:39:57.000Z</time>
      </trkpt>
      <trkpt lat="44.11112" lon="4.78758">
        <ele>36.55</ele>
        <time>2019-05-28T13:40:02.000Z</time>
      </trkpt>
      <trkpt lat="44.11116" lon="4.78778">
        <ele>37.31</ele>
        <time>2019-05-28T13:40:07.000Z</time>
      </trkpt>
      <trkpt lat="44.11121" lon="4.78801">
        <ele>37.56</ele>
        <time>2019-05-28T13:40:12.000Z</time>
      </trkpt>
      <trkpt lat="44.11125" lon="4.78824">
        <ele>36.56</ele>
        <time>2019-05-28T13:40:17.000Z</time>
      </trkpt>
      <trkpt lat="44.11129" lon="4.78851">
        <ele>37.56</ele>
        <time>2019-05-28T13:40:22.000Z</time>
      </trkpt>
      <trkpt lat="44.11134" lon="4.78884">
        <ele>37.56</ele>
        <time>2019-05-28T13:40:27.000Z</time>
      </trkpt>
      <trkpt lat="44.11137" lon="4.78924">
        <ele>36.62</ele>
        <time>2019-05-28T13:40:32.000Z</time>
      </trkpt>
      <trkpt lat="44.11133" lon="4.78971">
        <ele>34.62</ele>
        <time>2019-05-28T13:40:37.000Z</time>
      </trkpt>
      <trkpt lat="44.11122" lon="4.79025">
        <ele>32.62</ele>
        <time>2019-05-28T13:40:42.000Z</time>
      </trkpt>
      <trkpt lat="44.1111" lon="4.79083">
        <ele>31.51</ele>
        <time>2019-05-28T13:40:47.000Z</time>
      </trkpt>
      <trkpt lat="44.11102" lon="4.79137">
        <ele>30.8</ele>
        <time>2019-05-28T13:40:52.000Z</time>
      </trkpt>
      <trkpt lat="44.11095" lon="4.79189">
        <ele>29.56</ele>
        <time>2019-05-28T13:40:57.000Z</time>
      </trkpt>
      <trkpt lat="44.11092" lon="4.7924">
        <ele>28.56</ele>
        <time>2019-05-28T13:41:02.000Z</time>
      </trkpt>
      <trkpt lat="44.11087" lon="4.79271">
        <ele>28.56</ele>
        <time>2019-05-28T13:41:07.000Z</time>
      </trkpt>
      <trkpt lat="44.11087" lon="4.79284">
        <ele>28.81</ele>
        <time>2019-05-28T13:41:15.000Z</time>
      </trkpt>
      <trkpt lat="44.11086" lon="4.79297">
        <ele>29.74</ele>
        <time>2019-05-28T13:41:20.000Z</time>
      </trkpt>
      <trkpt lat="44.11109" lon="4.79307">
        <ele>29.8</ele>
        <time>2019-05-28T13:41:25.000Z</time>
      </trkpt>
      <trkpt lat="44.11134" lon="4.79323">
        <ele>28.81</ele>
        <time>2019-05-28T13:41:30.000Z</time>
      </trkpt>
      <trkpt lat="44.11159" lon="4.79337">
        <ele>26.8</ele>
        <time>2019-05-28T13:41:35.000Z</time>
      </trkpt>
      <trkpt lat="44.11185" lon="4.79349">
        <ele>26.5</ele>
        <time>2019-05-28T13:41:40.000Z</time>
      </trkpt>
      <trkpt lat="44.11208" lon="4.79362">
        <ele>26.73</ele>
        <time>2019-05-28T13:41:45.000Z</time>
      </trkpt>
      <trkpt lat="44.11221" lon="4.79376">
        <ele>26.57</ele>
        <time>2019-05-28T13:41:50.000Z</time>
      </trkpt>
      <trkpt lat="44.11226" lon="4.79405">
        <ele>27.49</ele>
        <time>2019-05-28T13:41:55.000Z</time>
      </trkpt>
      <trkpt lat="44.11231" lon="4.79438">
        <ele>28.55</ele>
        <time>2019-05-28T13:42:00.000Z</time>
      </trkpt>
      <trkpt lat="44.1123" lon="4.79475">
        <ele>28.55</ele>
        <time>2019-05-28T13:42:05.000Z</time>
      </trkpt>
      <trkpt lat="44.11224" lon="4.79511">
        <ele>29.49</ele>
        <time>2019-05-28T13:42:10.000Z</time>
      </trkpt>
      <trkpt lat="44.1122" lon="4.79552">
        <ele>29.6</ele>
        <time>2019-05-28T13:42:15.000Z</time>
      </trkpt>
      <trkpt lat="44.11213" lon="4.79596">
        <ele>28.79</ele>
        <time>2019-05-28T13:42:20.000Z</time>
      </trkpt>
      <trkpt lat="44.11213" lon="4.79639">
        <ele>29.49</ele>
        <time>2019-05-28T13:42:25.000Z</time>
      </trkpt>
      <trkpt lat="44.11208" lon="4.79683">
        <ele>29.55</ele>
        <time>2019-05-28T13:42:30.000Z</time>
      </trkpt>
      <trkpt lat="44.11197" lon="4.79726">
        <ele>29.74</ele>
        <time>2019-05-28T13:42:35.000Z</time>
      </trkpt>
      <trkpt lat="44.11182" lon="4.7977">
        <ele>30.54</ele>
        <time>2019-05-28T13:42:40.000Z</time>
      </trkpt>
      <trkpt lat="44.11168" lon="4.79814">
        <ele>30.55</ele>
        <time>2019-05-28T13:42:45.000Z</time>
      </trkpt>
      <trkpt lat="44.1116" lon="4.79857">
        <ele>30.55</ele>
        <time>2019-05-28T13:42:50.000Z</time>
      </trkpt>
      <trkpt lat="44.11155" lon="4.79899">
        <ele>30.61</ele>
        <time>2019-05-28T13:42:55.000Z</time>
      </trkpt>
      <trkpt lat="44.11146" lon="4.79937">
        <ele>30.55</ele>
        <time>2019-05-28T13:43:00.000Z</time>
      </trkpt>
      <trkpt lat="44.11134" lon="4.79967">
        <ele>30.57</ele>
        <time>2019-05-28T13:43:05.000Z</time>
      </trkpt>
      <trkpt lat="44.11122" lon="4.80002">
        <ele>30.55</ele>
        <time>2019-05-28T13:43:10.000Z</time>
      </trkpt>
      <trkpt lat="44.11102" lon="4.80038">
        <ele>30.55</ele>
        <time>2019-05-28T13:43:15.000Z</time>
      </trkpt>
      <trkpt lat="44.11081" lon="4.80073">
        <ele>28.82</ele>
        <time>2019-05-28T13:43:20.000Z</time>
      </trkpt>
      <trkpt lat="44.11067" lon="4.80111">
        <ele>31.24</ele>
        <time>2019-05-28T13:43:25.000Z</time>
      </trkpt>
      <trkpt lat="44.1106" lon="4.80156">
        <ele>32.54</ele>
        <time>2019-05-28T13:43:30.000Z</time>
      </trkpt>
      <trkpt lat="44.11056" lon="4.80198">
        <ele>32.36</ele>
        <time>2019-05-28T13:43:35.000Z</time>
      </trkpt>
      <trkpt lat="44.11049" lon="4.80239">
        <ele>31.86</ele>
        <time>2019-05-28T13:43:40.000Z</time>
      </trkpt>
      <trkpt lat="44.11042" lon="4.80265">
        <ele>31.56</ele>
        <time>2019-05-28T13:43:45.000Z</time>
      </trkpt>
      <trkpt lat="44.1102" lon="4.80262">
        <ele>31.31</ele>
        <time>2019-05-28T13:43:50.000Z</time>
      </trkpt>
      <trkpt lat="44.10992" lon="4.80259">
        <ele>30.56</ele>
        <time>2019-05-28T13:43:55.000Z</time>
      </trkpt>
      <trkpt lat="44.10962" lon="4.80256">
        <ele>29.8</ele>
        <time>2019-05-28T13:44:00.000Z</time>
      </trkpt>
      <trkpt lat="44.10929" lon="4.80256">
        <ele>29.51</ele>
        <time>2019-05-28T13:44:05.000Z</time>
      </trkpt>
      <trkpt lat="44.10895" lon="4.80257">
        <ele>29.55</ele>
        <time>2019-05-28T13:44:10.000Z</time>
      </trkpt>
      <trkpt lat="44.10862" lon="4.80258">
        <ele>29.79</ele>
        <time>2019-05-28T13:44:15.000Z</time>
      </trkpt>
      <trkpt lat="44.10828" lon="4.80262">
        <ele>28.8</ele>
        <time>2019-05-28T13:44:20.000Z</time>
      </trkpt>
      <trkpt lat="44.10794" lon="4.80274">
        <ele>28.56</ele>
        <time>2019-05-28T13:44:25.000Z</time>
      </trkpt>
      <trkpt lat="44.10763" lon="4.80294">
        <ele>29.49</ele>
        <time>2019-05-28T13:44:30.000Z</time>
      </trkpt>
      <trkpt lat="44.10731" lon="4.80314">
        <ele>26.88</ele>
        <time>2019-05-28T13:44:35.000Z</time>
      </trkpt>
      <trkpt lat="44.10701" lon="4.80334">
        <ele>27.56</ele>
        <time>2019-05-28T13:44:40.000Z</time>
      </trkpt>
      <trkpt lat="44.10669" lon="4.80352">
        <ele>27.8</ele>
        <time>2019-05-28T13:44:45.000Z</time>
      </trkpt>
      <trkpt lat="44.10634" lon="4.80363">
        <ele>28.54</ele>
        <time>2019-05-28T13:44:50.000Z</time>
      </trkpt>
      <trkpt lat="44.10602" lon="4.80376">
        <ele>30.48</ele>
        <time>2019-05-28T13:44:55.000Z</time>
      </trkpt>
      <trkpt lat="44.10573" lon="4.80397">
        <ele>27.81</ele>
        <time>2019-05-28T13:45:00.000Z</time>
      </trkpt>
      <trkpt lat="44.10547" lon="4.80422">
        <ele>27.32</ele>
        <time>2019-05-28T13:45:05.000Z</time>
      </trkpt>
      <trkpt lat="44.10521" lon="4.80454">
        <ele>26.56</ele>
        <time>2019-05-28T13:45:10.000Z</time>
      </trkpt>
      <trkpt lat="44.10493" lon="4.80481">
        <ele>26.56</ele>
        <time>2019-05-28T13:45:15.000Z</time>
      </trkpt>
      <trkpt lat="44.10462" lon="4.80503">
        <ele>27.48</ele>
        <time>2019-05-28T13:45:20.000Z</time>
      </trkpt>
      <trkpt lat="44.10431" lon="4.80519">
        <ele>27.8</ele>
        <time>2019-05-28T13:45:25.000Z</time>
      </trkpt>
      <trkpt lat="44.10399" lon="4.80534">
        <ele>29.31</ele>
        <time>2019-05-28T13:45:30.000Z</time>
      </trkpt>
      <trkpt lat="44.10369" lon="4.80546">
        <ele>29.56</ele>
        <time>2019-05-28T13:45:35.000Z</time>
      </trkpt>
      <trkpt lat="44.10253" lon="4.80595">
        <ele>33</ele>
      </trkpt>
      <trkpt lat="44.10068" lon="4.80595">
        <ele>34.1</ele>
      </trkpt>
      <trkpt lat="44.09875" lon="4.80535">
        <ele>32.7</ele>
      </trkpt>
      <trkpt lat="44.09692" lon="4.8052">
        <ele>37.4</ele>
      </trkpt>
      <trkpt lat="44.09579" lon="4.8052">
        <ele>42.6</ele>
      </trkpt>
      <trkpt lat="44.09421" lon="4.80554">
        <ele>48.5</ele>
      </trkpt>
      <trkpt lat="44.0918" lon="4.80539">
        <ele>60.9</ele>
      </trkpt>
      <trkpt lat="44.08965" lon="4.80464">
        <ele>65.5</ele>
      </trkpt>
      <trkpt lat="44.08791" lon="4.8043">
        <ele>76.8</ele>
      </trkpt>
      <trkpt lat="44.08463" lon="4.80639">
        <ele>92</ele>
      </trkpt>
      <trkpt lat="44.08442" lon="4.80789">
        <ele>106.1</ele>
      </trkpt>
      <trkpt lat="44.08299" lon="4.80882">
        <ele>106.1</ele>
      </trkpt>
      <trkpt lat="44.08278" lon="4.81092">
        <ele>107.2</ele>
      </trkpt>
      <trkpt lat="44.08181" lon="4.8117">
        <ele>112.4</ele>
      </trkpt>
      <trkpt lat="44.07959" lon="4.81129">
        <ele>109.4</ele>
      </trkpt>
      <trkpt lat="44.07924" lon="4.81065">
        <ele>104.1</ele>
      </trkpt>
      <trkpt lat="44.07943" lon="4.80841">
        <ele>91.6</ele>
      </trkpt>
      <trkpt lat="44.07831" lon="4.80821">
        <ele>93.4</ele>
      </trkpt>
      <trkpt lat="44.0775" lon="4.80789">
        <ele>94.7</ele>
      </trkpt>
      <trkpt lat="44.07661" lon="4.80746">
        <ele>93.5</ele>
      </trkpt>
      <trkpt lat="44.07576" lon="4.80688">
        <ele>89.8</ele>
      </trkpt>
      <trkpt lat="44.07439" lon="4.8066">
        <ele>85.9</ele>
      </trkpt>
      <trkpt lat="44.07362" lon="4.80648">
        <ele>85.1</ele>
      </trkpt>
      <trkpt lat="44.07274" lon="4.80635">
        <ele>83.2</ele>
      </trkpt>
      <trkpt lat="44.0706" lon="4.80633">
        <ele>80.2</ele>
      </trkpt>
      <trkpt lat="44.06957" lon="4.80641">
        <ele>79</ele>
      </trkpt>
      <trkpt lat="44.06893" lon="4.8066">
        <ele>77.3</ele>
      </trkpt>
      <trkpt lat="44.06842" lon="4.80744">
        <ele>76.3</ele>
      </trkpt>
      <trkpt lat="44.06748" lon="4.80858">
        <ele>75.4</ele>
      </trkpt>
      <trkpt lat="44.06727" lon="4.80869">
        <ele>75.8</ele>
      </trkpt>
      <trkpt lat="44.06713" lon="4.80905">
        <ele>76.7</ele>
      </trkpt>
      <trkpt lat="44.06627" lon="4.80995">
        <ele>79.8</ele>
      </trkpt>
      <trkpt lat="44.06582" lon="4.8103">
        <ele>81.6</ele>
      </trkpt>
      <trkpt lat="44.06519" lon="4.81034">
        <ele>80.3</ele>
      </trkpt>
      <trkpt lat="44.06354" lon="4.8112">
        <ele>77</ele>
      </trkpt>
      <trkpt lat="44.06294" lon="4.81145">
        <ele>73.5</ele>
      </trkpt>
      <trkpt lat="44.06233" lon="4.81199">
        <ele>72.5</ele>
      </trkpt>
      <trkpt lat="44.06153" lon="4.81313">
        <ele>71.7</ele>
      </trkpt>
      <trkpt lat="44.0611" lon="4.81399">
        <ele>71.1</ele>
      </trkpt>
      <trkpt lat="44.06087" lon="4.81399">
        <ele>70.7</ele>
      </trkpt>
      <trkpt lat="44.06041" lon="4.81339">
        <ele>64.2</ele>
      </trkpt>
      <trkpt lat="44.06021" lon="4.81347">
        <ele>62.4</ele>
      </trkpt>
      <trkpt lat="44.05996" lon="4.81412">
        <ele>60.7</ele>
      </trkpt>
      <trkpt lat="44.05974" lon="4.81448">
        <ele>59.6</ele>
      </trkpt>
      <trkpt lat="44.05908" lon="4.81484">
        <ele>52.7</ele>
      </trkpt>
      <trkpt lat="44.05851" lon="4.81497">
        <ele>51.6</ele>
      </trkpt>
      <trkpt lat="44.05797" lon="4.81648">
        <ele>47.1</ele>
      </trkpt>
      <trkpt lat="44.05742" lon="4.81628">
        <ele>45.2</ele>
      </trkpt>
      <trkpt lat="44.05669" lon="4.81605">
        <ele>44.2</ele>
      </trkpt>
      <trkpt lat="44.05615" lon="4.81592">
        <ele>45.1</ele>
      </trkpt>
      <trkpt lat="44.05536" lon="4.81484">
        <ele>42.2</ele>
      </trkpt>
      <trkpt lat="44.05515" lon="4.81648">
        <ele>46</ele>
      </trkpt>
      <trkpt lat="44.0551" lon="4.81864">
        <ele>51.5</ele>
      </trkpt>
      <trkpt lat="44.05415" lon="4.8201">
        <ele>51.5</ele>
      </trkpt>
      <trkpt lat="44.05407" lon="4.82094">
        <ele>53.5</ele>
      </trkpt>
      <trkpt lat="44.05408" lon="4.82296">
        <ele>57</ele>
      </trkpt>
      <trkpt lat="44.05407" lon="4.82493">
        <ele>56.2</ele>
      </trkpt>
      <trkpt lat="44.0541" lon="4.82607">
        <ele>52.3</ele>
      </trkpt>
      <trkpt lat="44.05399" lon="4.82669">
        <ele>50.7</ele>
      </trkpt>
      <trkpt lat="44.05351" lon="4.82682">
        <ele>48.6</ele>
      </trkpt>
      <trkpt lat="44.05305" lon="4.82641">
        <ele>45.3</ele>
      </trkpt>
      <trkpt lat="44.05245" lon="4.82626">
        <ele>41.4</ele>
      </trkpt>
      <trkpt lat="44.05177" lon="4.82587">
        <ele>40.3</ele>
      </trkpt>
      <trkpt lat="44.05125" lon="4.82581">
        <ele>39</ele>
      </trkpt>
      <trkpt lat="44.0506" lon="4.82557">
        <ele>36.3</ele>
      </trkpt>
      <trkpt lat="44.04977" lon="4.82551">
        <ele>34</ele>
      </trkpt>
      <trkpt lat="44.04944" lon="4.82532">
        <ele>34</ele>
      </trkpt>
      <trkpt lat="44.04898" lon="4.82472">
        <ele>32.9</ele>
      </trkpt>
      <trkpt lat="44.04883" lon="4.82497">
        <ele>32.7</ele>
      </trkpt>
      <trkpt lat="44.04859" lon="4.82622">
        <ele>32.9</ele>
      </trkpt>
      <trkpt lat="44.04824" lon="4.82852">
        <ele>30.5</ele>
      </trkpt>
      <trkpt lat="44.04828" lon="4.83019">
        <ele>31.4</ele>
      </trkpt>
      <trkpt lat="44.04843" lon="4.83053">
        <ele>33.1</ele>
      </trkpt>
      <trkpt lat="44.04843" lon="4.83062">
        <ele>33.1</ele>
      </trkpt>
      <trkpt lat="44.04712" lon="4.82984">
        <ele>27.9</ele>
      </trkpt>
      <trkpt lat="44.0463" lon="4.82946">
        <ele>28.7</ele>
      </trkpt>
      <trkpt lat="44.04479" lon="4.82797">
        <ele>29.9</ele>
      </trkpt>
      <trkpt lat="44.04404" lon="4.82723">
        <ele>27.6</ele>
      </trkpt>
      <trkpt lat="44.0436" lon="4.82678">
        <ele>27.9</ele>
      </trkpt>
      <trkpt lat="44.04336" lon="4.82615">
        <ele>27.1</ele>
      </trkpt>
      <trkpt lat="44.04197" lon="4.82546">
        <ele>28</ele>
      </trkpt>
      <trkpt lat="44.04184" lon="4.82486">
        <ele>31.4</ele>
      </trkpt>
      <trkpt lat="44.04149" lon="4.82471">
        <ele>33.2</ele>
      </trkpt>
      <trkpt lat="44.04136" lon="4.82417">
        <ele>33.3</ele>
      </trkpt>
      <trkpt lat="44.04155" lon="4.82378">
        <ele>31.5</ele>
      </trkpt>
    </trkseg>
  </trk>
</gpx>